[[{"header":{"parameterUnit":"m.s-1","parameterCategory":1,"la1":30.6,"la2":29.2853,"lo1":-89.7004,"lo2":-87.6739,"dy":0.0162,"dx":0.0183,"nx":112,"ny":82,"refTime":"2026-04-18T00:00:00:Z","depth":0,"parameterNumber":2,"parameterNumberName":"U-component_of_WINDS"},"data":[0.0,0.0,0.0,0.0,0.0,0.0,0.0,0.0,0.0,0.0,0.0,0.0,0.0,0.0,0.0,0.0,0.0,0.0,0.0,0.0,0.0,0.0,0.0,0.0,0.0,0.0,0.0,0.0,0.0,0.0,0.0,0.0,0.0,0.0,0.0,0.0,0.0,0.0,0.0,0.0,0.0,0.0,0.0,0.0,0.0,0.0,0.0,0.0,0.0,0.0,0.0,0.0,0.0,0.0,0.0,0.0,0.0,0.0,0.0,0.0,0.0,0.0,0.0,0.0,0.0,0.0,0.0,0.0,0.0,0.0,0.0,0.0,0.0,0.0,0.0,0.0,0.0,0.0,0.0,0.0,0.0,0.0,0.0,0.0,0.0,0.0,0.0,0.0,0.0,0.0,0.8215,0.8816,0.9056,0.9408,0.9983,0.9837,0.9667,0.953,0.0,0.0,0.0,0.0,0.0,0.0,0.0,0.0,0.0,0.0,0.0,0.0,0.0,0.0,0.0,0.0,0.0,0.0,0.0,0.0,0.0,0.0,0.0,0.0,0.0,0.0,0.0,0.0,0.0,0.0,0.0,0.0,0.0,0.0,0.0,0.0,0.0,0.0,0.0,0.0,0.0,0.0,0.0,0.0,0.0,0.0,0.0,0.0,0.0,0.0,0.0,0.0,0.0,0.0,0.0,0.0,0.0,0.0,0.0,0.0,0.0,0.0,0.0,0.0,0.0,0.0,0.0,0.0,0.0,0.0,0.0,0.0,0.0,0.0,0.0,0.0,0.0,0.0,0.0,0.0,0.0,0.0,0.0,0.0,0.0,0.0,0.0,0.0,0.0,0.0,0.0,0.0,0.0,0.0,0.0,0.0,0.0,0.0,0.0,0.0,0.0,0.0,0.0,0.0,0.6509,0.7335,0.7598,0.7999,0.871,0.8332,0.8247,0.8659,0.0,0.0,0.0,0.0,0.0,0.0,0.0,0.0,0.0,0.0,0.0,0.0,0.0,0.0,0.0,0.0,0.0,0.0,0.0,0.0,0.0,0.0,0.0,0.0,0.0,0.0,0.0,0.0,0.0,0.0,0.0,0.0,0.0,0.0,0.0,0.0,0.0,0.0,0.0,0.0,0.0,0.0,0.0,0.0,0.0,0.0,0.0,0.0,0.0,0.0,0.0,0.0,0.0,0.0,0.0,0.0,0.0,0.0,0.0,0.0,0.0,0.0,0.0,0.0,0.0,0.0,0.0,0.0,0.0,0.0,0.0,0.0,0.0,0.0,0.0,0.0,0.0,0.0,0.0,0.0,0.0,0.0,0.0,0.0,0.0,0.0,0.0,0.0,0.0,0.0,0.0,0.0,0.0,0.0,0.0,0.0,0.0,0.0,0.0,0.0,0.0,0.0,0.0,0.6093,0.6414,0.7185,0.7351,0.7528,0.7869,0.7788,0.7753,0.79,0.801,0.0,0.0,0.0,0.0,0.0,0.0,0.0,0.0,0.0,0.0,0.0,0.0,0.0,0.0,0.0,0.0,0.0,0.0,0.0,0.0,0.0,0.0,0.0,0.0,0.0,0.0,0.0,0.0,0.0,0.0,0.0,0.0,0.0,0.0,0.0,0.0,0.0,0.0,0.0,0.0,0.0,0.0,0.0,0.0,0.0,0.0,0.0,0.0,0.0,0.0,0.0,0.0,0.0,0.0,0.0,0.0,0.0,0.0,0.0,0.0,0.0,0.0,0.0,0.0,0.0,0.0,0.0,0.0,0.0,0.0,0.0,0.0,0.0,0.0,0.0,0.0,0.0,0.0,0.0,0.0,0.0,0.0,0.0,0.0,0.0,0.0,0.0,0.0,0.0,0.0,0.0,0.0,0.0,0.0,0.0,0.0,0.0,0.0,0.0,0.0,0.0,0.0,0.5959,0.6265,0.6854,0.6933,0.6999,0.7153,0.7152,0.7177,0.7273,0.6955,0.0,0.0,0.0,0.0,0.0,0.0,0.0,0.0,0.0,0.0,0.0,0.0,0.0,0.0,0.0,0.0,0.0,0.0,0.0,0.0,0.0,0.0,0.0,0.0,0.0,0.0,0.0,0.0,0.0,0.0,0.0,0.0,0.0,0.0,0.0,0.0,0.0,0.0,0.0,0.0,0.0,0.0,0.0,0.0,0.0,0.0,0.0,0.0,0.0,0.0,0.0,0.0,0.0,0.0,0.0,0.0,0.0,0.0,0.0,0.0,0.0,0.0,0.0,0.0,0.0,0.0,0.0,0.0,0.0,0.0,0.0,0.0,0.0,0.0,0.0,0.0,0.0,0.0,0.0,0.0,0.0,0.0,0.0,0.0,0.0,0.0,0.0,0.0,0.0,0.0,0.0,0.0,0.0,0.0,0.0,0.0,0.0,0.0,0.0,0.0,0.0,0.0,0.465,0.5145,0.5506,0.5541,0.5782,0.6416,0.5855,0.5895,0.6872,0.6045,0.0,0.0,0.0,0.0,0.0,0.0,0.0,0.0,0.0,0.0,0.0,0.0,0.0,0.0,0.0,0.0,0.0,0.0,0.0,0.0,0.0,0.0,0.0,0.0,0.0,0.0,0.0,0.0,0.0,0.0,0.0,0.0,0.0,0.0,0.0,0.0,0.0,0.0,0.0,0.0,0.0,0.0,0.0,0.0,0.0,0.0,0.0,0.0,0.0,0.0,0.0,0.0,0.0,0.0,0.0,0.0,0.0,0.0,0.0,0.0,0.0,0.0,0.0,0.0,0.0,0.0,0.0,0.0,0.0,0.0,0.0,0.0,0.0,0.0,0.0,0.0,0.0,0.0,0.0,0.0,0.0,0.0,0.0,0.0,0.0,0.0,0.0,0.0,0.0,0.0,0.0,0.0,0.0,0.0,0.0,0.0,0.0,0.0,0.0,0.0,0.0,0.0,0.4382,0.4838,0.0,0.5392,0.5508,0.5749,0.5678,0.5622,0.5655,0.0,0.0,0.0,0.0,0.0,0.0,0.0,0.0,0.0,0.0,0.0,0.0,0.0,0.0,0.0,0.0,0.0,0.0,0.0,0.0,0.0,0.0,0.0,0.0,0.0,0.0,0.0,0.0,0.0,0.0,0.0,0.0,0.0,0.0,0.0,0.0,0.0,0.0,0.0,0.0,0.0,0.0,0.0,0.0,0.0,0.0,0.0,0.0,0.0,0.0,0.0,0.0,0.0,0.0,0.0,0.0,0.0,0.0,0.0,0.0,0.0,0.0,0.0,0.0,0.0,0.0,0.0,0.0,0.0,0.0,0.0,0.0,0.0,0.0,0.0,0.0,0.0,0.0,0.0,0.0,0.0,0.0,0.0,0.0,0.0,0.0,0.0,0.0,0.0,0.0,0.0,0.0,0.0,0.0,0.0,0.0,0.0,0.0,0.0,0.0,0.0,0.0,0.3446,0.3807,0.4272,0.0,0.499,0.5058,0.5223,0.5239,0.5114,0.4857,0.0,0.0,0.0,0.0,0.0,0.0,0.0,0.0,0.0,0.0,0.0,0.0,0.0,0.0,0.0,0.0,0.0,0.0,0.0,0.0,0.0,0.0,0.0,0.0,0.0,0.0,0.0,0.0,0.0,0.0,0.0,0.0,0.0,0.0,0.0,0.0,0.0,0.0,0.0,0.0,0.0,0.0,0.0,0.0,0.0,0.0,0.0,0.0,0.0,0.0,0.0,0.0,0.0,0.0,0.0,0.0,0.0,0.0,0.0,0.0,0.0,0.0,0.0,0.0,0.0,0.0,0.0,0.0,0.0,0.0,0.0,0.0,0.0,0.0,0.0,0.0,0.0,0.0,0.0,0.0,0.0,0.0,0.0,0.0,0.0,0.0,0.0,0.0,0.0,0.0,0.0,0.0,0.0,0.0,0.0,0.0,0.0,0.0,0.0,0.0,0.0,0.0,0.243,0.2756,0.3279,0.4009,0.4089,0.4307,0.484,0.4341,0.4189,0.0,0.0,0.0,0.0,0.0,0.0,0.0,0.0,0.0,0.0,0.0,0.0,0.0,0.0,0.0,0.0,0.0,0.0,0.0,0.0,0.0,0.0,0.0,0.0,0.0,0.0,0.0,0.0,0.0,0.0,0.0,0.0,0.0,0.0,0.0,0.0,0.0,0.0,0.0,0.0,0.0,0.0,0.0,0.0,0.0,0.0,0.0,0.0,0.0,0.0,0.0,0.0,0.0,0.0,0.0,0.0,0.0,0.0,0.0,0.0,0.0,0.0,0.0,0.0,0.0,0.0,0.0,0.0,0.0,0.0,0.0,0.0,0.0,0.0,0.0,0.0,0.0,0.0,0.0,0.0,0.0,0.0,0.0,0.0,0.0,0.0,0.0,0.0,0.0,0.0,0.0,0.0,0.0,0.0,0.0,0.0,0.0,0.0,0.0,0.0,0.0,0.0,0.0,0.2394,0.2714,0.3056,0.3362,0.3396,0.3629,0.4217,0.3931,0.3815,0.4053,0.0,0.0,0.0,0.0,0.0,0.0,0.0,0.0,0.0,0.0,0.0,0.0,0.0,0.0,0.0,0.0,0.0,0.0,0.0,0.0,0.0,0.0,0.0,0.0,0.0,0.0,0.0,0.0,0.0,0.0,0.0,0.0,0.0,0.0,0.0,0.0,0.0,0.0,0.0,0.0,0.0,0.0,0.0,0.0,0.0,0.0,0.0,0.0,0.0,0.0,0.0,0.0,0.0,0.0,0.0,0.0,0.0,0.0,0.0,0.0,0.0,0.0,0.0,0.0,0.0,0.0,0.0,0.0,0.0,0.0,0.0,0.0,0.0,0.0,0.0,0.0,0.0,0.0,0.0,0.0,0.0,0.0,0.0,0.0,0.0,0.0,0.0,0.0,0.0,0.0,0.0,0.0,0.0,0.0,0.0,0.0,0.0,0.0,0.0,0.0,0.0,0.0,0.1765,0.1966,0.2227,0.2542,0.2583,0.2811,0.3391,0.325,0.3176,0.3315,0.0,0.0,0.0,0.0,0.0,0.0,0.0,0.0,0.0,0.0,0.0,0.0,0.0,0.0,0.0,0.0,0.0,0.0,0.0,0.0,0.0,0.0,0.0,0.0,0.0,0.0,0.0,0.0,0.0,0.0,0.0,0.0,0.0,0.0,0.0,0.0,0.0,0.0,0.0,0.0,0.0,0.0,0.0,0.0,0.0,0.0,0.0,0.0,0.0,0.0,0.0,0.0,0.0,0.0,0.0,0.0,0.0,0.0,0.0,0.0,0.0,0.0,0.0,0.0,0.0,0.0,0.0,0.0,0.0,0.0,0.0,0.0,0.0,0.0,0.0,0.0,0.0,0.0,0.0,0.0,0.0,0.0,0.0,0.0,0.0,0.0,0.0,0.0,0.0,0.0,0.0,0.0,0.0,0.0,0.0,0.0,0.0,0.0,0.0,0.0,0.0,0.0,0.0816,0.0843,0.1105,0.1648,0.1711,0.1922,0.2469,0.2382,0.2381,0.2539,0.0,0.0,0.0,0.0,0.0,0.0,0.0,0.0,0.0,0.0,0.0,0.0,0.0,0.0,0.0,0.0,0.0,0.0,0.0,0.0,0.0,0.0,0.0,0.0,0.0,0.0,0.0,0.0,0.0,0.0,0.0,0.0,0.0,0.0,0.0,0.0,0.0,0.0,0.0,0.0,0.0,0.0,0.0,0.0,0.0,0.0,0.0,0.0,0.0,0.0,0.0,0.0,0.0,0.0,0.0,0.0,0.0,0.0,0.0,0.0,-0.1796,0.0,0.0,0.0,0.0,0.0,0.0,0.0,0.0,0.0,0.0,0.0,0.0,0.0,0.0,0.0,0.0,0.0,0.0,0.0,0.0,0.0,0.0,0.0,0.0,0.0,0.0,0.0,0.0,0.0,0.0,0.0,0.0,0.0,0.0,0.0,0.0,0.0,0.0,0.0,0.0,0.0,0.0721,0.0775,0.0867,0.1,0.1018,0.1256,0.1845,0.1722,0.1784,0.2185,0.1938,0.0,0.0,0.0,0.0,0.0,0.0,0.0,0.0,0.0,0.0,0.0,0.0,0.0,0.0,0.0,0.0,0.0,0.0,0.0,0.0,0.0,0.0,0.0,0.0,0.0,0.0,0.0,0.0,0.0,0.0,0.0,0.0,0.0,0.0,0.0,0.0,0.0,0.0,0.0,0.0,0.0,0.0,0.0,0.0,0.0,0.0,0.0,0.0,0.0,0.0,0.0,0.0,0.0,0.0,0.0,0.0,0.0,0.0,0.0,0.0,-0.2687,0.0,0.0,0.0,0.0,0.0,0.0,0.0,0.0,0.0,0.0,0.0,0.0,0.0,0.0,0.0,0.0,0.0,0.0,0.0,0.0,0.0,0.0,0.0,0.0,0.0,0.0,0.0,0.0,0.0,0.0,0.0,0.0,0.0,0.0,0.0,0.0,0.0,0.0,0.0,0.0,0.0166,0.0232,0.0329,0.0489,0.0535,0.075,0.1227,0.117,0.1271,0.1642,0.1507,0.0,0.0,0.0,0.0,0.0,0.0,0.0,0.0,0.0,0.0,0.0,0.0,0.0,0.0,0.0,0.0,0.0,0.0,0.0,0.0,0.0,0.0,0.0,0.0,0.0,0.0,0.0,0.0,0.0,0.0,0.0,0.0,0.0,0.0,0.0,0.0,0.0,0.0,0.0,0.0,0.0,0.0,0.0,0.0,0.0,0.0,0.0,0.0,0.0,0.0,0.0,0.0,0.0,-0.4225,-0.4325,-0.4325,-0.4294,-0.4388,-0.4567,-0.3881,-0.338,-0.3062,0.0,0.0,0.0,0.0,0.0,0.0,0.0,0.0,0.0,0.0,0.0,0.0,0.0,0.0,0.0,0.0,0.0,0.0,0.0,0.0,0.0,0.0,0.0,0.0,0.0,-0.2308,-0.2208,0.0,0.0,0.0,0.0,0.0,0.0,0.0,0.0,0.0,0.0,0.0,0.0,-0.0476,-0.0438,-0.0292,0.0013,0.0114,0.028,0.0566,0.0646,0.0775,0.1014,0.1066,0.1176,0.0,0.0,0.0,0.0,0.0,0.0,0.0,0.0,0.0,0.0,0.0,0.0,0.0,0.0,0.0,0.0,0.0,0.0,0.0,0.0,0.0,0.0,0.0,0.0,0.0,0.0,0.0,0.0,0.0,0.0,0.0,0.0,-0.3534,-0.4111,0.0,0.0,0.0,0.0,0.0,0.0,0.0,0.0,0.0,0.0,0.0,0.0,0.0,0.0,-0.4314,-0.5057,-0.5352,-0.5182,-0.5207,-0.5227,-0.522,-0.5044,-0.4991,-0.5013,-0.4791,0.0,-0.409,-0.3862,0.0,0.0,0.0,0.0,0.0,0.0,0.0,0.0,0.0,0.0,0.0,0.0,0.0,0.0,0.0,0.0,0.0,0.0,0.0,0.0,0.0,0.0,-0.3216,-0.3237,-0.3132,-0.3036,0.0,-0.2592,-0.2185,-0.2205,0.0,0.0,0.0,0.0,0.0,0.0,0.0,0.0,-0.0834,-0.0826,-0.0765,-0.0603,-0.0466,-0.0352,-0.0248,0.0022,0.0227,0.0323,0.055,0.0839,0.1214,0.1113,0.0,0.0,0.0,0.0,0.0,0.0,0.0,0.0,0.0,0.0,0.0,0.0,0.0,0.0,0.0,0.0,0.0,0.0,0.0,0.0,0.0,0.0,0.0,0.0,0.0,0.0,0.0,0.0,0.0,-0.4428,-0.5088,-0.5749,-0.6185,-0.6294,0.0,0.0,0.0,0.0,0.0,0.0,0.0,0.0,0.0,-0.5741,-0.5667,-0.551,-0.5225,-0.5735,-0.5938,-0.5853,-0.593,-0.5956,-0.5956,-0.5867,-0.5831,-0.5831,-0.5759,-0.5601,-0.5303,-0.4557,-0.4251,-0.4255,0.0,0.0,0.0,0.0,0.0,-0.4187,-0.3905,0.0,0.0,0.0,0.0,0.0,0.0,0.0,0.0,0.0,0.0,0.0,0.0,0.0,0.0,-0.342,-0.336,-0.3309,-0.3309,-0.302,-0.273,0.0,-0.2357,-0.2074,-0.1914,0.0,0.0,0.0,0.0,-0.1535,-0.1276,-0.1208,-0.093,-0.0266,-0.011,0.0036,0.0256,0.0206,0.0169,0.0202,0.0314,0.0434,0.0578,0.0891,0.1203,0.0,0.0,0.0,0.0,0.0,0.0,0.0,0.0,0.0,0.0,0.0,0.0,0.0,0.0,0.0,0.0,0.0,0.0,0.0,0.0,0.0,0.0,0.0,0.0,0.0,0.0,0.0,0.0,-0.5527,-0.6181,-0.6869,-0.729,-0.7372,0.0,0.0,0.0,0.0,0.0,0.0,-0.7784,-0.7585,-0.7461,-0.7443,-0.7117,-0.6843,-0.6652,-0.6873,-0.698,-0.6945,-0.6867,-0.6846,-0.6827,-0.6563,-0.6458,-0.6458,-0.6413,-0.6341,-0.6184,-0.5208,-0.4825,-0.483,-0.4548,-0.4578,-0.4755,-0.4514,-0.4545,-0.4669,-0.446,-0.4363,-0.4355,-0.4311,0.0,-0.3983,-0.401,0.0,0.0,0.0,0.0,-0.3851,-0.361,0.0,-0.358,-0.352,-0.3482,-0.3447,-0.3447,-0.3376,-0.3253,0.0,-0.2938,-0.2767,-0.2442,0.0,0.0,0.0,0.0,-0.2263,-0.1882,-0.1819,-0.1419,-0.0398,-0.023,0.0,0.0479,0.0319,0.0197,0.0202,0.0281,0.0308,0.0253,0.0777,0.1078,0.1096,0.0,0.0,0.0,0.0,0.0,0.0,0.0,0.0,0.0,0.0,0.0,0.0,0.0,0.0,0.0,0.0,0.0,0.0,0.0,0.0,0.0,0.0,0.0,0.0,0.0,0.0,0.0,0.0,0.0,-0.6751,-0.7446,0.0,0.0,0.0,0.0,-0.7874,-0.8365,-0.8592,-0.8381,-0.8594,-0.8672,-0.8617,-0.8832,-0.8938,-0.8932,-0.9074,-0.908,-0.8945,-0.8318,-0.8011,-0.7992,-0.7015,-0.6593,-0.6585,-0.6447,-0.6391,-0.6353,-0.5858,-0.5713,-0.5792,-0.5455,-0.5542,-0.5783,-0.5456,-0.5414,-0.5479,-0.5027,-0.4955,-0.5027,-0.4901,-0.4803,-0.4832,-0.5266,-0.5044,0.0,0.0,-0.4266,-0.4147,-0.4009,-0.3792,-0.3624,-0.3756,-0.3682,-0.3586,-0.3586,-0.3586,-0.3542,0.0,-0.2916,-0.2663,-0.3076,0.0,-0.2423,-0.2798,-0.2911,-0.2905,-0.2754,-0.2844,-0.2583,-0.1698,-0.1547,-0.1157,-0.0321,0.0023,0.0202,0.0202,0.0495,0.0673,0.0664,0.0705,0.0848,0.1096,0.0997,0.0,0.0,0.0,0.0,0.0,0.0,0.0,0.0,0.0,0.0,0.0,0.0,0.0,0.0,0.0,0.0,0.0,0.0,0.0,0.0,0.0,0.0,0.0,0.0,0.0,0.0,0.0,0.0,-0.8399,-0.8888,0.0,-0.8672,-0.9097,-0.9285,-0.9072,-0.9418,-0.9771,-1.0048,-0.9756,-0.9697,-0.9979,-0.9629,-0.9482,-0.9611,-0.9836,-0.963,-0.9029,-0.8835,-0.8453,-0.7886,-0.7395,-0.7182,-0.7174,-0.713,-0.7106,-0.709,-0.669,-0.6354,-0.6057,-0.5727,-0.5585,-0.554,-0.521,-0.5168,-0.5242,-0.4998,-0.4982,-0.5076,-0.495,-0.4941,-0.5006,-0.5086,-0.5035,-0.4917,-0.4773,-0.4664,-0.455,-0.4417,-0.4094,-0.3815,-0.3914,-0.3755,-0.3597,-0.3597,-0.3597,-0.3586,-0.3542,-0.3353,-0.3206,-0.3195,-0.3095,-0.3031,-0.3082,-0.3188,-0.3104,-0.2665,-0.2654,-0.2179,-0.0878,-0.075,-0.0444,0.0347,0.0274,0.0196,0.0202,0.0274,0.031,0.0316,0.0521,0.0684,0.0775,0.0856,0.0998,0.0,0.0,0.0,0.0,0.0,0.0,0.0,0.0,0.0,0.0,0.0,0.0,0.0,0.0,0.0,0.0,0.0,0.0,0.0,0.0,0.0,0.0,0.0,0.0,0.0,0.0,-0.8521,-0.9198,-0.9828,-1.0112,-0.98,-1.0152,-1.0372,-1.0353,-1.0534,-1.0922,-1.1614,-1.1149,-1.111,-1.1626,-1.1099,-1.0882,-1.1008,-1.1191,-1.0979,-1.0419,-0.9865,-0.927,-0.8611,-0.7919,-0.7564,-0.7499,-0.7499,-0.7499,-0.7472,-0.7264,-0.6961,-0.6582,-0.6048,-0.5721,-0.5538,-0.5246,-0.5169,-0.5196,-0.5101,-0.5128,-0.5214,-0.5251,-0.5194,-0.5117,-0.5181,-0.5117,-0.5013,-0.4926,-0.4833,-0.4755,-0.4662,-0.4321,-0.4005,-0.4061,-0.3873,-0.3691,-0.3676,-0.3671,-0.366,-0.3607,-0.3597,-0.3547,-0.3366,-0.3409,-0.342,-0.3284,-0.3382,-0.3312,-0.2866,-0.28,-0.2233,-0.0726,-0.0597,-0.0223,0.072,0.0554,0.0392,0.0372,0.0329,0.0297,0.0268,0.0507,0.0624,0.0602,0.0976,0.1215,0.1306,0.0,0.0,0.0,0.0,0.0,0.0,0.0,0.0,0.0,0.0,0.0,0.0,0.0,0.0,0.0,0.0,0.0,0.0,0.0,0.0,0.0,0.0,0.0,-0.711,-0.7883,-0.8585,-0.8976,-1.0132,-1.0725,-1.0337,-1.1152,-1.1668,-1.1624,-1.1691,-1.2085,-1.2893,-1.2737,-1.29,-1.3475,-1.3318,-1.3213,-1.3193,-1.3213,-1.3207,-1.3147,-1.1433,-1.0487,-1.0211,-0.8561,-0.7698,-0.7499,-0.7499,-0.7499,-0.7499,-0.7499,-0.7499,-0.7409,-0.6478,-0.6043,-0.5907,-0.57,-0.5535,-0.5415,-0.5399,-0.5392,-0.547,-0.5854,-0.5595,-0.5187,-0.5647,-0.5373,-0.4916,-0.4916,-0.4825,-0.4711,-0.4711,-0.4467,-0.4207,-0.4207,-0.4064,-0.3888,-0.3813,-0.38,-0.3767,-0.3638,-0.3602,-0.3602,-0.3597,-0.3597,-0.3545,-0.3398,-0.3493,0.0,-0.3366,-0.3343,-0.2812,-0.1439,-0.1233,-0.0654,0.0671,0.0781,0.0757,0.0701,0.0696,0.0668,0.0603,0.0678,0.0694,0.064,0.1336,0.1834,0.2098,0.0,0.0,0.0,0.0,0.0,0.0,0.0,0.0,0.0,0.0,0.0,0.0,0.0,0.0,0.0,0.0,0.0,0.0,0.0,0.0,0.0,-0.6972,-0.7406,-0.7907,-0.859,-0.9229,-0.9679,-1.0246,-1.058,-1.0471,-1.1166,-1.1709,-1.1962,-1.2572,-1.314,-1.3589,-1.3579,-1.3532,-1.3488,-1.3443,-1.3358,-1.3193,-1.3393,-1.3175,-1.2531,-1.1421,-1.0449,-0.9596,-0.8365,-0.7698,-0.7499,-0.7499,-0.7499,-0.7499,-0.7499,-0.7499,-0.7445,-0.6958,-0.6731,-0.6659,-0.6304,-0.6,-0.5729,-0.5483,-0.5392,-0.5418,-0.5525,-0.5461,-0.534,-0.547,-0.5398,-0.5253,-0.5253,-0.5139,-0.5019,-0.5172,-0.4852,-0.4492,-0.4492,-0.4296,-0.4083,-0.3908,-0.3867,-0.3849,-0.3758,-0.3751,-0.3709,-0.3613,-0.3597,-0.3447,-0.2966,0.0,0.0,-0.2306,-0.2154,-0.186,-0.1215,-0.1045,-0.0623,0.0289,0.0325,0.0432,0.0754,0.0679,0.0645,0.0672,0.0968,0.1243,0.1466,0.1574,0.1753,0.0,0.0,0.0,0.0,0.0,0.0,0.0,0.0,0.0,0.0,0.0,0.0,0.0,0.0,0.0,0.0,0.0,0.0,0.0,0.0,0.0,0.0,-0.7506,-0.7952,-0.8592,-0.9006,-0.9395,-0.9784,-1.0301,-1.0677,-1.0785,-1.1584,-1.2247,-1.2633,-1.3037,-1.3463,-1.3879,-1.3373,-1.3044,-1.3005,-1.2719,-1.2527,-1.2416,-1.2563,-1.2386,-1.1861,-1.0964,-1.0165,-0.9493,-0.8391,-0.7784,0.0,-0.754,-0.7499,-0.7499,-0.7499,-0.7499,0.0,0.0,0.0,0.0,0.0,-0.6077,-0.5854,-0.5513,-0.5392,-0.5392,-0.5392,-0.5392,-0.5392,-0.5392,-0.5392,-0.5392,-0.5392,-0.5309,-0.5259,-0.5375,-0.5052,-0.4679,-0.4679,-0.4458,-0.4188,-0.4023,-0.3981,-0.3959,-0.3869,0.0,0.0,-0.374,-0.3662,-0.3485,-0.3132,-0.2864,-0.2567,0.0,-0.1846,-0.1399,-0.0868,-0.0688,-0.0311,0.0427,0.0461,0.0,0.0,0.0,0.0751,0.0987,0.1216,0.0,0.0,0.0,0.0,0.0,0.0,0.0,0.0,0.3384,0.3798,0.0,0.0,0.0,0.0,0.0,0.0,0.0,0.0,0.0,0.0,0.0,0.0,0.0,0.0,0.0,0.0,-0.8128,-0.8528,-0.9152,-0.927,-0.9367,-0.9612,-1.0286,-1.0834,-1.1086,-1.2042,-1.2809,-1.322,-1.3134,-1.3307,-1.3818,0.0,0.0,0.0,0.0,-1.1348,-1.1305,-1.1305,-1.1305,-1.1284,-1.0354,-0.9838,-0.9662,-0.8524,-0.7918,-0.7788,-0.7581,-0.7499,-0.7499,-0.7499,-0.7499,-0.7488,-0.7296,-0.7163,-0.6963,-0.6288,-0.603,0.0,0.0,0.0,0.0,-0.5446,-0.5433,-0.5419,-0.5419,-0.5405,-0.5375,-0.5292,-0.5326,-0.5375,-0.5292,-0.506,-0.4827,-0.4794,-0.4567,-0.4301,-0.4143,-0.4121,-0.4051,-0.384,-0.3799,-0.3768,-0.3676,-0.3645,-0.3584,-0.3438,-0.296,0.0,-0.2415,-0.1793,-0.1119,-0.0449,0.0,0.0,0.0765,0.0828,0.0817,0.0815,0.0743,0.0941,0.1462,0.1469,0.1929,0.2931,0.2931,0.3067,0.3365,0.3303,0.3323,0.341,0.3481,0.405,0.0,0.0,0.0,0.0,0.0,0.0,0.0,0.0,0.0,0.0,0.0,0.0,0.0,0.0,0.0,-0.8264,-0.8732,-0.912,-0.9471,-0.9669,-0.9779,-0.9833,-1.0163,-1.0415,-1.0478,-1.1236,-1.191,-1.2236,-1.2679,-1.3092,-1.3479,-1.3049,0.0,-1.2314,-1.2015,-1.1693,-1.1305,-1.1305,-1.1305,-1.1284,0.0,0.0,-0.9662,-0.8524,-0.7918,-0.7788,-0.7581,-0.7499,-0.7499,-0.7499,-0.7499,-0.7499,-0.7461,-0.7425,-0.735,-0.6937,-0.6786,-0.6708,-0.6147,-0.5973,-0.5937,-0.5771,-0.5654,-0.5566,-0.5566,-0.5494,0.0,-0.4672,-0.4938,-0.5259,-0.4672,-0.4772,-0.5004,-0.4844,-0.4661,-0.4489,-0.4301,-0.4268,-0.4049,-0.3323,-0.3174,-0.2975,-0.2318,-0.3121,-0.349,-0.2466,-0.2207,-0.1747,-0.0656,-0.0213,-0.0056,-0.0224,-0.0028,0.0182,0.0319,0.0338,0.0489,0.0862,0.0822,0.1141,0.1933,0.1863,0.2247,0.3203,0.3118,0.3096,0.3158,0.3148,0.3255,0.3477,0.3554,0.4094,0.0,0.0,0.0,0.0,0.0,0.0,0.0,0.0,0.0,0.0,0.0,-0.7203,-0.7544,0.0,-0.8501,-0.8969,-0.9238,-0.9475,-0.9712,-0.9833,-0.9951,-1.007,-1.0218,-1.039,-1.0637,-1.1326,-1.1878,-1.2178,-1.2485,-1.2713,-1.289,-1.2207,-1.1607,-1.1154,-1.0809,-1.0419,-0.9951,-0.9951,-0.9951,-0.9951,-0.9471,-0.9209,-0.9125,-0.8346,-0.7967,-0.789,-0.7621,-0.7499,-0.7499,-0.7499,-0.7499,-0.7461,-0.7173,-0.723,-0.7464,-0.7117,-0.6998,-0.6911,-0.6313,-0.6101,-0.6058,-0.586,-0.5485,-0.5098,-0.5098,-0.4745,-0.4262,-0.3898,-0.407,-0.4264,-0.3849,-0.3901,-0.4006,-0.3789,-0.3623,-0.3439,-0.3238,-0.3205,-0.3076,-0.2635,-0.2546,-0.2419,-0.2014,-0.2538,-0.2753,-0.2012,-0.1649,-0.1205,-0.0544,-0.0071,0.0154,0.0014,0.0182,0.0336,0.0449,0.0516,0.0634,0.0843,0.1034,0.1449,0.2125,0.2306,0.2735,0.3434,0.3392,0.3351,0.3351,0.3351,0.3489,0.3763,0.4032,0.462,0.0,0.0,0.0,0.0,0.0,0.0,0.0,-0.6369,-0.6551,-0.7258,-0.7732,-0.8129,-0.8506,-0.8835,-0.9165,-0.9536,-0.9676,-0.9784,-0.9876,-0.9941,-1.0067,-1.0272,-1.0336,-1.0509,-1.0875,-1.1494,-1.1956,-1.2186,-1.2198,-1.2198,-1.2198,-1.123,-1.0494,-1.006,-0.9602,-0.913,-0.8656,-0.8612,-0.859,-0.859,-0.859,-0.859,-0.8582,-0.8219,-0.8048,-0.7971,-0.7634,-0.7422,-0.7326,-0.7326,-0.7249,-0.7076,-0.6595,-0.671,-0.7099,-0.6829,-0.6727,-0.6641,-0.6029,-0.5813,-0.5778,-0.5485,-0.4935,-0.4395,-0.4395,-0.3885,-0.3272,-0.3136,-0.319,-0.3249,-0.3059,-0.2999,-0.2958,-0.2803,-0.2569,-0.2348,-0.2197,-0.213,-0.2063,-0.1929,-0.1913,-0.1862,-0.1712,-0.1695,-0.1685,-0.1673,-0.125,-0.0881,-0.0741,-0.0274,0.0085,0.0182,0.035,0.0533,0.0729,0.0834,0.0927,0.097,0.1324,0.1807,0.2391,0.2746,0.3161,0.3633,0.3617,0.3604,0.3604,0.3631,0.3752,0.3975,0.449,0.5164,-0.6543,-0.6211,-0.6134,-0.7,-0.678,-0.6771,0.0,-0.8188,-0.784,-0.8683,-0.8821,-0.8798,-0.8852,-0.9213,-0.9536,-0.959,-0.9957,-1.0143,-0.993,-1.011,-1.0261,-1.0293,-1.0456,-1.0596,-1.065,-1.1079,-1.1381,-1.1413,-1.1413,-1.1413,-1.1413,-1.1132,-1.0743,-1.0277,-0.982,-0.9349,-0.8867,-0.87,-0.859,-0.859,-0.859,-0.859,-0.8582,-0.8378,-0.817,-0.7971,-0.7634,-0.72,-0.6698,-0.6698,-0.6344,-0.5796,-0.5738,-0.5757,-0.5815,-0.5758,-0.5752,-0.5656,-0.4989,-0.4814,-0.475,-0.4138,-0.3792,-0.3628,-0.3628,-0.3479,-0.3161,-0.25,-0.2793,-0.314,-0.249,-0.2649,-0.2991,-0.2974,-0.2669,-0.2398,-0.2365,-0.2231,-0.1929,-0.1328,-0.121,-0.1008,-0.0353,-0.0236,-0.0453,-0.1084,-0.1121,-0.0837,-0.0185,0.006,0.0188,0.0197,0.0477,0.0729,0.0869,0.0894,0.1099,0.1573,0.1645,0.2134,0.314,0.3118,0.3298,0.3771,0.3665,0.3604,0.3604,0.3715,0.379,0.3846,0.4545,0.5252,-0.7562,-0.7571,-0.7554,-0.7656,-0.7713,-0.7909,-0.858,-0.846,-0.8409,-0.9117,-0.9289,-0.9342,-0.9453,-0.9647,-0.982,-0.9989,-1.0164,-1.0261,-1.0153,-1.0229,-1.0239,-1.0089,-1.0274,-1.0521,-1.081,-1.1015,-1.1176,-1.1295,-1.1305,-1.1305,-1.1305,-1.1219,-1.0959,-1.0484,-1.0159,-0.9733,-0.913,-0.8889,-0.8722,-0.859,-0.859,-0.859,-0.8582,-0.8395,-0.7942,-0.7273,-0.6649,-0.6247,-0.6015,-0.6015,-0.5854,-0.5564,-0.5221,-0.5085,-0.5124,-0.5467,-0.5602,-0.5519,-0.4884,-0.4689,-0.4593,-0.3911,-0.3351,-0.2927,-0.2923,-0.2558,-0.2068,-0.172,-0.1846,-0.2007,-0.169,-0.1757,-0.1875,-0.1789,-0.1531,-0.1279,-0.1195,-0.1025,-0.079,-0.0522,-0.0454,-0.0353,-0.0051,0.0,-0.0101,-0.0421,-0.046,-0.0351,-0.0046,0.0045,0.0146,0.0295,0.0449,0.0631,0.0883,0.1219,0.1516,0.1741,0.2349,0.2891,0.334,0.3531,0.3714,0.3915,0.3866,0.3832,0.3839,0.3894,0.3956,0.4056,0.5073,0.5729,-0.8227,-0.8355,-0.8388,-0.8261,-0.8525,-0.8826,-0.8831,-0.8861,-0.9028,-0.9519,-0.9659,-0.9723,-0.9865,-0.9898,-0.9984,-1.025,-1.0347,-1.0369,-1.0304,-1.0347,-1.0252,-0.9941,-1.0059,-1.0347,-1.0777,-1.0928,-1.1058,-1.1219,-1.1273,-1.1305,-1.1305,-1.1305,-1.1003,-1.0332,-1.005,-0.9528,-0.8706,-0.8442,-0.8245,-0.8098,-0.8098,-0.8098,-0.8091,-0.7804,-0.7256,-0.6539,-0.5891,-0.5506,-0.5356,-0.5356,-0.5254,-0.506,-0.4618,-0.4448,-0.4506,-0.4949,-0.5099,-0.4996,-0.4322,-0.41,-0.3969,-0.3242,-0.2635,-0.2167,-0.2153,-0.1752,-0.1292,-0.125,-0.1219,-0.1206,-0.1203,-0.1156,-0.1097,-0.1009,-0.0799,-0.0562,-0.0409,-0.022,-0.0067,-0.0017,0.0,0.0,0.0,0.0,0.0,0.0,0.0,0.0,0.0,0.0,0.0102,0.0366,0.0547,0.0784,0.1121,0.1706,0.2125,0.2293,0.3029,0.3527,0.3701,0.3926,0.4058,0.4058,0.4018,0.3998,0.3998,0.4038,0.4099,0.4233,0.547,0.6097,-0.8227,-0.8023,-0.7944,-0.8849,-0.9072,-0.9234,-0.9822,-0.9901,-0.9925,-1.0133,-1.0019,-0.9898,-0.9898,-0.9898,-0.9984,-1.025,-1.0456,-1.0532,-1.0326,-1.0467,-1.0424,-0.9962,-0.9908,-1.0016,-1.0293,-1.0744,-1.1003,-1.1014,-1.1198,-1.1305,-1.1305,-1.1305,-1.0786,-0.9668,-0.9179,-0.8368,-0.7187,-0.6959,-0.6864,-0.6842,-0.6842,-0.6842,-0.6836,-0.6308,-0.6058,-0.6013,-0.5718,-0.5279,-0.472,-0.472,-0.4389,-0.3862,-0.3843,-0.3823,-0.3823,-0.3843,-0.3862,-0.3729,-0.286,-0.2576,-0.2432,-0.1558,-0.1302,-0.133,-0.126,-0.1272,-0.1296,-0.1295,-0.1254,-0.1193,-0.1192,-0.1206,-0.1202,-0.1184,-0.1035,-0.084,-0.063,-0.0429,-0.0236,-0.0034,0.0,0.0,0.0,0.0,0.0,0.0,0.0,0.0,0.0,0.0,0.0102,0.0366,0.0924,0.1411,0.1748,0.2334,0.2919,0.3516,0.358,0.3857,0.4443,0.4287,0.4187,0.4187,0.4072,0.3998,0.3998,0.4133,0.4187,0.424,0.5569,0.6199,-0.8722,-0.8857,-0.9022,-0.95,-0.9406,-0.9221,-0.9418,-0.8973,-0.8496,-0.8486,-0.8597,-0.8707,-0.877,-0.9171,-0.9439,-0.9278,-0.9478,-0.9461,-0.8851,-0.8911,-0.8852,-0.843,-0.8366,-0.8398,-0.8441,-0.9231,0.0,-1.0052,-0.9632,-0.9392,-0.9432,-0.944,-0.9266,-0.8872,-0.8588,-0.8149,-0.757,-0.7379,-0.7114,-0.6798,-0.6628,-0.6539,-0.6505,-0.5751,-0.5407,-0.537,-0.4693,-0.4287,-0.4097,-0.4097,-0.3979,-0.3804,-0.3804,-0.3804,-0.3804,-0.3804,-0.3804,-0.3702,-0.2953,-0.2707,-0.2557,-0.1681,-0.1419,-0.1398,-0.1253,-0.1219,-0.125,-0.1291,-0.1289,-0.1261,-0.1261,-0.1239,-0.1197,-0.1197,-0.1045,-0.0845,-0.0647,-0.044,-0.0242,-0.0035,0.0,0.0,0.0,0.0,0.0,0.0,0.0,0.0,0.0,0.0352,0.0702,0.097,0.1532,0.2028,0.2376,0.2942,0.3386,0.3586,0.3973,0.4291,0.4491,0.4429,0.4402,0.4402,0.4355,0.4327,0.4327,0.4375,0.4579,0.4958,0.5801,0.6412,-0.9107,-0.9356,-0.9543,-0.9713,-0.9519,-0.9241,-0.9004,-0.843,-0.7871,-0.7627,-0.7717,-0.7825,-0.7759,-0.8172,-0.8473,-0.8325,-0.8534,-0.8536,-0.8065,-0.8104,-0.807,-0.772,-0.7668,-0.7661,-0.7608,-0.7975,0.0,-0.8989,-0.8653,-0.8465,-0.8492,-0.85,-0.8346,-0.8017,-0.7797,-0.7467,-0.6953,-0.6805,-0.6561,-0.6157,-0.5985,-0.5808,-0.5625,-0.4985,-0.4699,-0.4668,-0.4061,-0.3804,-0.3804,-0.3817,-0.3829,-0.3833,-0.3866,-0.3879,-0.3874,-0.3846,-0.3829,-0.3746,-0.313,-0.2904,-0.2755,-0.1889,-0.1609,-0.1551,-0.1273,-0.1196,-0.1202,-0.1252,-0.126,-0.1263,-0.1293,-0.1261,-0.1228,-0.1228,-0.1111,-0.0923,-0.0665,-0.0507,-0.0319,-0.0053,0.0,0.0,0.0,0.0219,0.0387,0.0387,0.0597,0.0668,0.042,0.0934,0.1398,0.1604,0.2204,0.2691,0.2938,0.3544,0.3918,0.3918,0.4277,0.4505,0.4505,0.4505,0.4505,0.4505,0.4505,0.4505,0.4505,0.4691,0.4966,0.5322,0.6141,0.6723,-0.9281,-0.9435,-0.9444,-0.9453,-0.9423,-0.9213,-0.8584,-0.8244,-0.7916,-0.7456,-0.7328,-0.7198,-0.6865,-0.6947,-0.7169,-0.7442,-0.7621,-0.7757,-0.7845,-0.7995,-0.7987,-0.771,-0.7687,-0.7687,-0.7679,-0.6998,-0.6916,-0.7802,0.0,-0.836,-0.8346,-0.8368,-0.7951,-0.7054,-0.6849,-0.6318,-0.5419,-0.5396,-0.5258,-0.4986,-0.4964,-0.4719,-0.4287,-0.4094,-0.3992,-0.3997,-0.3862,-0.3804,-0.3816,-0.3883,-0.3899,-0.3908,-0.3973,-0.3988,-0.3997,-0.3932,-0.3903,-0.3835,-0.3315,-0.3126,-0.2973,-0.2103,-0.1819,-0.1732,-0.1323,-0.1203,-0.1189,-0.1201,-0.1171,-0.1178,-0.1228,-0.1254,-0.1256,-0.1257,-0.1235,-0.1101,-0.0702,-0.0614,-0.049,-0.0089,0.0018,0.007,0.0102,0.0689,0.114,0.116,0.1726,0.1907,0.123,0.1739,0.2171,0.224,0.2905,0.3371,0.3435,0.4076,0.4491,0.4505,0.4505,0.4505,0.4505,0.4505,0.4505,0.4505,0.4505,0.4519,0.4546,0.5048,0.5336,0.5418,0.6561,0.7112,-0.8188,-0.8461,-0.8652,-0.885,-0.8347,-0.7739,-0.7573,-0.6749,-0.5949,-0.5623,-0.575,-0.582,-0.554,-0.6125,-0.6509,-0.61,-0.6438,-0.6599,-0.6131,-0.6211,-0.6271,-0.6111,-0.6093,-0.6057,-0.6017,-0.587,-0.588,0.0,-0.6224,-0.6309,-0.6406,-0.6419,-0.6308,-0.6063,-0.6019,-0.5863,-0.5619,-0.528,-0.4991,-0.4768,-0.4567,-0.44,-0.4223,-0.4066,-0.3977,-0.3928,-0.3833,-0.3821,-0.3867,-0.3891,-0.3899,-0.3903,-0.3924,-0.3932,-0.3932,-0.3908,-0.3924,-0.3956,-0.3808,-0.3613,-0.3249,-0.2374,-0.2068,-0.192,-0.1364,-0.1168,-0.1138,-0.1188,-0.092,-0.0592,-0.0569,-0.0592,-0.0614,-0.0567,-0.0919,-0.1188,-0.0895,-0.0706,-0.0524,-0.0279,0.0342,0.0972,0.1484,0.1681,0.1785,0.1841,0.2372,0.2549,0.1921,0.238,0.2793,0.2856,0.3436,0.3866,0.3984,0.4166,0.4339,0.4491,0.4505,0.4505,0.4505,0.4505,0.4505,0.4505,0.4505,0.4691,0.5103,0.524,0.576,0.6642,0.6963,0.7314,-0.7993,-0.8262,-0.8431,-0.8219,-0.7681,-0.7071,-0.6602,-0.5895,-0.5199,-0.4694,-0.4844,-0.4925,-0.4537,-0.5056,-0.5436,-0.5116,-0.5464,-0.5691,-0.5427,-0.5578,-0.5664,-0.5594,-0.5588,-0.5583,-0.5534,-0.5567,-0.5588,0.0,-0.5588,-0.5615,-0.5708,-0.5691,-0.5691,-0.5691,-0.5691,-0.5663,-0.5574,-0.5302,-0.5013,-0.4705,-0.4545,-0.4387,-0.4191,-0.4058,-0.3964,-0.3895,0.0,-0.387,-0.3908,-0.3985,-0.4039,-0.4043,-0.4059,-0.405,-0.4035,-0.3973,-0.3944,-0.3948,-0.3928,-0.3469,-0.2823,-0.2488,-0.2316,-0.2064,-0.113,-0.0808,-0.0709,-0.0515,-0.0233,0.0,0.0,-0.0019,-0.0037,0.0038,-0.0232,-0.0446,-0.0176,-0.0019,0.0173,0.0587,0.118,0.1742,0.2125,0.2369,0.2533,0.2576,0.3144,0.3448,0.3113,0.3362,0.3568,0.3543,0.3896,0.4148,0.4188,0.4254,0.4355,0.4498,0.4505,0.4505,0.4505,0.4505,0.4615,0.4842,0.4856,0.513,0.5705,0.5964,0.6439,0.7112,0.734,0.7678,-0.7969,-0.8214,-0.8234,-0.7526,-0.7175,-0.6755,-0.5808,-0.5443,-0.5099,-0.4361,-0.4354,-0.4341,-0.3856,-0.403,-0.4296,-0.4444,-0.4748,-0.5061,-0.5354,-0.5567,-0.5669,-0.5686,-0.5691,-0.5691,-0.5691,-0.5691,-0.5691,-0.5691,-0.5691,-0.5691,-0.5691,-0.5691,-0.5691,-0.5691,-0.5691,-0.5574,-0.5347,-0.5347,-0.5102,-0.4638,-0.4638,-0.4502,-0.4191,-0.4058,-0.3964,-0.3899,0.0,0.0,-0.3928,-0.4108,-0.4096,-0.4004,-0.4084,-0.3977,-0.3796,-0.3693,-0.3622,-0.3579,-0.3508,-0.2838,-0.2048,-0.2356,-0.2279,-0.1828,-0.0592,-0.0196,-0.0068,0.0404,0.0579,0.0596,0.0561,0.0527,0.0529,0.0599,0.0546,0.0549,0.0775,0.0916,0.1184,0.1916,0.2278,0.2502,0.2572,0.3006,0.3351,0.3351,0.388,0.4284,0.43,0.43,0.4257,0.4116,0.4201,0.4263,0.4233,0.4322,0.4411,0.4511,0.4512,0.4505,0.4505,0.4574,0.4828,0.5295,0.5377,0.5719,0.6317,0.6876,0.7182,0.7263,0.7769,0.8129,-0.6628,-0.6771,-0.6819,-0.6579,-0.6268,-0.5972,-0.5665,-0.5198,-0.4707,-0.4294,-0.4069,-0.3875,-0.3673,-0.3776,-0.3983,-0.4279,-0.4569,-0.4909,-0.5347,-0.5469,-0.5578,-0.5675,-0.5691,-0.5691,-0.5691,-0.5691,-0.5691,0.0,-0.5691,-0.5691,-0.5691,-0.5691,-0.5691,-0.5691,-0.5691,-0.5508,-0.508,-0.508,-0.4835,-0.4366,-0.4366,-0.4299,-0.4191,-0.4058,-0.3964,-0.3895,0.0,0.0,-0.3993,-0.4025,-0.361,-0.2969,-0.3031,-0.2542,-0.1811,-0.1833,-0.1876,-0.192,-0.1912,-0.1726,-0.1543,-0.1644,-0.1047,-0.0139,0.0479,0.0609,0.056,0.0705,0.0945,0.1182,0.1278,0.122,0.1155,0.1222,0.0825,0.0422,0.048,0.0956,0.167,0.2624,0.3112,0.3532,0.4029,0.4116,0.4111,0.4111,0.4131,0.417,0.4289,0.43,0.4257,0.4116,0.4115,0.4203,0.4354,0.429,0.4362,0.4653,0.4559,0.4505,0.4505,0.4924,0.5213,0.5295,0.5787,0.6344,0.695,0.7279,0.7656,0.81,0.8412,0.8587,-0.6409,-0.6463,-0.6458,-0.6291,-0.5934,-0.5568,-0.5248,-0.48,-0.433,-0.3958,-0.3805,-0.3698,-0.3532,-0.3664,-0.3855,-0.4061,-0.4372,-0.4739,-0.5127,-0.5344,-0.5502,-0.5686,-0.5691,-0.5691,-0.5691,-0.5691,-0.5691,-0.5691,-0.5691,-0.5691,-0.5691,-0.5691,-0.5691,-0.5691,-0.5597,-0.5369,-0.5008,-0.4901,-0.4656,-0.43,-0.43,-0.4255,-0.4191,-0.3631,-0.3316,-0.3204,-0.2747,0.0,-0.2643,-0.2676,-0.2452,-0.2089,-0.2108,-0.1814,-0.1361,-0.1386,-0.1399,-0.1399,-0.1399,-0.0994,-0.0466,-0.0507,-0.0379,-0.0059,0.0803,0.1004,0.1042,0.1462,0.17,0.1836,0.1903,0.186,0.1838,0.1902,0.1671,0.1449,0.1449,0.2019,0.2685,0.3165,0.3698,0.4157,0.4456,0.4393,0.43,0.43,0.4251,0.4235,0.4295,0.43,0.4278,0.4219,0.4197,0.4294,0.4493,0.4436,0.4527,0.4786,0.51,0.5288,0.5288,0.5871,0.6335,0.6649,0.6943,0.7355,0.7931,0.806,0.8259,0.8503,0.8635,0.8782,-0.6491,-0.6498,-0.6431,-0.6244,-0.5816,-0.5324,-0.4889,-0.4485,-0.4084,-0.3684,-0.3593,-0.3556,-0.3417,-0.3555,-0.3738,-0.3912,-0.4212,-0.4557,-0.4939,-0.5197,-0.5441,-0.5643,-0.5675,-0.5691,-0.5691,-0.5691,-0.5691,-0.5691,-0.5691,0.0,-0.5691,-0.5691,-0.5691,-0.5691,-0.5508,-0.528,-0.5008,-0.4589,-0.4255,-0.4009,-0.3782,-0.3639,-0.3584,-0.2818,-0.242,-0.2287,-0.1648,0.0,0.0,-0.1449,-0.136,-0.1197,-0.1191,-0.1052,-0.0812,-0.0828,-0.0797,-0.0745,-0.0745,-0.0159,0.0584,0.0584,0.0336,0.0213,0.1163,0.1461,0.1595,0.2201,0.2328,0.2301,0.2312,0.2307,0.231,0.2371,0.2382,0.2385,0.2398,0.2976,0.3487,0.3489,0.407,0.4519,0.4465,0.4419,0.436,0.4306,0.43,0.43,0.43,0.43,0.43,0.43,0.43,0.4378,0.4578,0.4564,0.4646,0.488,0.5396,0.5797,0.5992,0.6614,0.7255,0.7888,0.8021,0.8272,0.871,0.8758,0.8794,0.8794,0.8839,0.8987,-0.6491,-0.6451,-0.6373,-0.623,-0.5721,-0.5157,-0.4855,-0.4485,-0.4084,-0.3684,-0.3417,-0.328,-0.3383,-0.3317,-0.3436,-0.399,-0.4121,-0.4338,-0.4917,-0.5127,-0.5295,-0.5497,-0.5621,-0.5691,-0.5691,-0.5691,-0.5691,-0.5691,0.0,0.0,-0.5691,-0.5691,-0.5691,-0.5691,-0.5508,-0.528,-0.5008,-0.389,-0.3243,-0.3023,-0.2104,-0.1653,-0.165,-0.1508,-0.1433,-0.1422,0.0,0.0,0.0,-0.1404,-0.0949,-0.0231,-0.0226,0.0305,0.1055,0.1052,0.1063,0.1061,0.1061,0.1121,0.1222,0.1222,0.1637,0.2145,0.2249,0.2324,0.2409,0.2541,0.2441,0.231,0.2379,0.2336,0.2301,0.2304,0.2307,0.232,0.239,0.2941,0.3426,0.3488,0.4134,0.4608,0.4354,0.4506,0.458,0.4333,0.43,0.43,0.43,0.43,0.43,0.43,0.43,0.4378,0.4577,0.444,0.4498,0.4868,0.4785,0.5101,0.5962,0.6533,0.7161,0.7888,0.8375,0.8651,0.871,0.8939,0.9059,0.9071,0.9308,0.944,-0.6111,-0.6109,-0.6039,-0.5828,-0.5416,-0.4986,-0.4591,-0.4163,-0.3752,-0.3424,-0.3173,-0.3077,-0.3248,-0.3231,-0.3352,-0.3837,-0.3958,-0.4126,-0.4511,-0.4764,-0.4786,-0.4508,-0.4566,-0.4459,-0.4065,-0.4009,-0.4009,-0.4009,0.0,0.0,-0.4009,-0.4545,-0.4857,-0.4857,-0.3916,-0.3355,-0.3266,-0.2504,-0.208,-0.1992,-0.1588,-0.1409,-0.1385,-0.0789,-0.0518,-0.0492,0.0,0.0,0.0,0.0224,0.0429,0.0741,0.0735,0.0977,0.1301,0.1308,0.1293,0.1296,0.1296,0.1296,0.1316,0.1434,0.177,0.2102,0.2102,0.2212,0.2358,0.25,0.2476,0.2428,0.2449,0.2439,0.2422,0.2422,0.2393,0.2374,0.2395,0.2765,0.3113,0.3127,0.3751,0.4249,0.4144,0.4437,0.4629,0.4442,0.4421,0.4393,0.4311,0.43,0.43,0.43,0.43,0.4384,0.4578,0.4597,0.4895,0.5573,0.6037,0.6648,0.7468,0.809,0.857,0.8865,0.9067,0.9176,0.9176,0.9284,0.9348,0.9332,0.9452,0.95,-0.5785,-0.5819,-0.5729,-0.5554,-0.5206,-0.4808,-0.4388,-0.3985,-0.361,-0.3314,-0.3142,-0.3089,-0.3228,-0.326,-0.3376,-0.3745,-0.3842,-0.3979,-0.4262,-0.4492,-0.4426,-0.3859,-0.3851,-0.3647,-0.2957,-0.2892,-0.2889,-0.2889,0.0,0.0,0.0,-0.3179,-0.3489,-0.3757,-0.2685,-0.2082,-0.2014,-0.1321,-0.0985,-0.0985,-0.0694,-0.0582,-0.0559,0.011,0.0415,0.0455,0.0,0.0,0.0,0.1295,0.1295,0.1295,0.1295,0.1295,0.1295,0.1295,0.1302,0.1304,0.1304,0.1304,0.1344,0.1565,0.1756,0.1925,0.1985,0.2151,0.2314,0.2451,0.249,0.249,0.249,0.249,0.249,0.249,0.2458,0.2428,0.2428,0.2659,0.2868,0.2868,0.3499,0.4013,0.3981,0.4397,0.4683,0.458,0.4558,0.4531,0.4432,0.4421,0.4421,0.4421,0.4524,0.4635,0.4744,0.4827,0.5253,0.6137,0.6818,0.757,0.8382,0.8914,0.9296,0.95,0.95,0.95,0.95,0.95,0.95,0.95,0.95,0.9536,-0.5624,-0.56,-0.5494,-0.5494,-0.5092,-0.4624,-0.4355,-0.4094,-0.3798,-0.3474,-0.3398,-0.3398,-0.3398,-0.3398,-0.3493,-0.3756,-0.38,-0.3912,-0.4251,-0.4415,-0.4331,-0.3853,-0.3864,-0.3642,-0.2974,-0.2905,-0.2889,0.0,0.0,0.0,0.0,-0.1768,-0.1566,-0.2479,-0.2236,-0.2014,-0.1813,-0.0605,-0.0022,0.0,0.0919,0.1368,0.1368,0.1389,0.1374,0.0,0.0,0.0,0.0,0.1305,0.1305,0.1305,0.1305,0.1305,0.1305,0.1305,0.1305,0.1305,0.1305,0.1305,0.1347,0.1617,0.1799,0.1948,0.2214,0.2396,0.249,0.249,0.249,0.249,0.249,0.249,0.249,0.249,0.249,0.249,0.249,0.2666,0.2803,0.2803,0.3507,0.4065,0.3926,0.4401,0.4771,0.4706,0.4708,0.4702,0.4702,0.4702,0.4702,0.4702,0.505,0.5242,0.51,0.5103,0.5468,0.635,0.6589,0.7162,0.8172,0.8404,0.8818,0.9484,0.95,0.95,0.95,0.95,0.95,0.95,0.95,0.9644,-0.4717,-0.4771,-0.479,-0.4706,-0.4488,-0.4246,-0.4072,-0.385,-0.3637,-0.3441,-0.332,-0.3287,-0.3387,-0.3403,-0.3534,-0.3936,-0.4001,-0.3893,-0.36,-0.367,-0.3265,-0.1966,-0.1471,-0.116,-0.0939,0.0,-0.0911,0.0,0.0,0.0,0.0,-0.0294,-0.0515,-0.1521,-0.0492,0.0112,0.0179,0.0695,0.0964,0.0964,0.1256,0.1391,0.1391,0.1391,0.0,0.0,0.0,0.0,0.0,0.1377,0.1377,0.1377,0.1377,0.1377,0.1377,0.1377,0.1343,0.1306,0.1306,0.1306,0.1348,0.1619,0.1736,0.1829,0.2184,0.2389,0.249,0.249,0.249,0.249,0.249,0.249,0.249,0.249,0.249,0.249,0.249,0.2549,0.2588,0.2588,0.3295,0.3873,0.3844,0.4457,0.4895,0.4776,0.4779,0.4893,0.5273,0.5315,0.5476,0.5896,0.6051,0.5941,0.5482,0.5827,0.6375,0.711,0.7728,0.8361,0.8992,0.9467,0.983,1.0045,1.0045,1.0045,1.0045,1.0045,1.0045,1.0045,1.0045,1.0314,-0.4077,-0.4317,-0.4404,-0.4317,-0.4191,-0.4004,-0.364,-0.3446,-0.3231,-0.2866,-0.2728,-0.2689,-0.2781,-0.279,-0.2896,-0.3185,-0.3225,-0.3113,-0.2801,-0.282,-0.2397,-0.1118,-0.0396,0.0,0.0,0.0,0.0,0.0,0.0,0.0,0.0,0.0571,0.0384,-0.0246,0.0628,0.1144,0.1211,0.1346,0.1391,0.1391,0.1391,0.1391,0.1391,0.1391,0.0,0.0,0.0,0.0,0.0,0.1407,0.1407,0.1407,0.1407,0.1407,0.1407,0.1407,0.1374,0.1338,0.1338,0.1338,0.1381,0.166,0.1843,0.1998,0.2235,0.2417,0.2545,0.2545,0.2529,0.249,0.249,0.249,0.249,0.249,0.249,0.249,0.249,0.249,0.249,0.249,0.3116,0.3761,0.4092,0.4735,0.5314,0.5556,0.5601,0.5714,0.605,0.6091,0.6227,0.6614,0.6781,0.6747,0.6452,0.6653,0.7094,0.7761,0.8494,0.9044,0.9428,0.9995,1.0298,1.0298,1.0298,1.0298,1.0298,1.0298,1.0298,1.0298,1.0394,1.0776,0.0,-0.404,-0.4125,-0.4119,-0.4035,-0.3767,-0.3075,-0.287,0.0,-0.1942,-0.1804,-0.1804,-0.1796,-0.1807,-0.181,-0.1812,-0.1815,-0.1845,-0.1937,-0.1891,-0.1649,-0.1086,-0.0419,0.0,0.0,0.0,0.0,0.0,0.0,0.0,0.0,0.0834,0.1077,0.1102,0.1122,0.1211,0.1391,0.1391,0.1391,0.1391,0.1391,0.1391,0.1391,0.1391,0.0,0.0,0.0,0.0,0.0,0.1391,0.1391,0.1391,0.1391,0.1391,0.1391,0.1391,0.1391,0.1391,0.1391,0.1391,0.1436,0.1705,0.2058,0.2387,0.2337,0.2452,0.2608,0.2608,0.2564,0.2518,0.2518,0.2495,0.249,0.249,0.2549,0.2588,0.2588,0.2647,0.2686,0.2686,0.3155,0.3815,0.4647,0.5273,0.5951,0.6788,0.6903,0.6922,0.6961,0.6961,0.698,0.7019,0.7371,0.7657,0.7846,0.7567,0.7646,0.8277,0.8897,0.9319,0.9495,1.0049,1.0364,1.0364,1.0364,1.0364,1.0364,1.0364,1.0364,1.0358,1.0652,1.1134,-0.2251,0.0,-0.2523,-0.2415,-0.2358,-0.2297,0.0,-0.2061,-0.2004,-0.1835,-0.1804,-0.1804,-0.1792,-0.1792,-0.185,-0.2001,-0.2031,-0.1895,-0.1511,-0.0891,-0.0424,-0.0276,-0.0096,0.0,0.0,0.0,0.0,0.0,0.0,0.0,0.0,0.0753,0.0877,0.1102,0.1244,0.1346,0.1391,0.1391,0.1391,0.1391,0.1391,0.1391,0.1391,0.1391,0.0,0.0,0.0,0.0,0.0,0.1391,0.1391,0.1391,0.1391,0.1391,0.1391,0.1391,0.1391,0.1391,0.1391,0.1391,0.1436,0.1705,0.2013,0.227,0.2414,0.2561,0.267,0.267,0.2627,0.258,0.258,0.2545,0.249,0.249,0.3015,0.3503,0.3503,0.3971,0.4419,0.4419,0.4768,0.519,0.5558,0.6028,0.6479,0.6845,0.6903,0.7076,0.7538,0.7595,0.7768,0.8218,0.8353,0.8439,0.8485,0.8263,0.8198,0.8362,0.9224,0.9687,0.9576,1.0434,1.0906,1.0906,1.0906,1.0906,1.0906,1.0906,1.0906,1.0906,1.1444,1.2015,-0.098,-0.1433,-0.1889,-0.1811,-0.1803,-0.1731,-0.1445,-0.1386,-0.1301,-0.1036,-0.098,-0.0976,-0.0979,-0.097,-0.1005,-0.112,-0.1138,-0.1026,-0.0739,-0.0294,0.0,0.0,0.0,0.0,0.0,0.0,0.0,0.0,0.0,0.0,0.0,0.089,0.1042,0.1268,0.1393,0.1447,0.1456,0.1456,0.1456,0.1456,0.1456,0.1427,0.1391,0.1391,0.0,0.0,0.0,0.0,0.1391,0.1391,0.1391,0.1391,0.1391,0.1391,0.1391,0.1391,0.1391,0.1391,0.1391,0.148,0.1615,0.1749,0.2041,0.2357,0.2469,0.2627,0.2793,0.2763,0.2689,0.2643,0.2643,0.2619,0.2594,0.2594,0.3016,0.352,0.3859,0.4382,0.4869,0.5165,0.5485,0.5885,0.6484,0.6882,0.7307,0.7922,0.8001,0.8119,0.8455,0.8495,0.8613,0.8948,0.8882,0.8864,0.8958,0.8788,0.8628,0.8543,0.9307,0.975,0.9741,1.0532,1.1024,1.1087,1.1087,1.1087,1.1087,1.1378,1.159,1.1771,1.2361,1.306,0.0,-0.0743,-0.1531,-0.1524,-0.1524,-0.1394,-0.0875,-0.0758,-0.0618,-0.0099,0.0,0.0,0.0,0.0,0.0,0.0,0.0,0.0,0.0,0.0,0.0,0.0,0.0,0.0,0.0,0.0,0.0,0.0,0.0,0.0,0.0,0.1057,0.1267,0.1438,0.148,0.1516,0.1517,0.1513,0.1511,0.1511,0.1506,0.147,0.1427,0.1421,0.0,0.0,0.0,0.0,0.1391,0.1391,0.1391,0.1391,0.1391,0.1391,0.1391,0.1391,0.1391,0.1391,0.1391,0.1548,0.1749,0.1794,0.2198,0.267,0.2715,0.3006,0.3307,0.3247,0.2988,0.2748,0.2896,0.2929,0.2941,0.3088,0.336,0.3758,0.4381,0.4777,0.5194,0.577,0.6025,0.644,0.7432,0.7741,0.8193,0.9155,0.9307,0.9307,0.9307,0.9307,0.9307,0.9307,0.9156,0.9118,0.9288,0.9146,0.8977,0.8807,0.9317,0.9767,1.0043,1.0614,1.1011,1.1181,1.1219,1.1219,1.1219,1.184,1.2276,1.2582,1.3277,1.4031,0.0,-0.014,-0.0281,-0.0274,-0.0274,-0.0248,-0.0156,-0.0141,-0.0113,-0.0015,0.0,0.0,0.0,0.0,0.0,0.0,0.0,0.0,0.0,0.0,0.0,0.0,0.0,0.0,0.0,0.0,0.0,0.0,0.0,0.0,0.0,0.0,0.1226,0.1246,0.1419,0.1536,0.1581,0.1532,0.1495,0.1495,0.1493,0.1491,0.1488,0.1486,0.1474,0.0,0.0,0.0,0.1391,0.1391,0.1391,0.1391,0.1391,0.1391,0.1391,0.1391,0.1391,0.1391,0.1391,0.1436,0.1503,0.1727,0.2531,0.347,0.3626,0.4429,0.527,0.5255,0.4061,0.2963,0.3757,0.3935,0.4089,0.4881,0.5646,0.6253,0.6357,0.6957,0.7493,0.7596,0.7638,0.7851,0.8415,0.8529,0.8714,0.9225,0.9307,0.9307,0.9307,0.9307,0.9307,0.9307,0.9279,0.9269,0.9297,0.9279,0.9241,0.9213,0.9616,1.0129,1.0719,1.1218,1.1476,1.1516,1.1674,1.1774,1.1774,1.2445,1.2792,1.287,1.4044,1.4656,0.0102,0.0061,0.0,0.0,0.0,0.0,0.0,0.0,0.0,0.0,0.0,0.0,0.0,0.0,0.0,0.0,0.0,0.0,0.0,0.0,0.0,0.0,0.0,0.0,0.0,0.0,0.0,0.0,0.0,0.0,0.0,0.0,0.1271,0.1421,0.1509,0.1557,0.1596,0.1558,0.1542,0.155,0.156,0.1528,0.1502,0.1512,0.1505,0.1505,0.0,0.1482,0.146,0.1444,0.1447,0.1461,0.1461,0.1461,0.1459,0.1443,0.1812,0.231,0.2308,0.2754,0.3322,0.3438,0.3972,0.4581,0.4692,0.5186,0.5697,0.5697,0.5063,0.4476,0.4893,0.4986,0.5081,0.5508,0.6024,0.6518,0.6889,0.7361,0.7852,0.8244,0.833,0.8479,0.8956,0.9019,0.9159,0.9625,0.9679,0.9679,0.9679,0.9679,0.9679,0.9679,0.9543,0.9524,0.967,0.9543,0.9471,0.9459,0.9745,1.0212,1.0869,1.1123,1.1384,1.1766,1.1746,1.1974,1.2453,1.3088,1.3683,1.4214,1.5127,1.5649,0.0159,0.0075,0.0,0.0,0.0,0.0,0.0,0.0,0.0,0.0,0.0,0.0,0.0,0.0,0.002,0.0085,0.0045,0.0,0.0,0.0,0.0,0.0,0.0,0.0,0.0,0.0,0.0,0.0,0.0,0.0,0.0,0.0,0.139,0.1592,0.1592,0.1592,0.1592,0.1592,0.1605,0.1606,0.1599,0.1564,0.1523,0.1516,0.1512,0.1511,0.1512,0.151,0.15,0.1501,0.1505,0.1502,0.1502,0.1645,0.1902,0.2153,0.2771,0.3485,0.3479,0.4088,0.4856,0.4921,0.5301,0.5756,0.5818,0.6161,0.6498,0.6498,0.6498,0.6418,0.6114,0.603,0.6096,0.6318,0.6539,0.6827,0.7341,0.7606,0.7915,0.8502,0.859,0.8744,0.9218,0.9305,0.9449,0.9929,0.9994,0.9994,0.9994,0.9994,0.9994,0.9994,0.9809,0.9781,0.9985,0.9809,0.9691,0.9705,0.9872,1.0244,1.084,1.0932,1.1373,1.2148,1.2067,1.2452,1.3327,1.3947,1.4634,1.5408,1.613,1.6603,0.0063,0.0,0.0,0.0,0.0,0.0,0.0,0.0,0.0,0.0,0.0,0.0,0.0,0.0,0.0087,0.0319,0.0167,0.0,0.0,0.0,0.0,0.0,0.0,0.0,0.0,0.0,0.0,0.0,0.0,0.0,0.0,0.0,0.0,0.1592,0.1592,0.1592,0.1592,0.1592,0.159,0.1588,0.161,0.1585,0.1585,0.1581,0.1592,0.1592,0.1591,0.155,0.1502,0.15,0.15,0.1502,0.1502,0.2119,0.3112,0.4104,0.4509,0.4585,0.458,0.4647,0.4765,0.4997,0.5863,0.6848,0.7099,0.7946,0.8846,0.8846,0.8846,0.8559,0.7322,0.7003,0.7231,0.8164,0.8414,0.8436,0.848,0.8502,0.8546,0.859,0.859,0.8744,0.9218,0.9305,0.9449,0.9929,0.9994,0.9994,0.9994,0.9994,0.9994,0.9994,0.9985,0.9975,0.9994,0.9985,0.9966,0.9969,1.0163,1.0401,1.0703,1.1059,1.1787,1.2905,1.3138,1.3707,1.4566,1.5253,1.5598,1.5711,1.6739,1.7244,0.0455,0.0284,0.0147,0.0281,0.0274,0.0248,0.0256,0.0341,0.0455,0.048,0.0489,0.0491,0.0491,0.0353,0.0274,0.0375,0.0171,0.0,0.0,0.0,0.005,0.0,0.0,0.0,0.0,0.0,0.0,0.0,0.0,0.0,0.0,0.0,0.0,0.1592,0.2246,0.2597,0.2597,0.3249,0.3597,0.3572,0.2229,0.1606,0.1617,0.2279,0.2593,0.2643,0.3297,0.358,0.3543,0.3549,0.3558,0.3546,0.3546,0.3792,0.4202,0.4615,0.5189,0.5752,0.5755,0.6139,0.6666,0.6936,0.7374,0.7818,0.8099,0.8598,0.9096,0.9096,0.9096,0.8971,0.8467,0.8337,0.8405,0.8665,0.8723,0.8698,0.8615,0.859,0.859,0.859,0.859,0.87,0.8999,0.9196,0.9415,0.9711,0.9998,1.0194,1.0194,1.0308,1.0361,1.0361,1.0361,1.0361,1.0361,1.0361,1.0361,1.0361,1.0203,1.0277,1.0614,1.0657,1.1219,1.2357,1.2763,1.354,1.4699,1.5635,1.6287,1.6723,1.7322,1.761,0.0555,0.0391,0.0263,0.0436,0.0537,0.0592,0.0649,0.0703,0.0741,0.0823,0.0804,0.0802,0.0808,0.0581,0.0401,0.0411,0.0249,0.0128,0.0128,0.0206,0.0,0.0,0.0,0.0,0.0,0.0,0.0,0.0,0.0,0.0,0.0,0.0,0.0,0.0,0.2647,0.3198,0.3198,0.4275,0.4797,0.4772,0.3324,0.2622,0.2647,0.3374,0.3698,0.3745,0.4489,0.479,0.4793,0.4806,0.4794,0.4826,0.5177,0.5302,0.5343,0.5694,0.6287,0.6899,0.691,0.7394,0.8028,0.8303,0.8466,0.864,0.8894,0.9116,0.9267,0.9267,0.9267,0.9267,0.9267,0.9185,0.9064,0.8934,0.8886,0.8877,0.8786,0.8761,0.8761,0.8761,0.8761,0.882,0.9022,0.9223,0.9437,0.9749,1.0047,1.0299,1.0389,1.0456,1.0503,1.0503,1.056,1.0598,1.0598,1.0598,1.0598,1.0598,1.0346,1.0349,1.0671,1.0561,1.1179,1.2669,1.3017,1.397,1.5553,1.6279,1.6937,1.7467,1.7801,1.796,0.0265,0.0247,0.0314,0.0383,0.0699,0.1031,0.1173,0.0995,0.0822,0.0898,0.0846,0.0816,0.0808,0.0605,0.0411,0.0402,0.041,0.0392,0.0399,0.0694,0.0,0.0,0.0,0.0,0.0,0.0,0.0,0.0,0.0,0.0,0.0,0.0,0.0,0.0,0.2672,0.0,0.3224,0.43,0.4826,0.4826,0.4826,0.4826,0.4797,0.4797,0.4822,0.4822,0.4826,0.4826,0.4826,0.4826,0.4826,0.4926,0.6007,0.6412,0.6537,0.7615,0.7988,0.7988,0.7988,0.8162,0.8428,0.8701,0.8981,0.9236,0.9501,0.9599,0.9599,0.9599,0.9599,0.9599,0.9599,0.934,0.9104,0.9096,0.9096,0.9096,0.9096,0.9096,0.9096,0.9096,0.9096,0.9166,0.9368,0.9391,0.9577,1.0111,1.0204,1.0297,1.0575,1.0427,1.0304,1.0304,1.0484,1.0598,1.0598,1.0598,1.0598,1.0598,1.0598,1.069,1.0888,1.0911,1.1935,1.4151,1.4218,1.5272,1.7386,1.7386,1.7539,1.7801,1.8144,1.8303,0.0779,0.0565,0.0428,0.0633,0.0774,0.109,0.1914,0.1715,0.1338,0.121,0.164,0.1798,0.0944,0.1422,0.1667,0.0808,0.0726,0.0739,0.076,0.0,0.0,0.0,0.0,0.0,0.0,0.0,0.0,0.0,0.0,0.0,0.0,0.0,0.0,0.0,0.4901,0.0,0.5457,0.6506,0.7061,0.7061,0.7061,0.6251,0.4826,0.5577,0.5932,0.5957,0.6731,0.7061,0.7061,0.7061,0.7061,0.7086,0.7409,0.7515,0.7565,0.7889,0.7988,0.7988,0.7988,0.8063,0.8162,0.8428,0.8701,0.8981,0.9236,0.9459,0.9599,0.9599,0.9599,0.9599,0.9599,0.9526,0.9437,0.9331,0.9299,0.9266,0.912,0.9096,0.9096,0.9096,0.9096,0.9119,0.9189,0.9461,0.974,0.9902,1.0355,1.0777,1.099,1.0962,1.0924,1.0924,1.1005,1.1009,1.1009,1.1009,1.1009,1.1009,1.1009,1.1234,1.1717,1.1752,1.2541,1.425,1.4731,1.5445,1.6426,1.7308,1.7788,1.7893,1.8419,1.8646,0.159,0.1513,0.1412,0.169,0.1529,0.1531,0.2341,0.2256,0.1972,0.1889,0.1973,0.1786,0.0821,0.1406,0.1745,0.08,0.0889,0.1212,0.1626,0.0,0.0,0.0,0.0,0.0,0.0,0.0,0.0,0.0,0.0,0.0,0.0,0.0,0.0,0.0,0.5972,0.0,0.6527,0.7573,0.8074,0.7988,0.7988,0.7335,0.6102,0.6736,0.7036,0.7061,0.7715,0.7988,0.7988,0.7988,0.7988,0.7988,0.7988,0.7988,0.7988,0.7988,0.7988,0.7988,0.7988,0.8129,0.832,0.8499,0.8795,0.9114,0.9301,0.9484,0.9599,0.9599,0.9599,0.9599,0.9599,0.9599,0.9575,0.9486,0.9486,0.9461,0.9332,0.9307,0.9307,0.9307,0.9307,0.9307,0.9307,0.9618,0.9919,1.0014,1.0599,1.1057,1.1179,1.1198,1.1151,1.1047,1.1132,1.1198,1.1198,1.1198,1.136,1.1775,1.18,1.2344,1.3519,1.2786,1.3136,1.4845,1.528,1.5887,1.6672,1.7538,1.8032,1.8139,1.8594,1.8884,0.2545,0.2771,0.2872,0.3017,0.265,0.236,0.2804,0.2869,0.2829,0.268,0.1971,0.1212,0.0657,0.108,0.1363,0.0875,0.1262,0.196,0.2938,0.0,0.0,0.0,0.0,0.0,0.0,0.0,0.0,0.0,0.0,0.0,0.0,0.0,0.0,0.0,0.6365,0.0,0.6853,0.7808,0.8201,0.0,0.8033,0.8033,0.8033,0.7995,0.7988,0.7988,0.7988,0.7995,0.8033,0.8033,0.804,0.8054,0.8054,0.8054,0.8054,0.8054,0.8054,0.8054,0.8054,0.8344,0.8721,0.8797,0.9125,0.9529,0.9597,0.9623,0.9648,0.9648,0.9648,0.9648,0.9648,0.9648,0.9648,0.9648,0.9624,0.9599,0.9599,0.9599,0.9599,0.9599,0.9599,0.9599,0.9599,0.9821,1.0093,1.0388,1.088,1.1198,1.1198,1.1198,1.1104,1.0858,1.1047,1.1198,1.1198,1.1198,1.1663,1.2745,1.2894,1.3824,1.5761,1.3968,1.3873,1.59,1.5907,1.6485,1.7659,1.7977,1.8287,1.8536,1.8768,1.9098,0.2872,0.2984,0.288,0.2185,0.2661,0.3598,0.4843,0.4962,0.4318,0.2656,0.2144,0.1969,0.1835,0.2971,0.3879,0.3722,0.3945,0.4211,0.0,0.0,0.0,0.0,0.0,0.0,0.0,0.0,0.0,0.0,0.0,0.0,0.0,0.0,0.0,0.7746,0.0,0.8118,0.8118,0.8246,0.8281,0.0,0.8247,0.8247,0.824,0.8067,0.7988,0.7988,0.7988,0.8081,0.8247,0.8247,0.8289,0.8384,0.8384,0.8384,0.8384,0.8384,0.8384,0.8384,0.8384,0.8586,0.8867,0.8883,0.9261,0.974,0.9753,0.9892,1.0072,1.0072,1.0072,1.0072,1.0072,1.0072,1.0072,1.0072,0.9835,0.9599,0.9599,0.9599,0.9599,0.9599,0.9599,0.9599,0.9599,0.9821,1.0142,1.0576,1.0944,1.1198,1.1198,1.1198,1.117,1.1113,1.1161,1.1198,1.1198,1.1198,1.1889,1.3554,1.4328,1.5182,1.6163,1.5274,1.5435,1.6936,1.6777,1.6892,1.7387,1.8134,1.8531,1.8594,1.9319,1.9709,0.3883,0.4124,0.4071,0.3362,0.3695,0.4409,0.5314,0.5021,0.4395,0.385,0.3512,0.3299,0.3296,0.416,0.4828,0.4623,0.4735,0.5026,0.0,0.0,0.0,0.0,0.0,0.0,0.0,0.0,0.0,0.0,0.0,0.0,0.0,0.7695,0.7959,0.8587,0.8587,0.8587,0.8587,0.852,0.8471,0.8396,0.8396,0.8396,0.8396,0.8289,0.8255,0.8255,0.8255,0.8296,0.8396,0.8396,0.8444,0.8505,0.8505,0.8505,0.8505,0.8505,0.8505,0.8512,0.8636,0.8843,0.9077,0.9268,0.9587,0.9904,0.9983,1.0082,1.0186,1.0186,1.0186,1.0186,1.0186,1.0186,1.0186,1.0186,1.0048,0.9884,0.9884,0.9884,0.9884,0.9884,0.9884,0.9884,0.9884,1.0087,1.0404,1.0864,1.1091,1.1198,1.1198,1.1198,1.1198,1.1198,1.1198,1.1198,1.1198,1.2106,1.3307,1.4775,1.553,1.6319,1.7222,1.6775,1.6829,1.7536,1.7545,1.7633,1.777,1.8357,1.8641,1.8656,1.9383,1.9784,0.4838,0.5154,0.5252,0.512,0.4961,0.497,0.5392,0.484,0.4555,0.558,0.5118,0.4585,0.4764,0.5113,0.5356,0.526,0.5291,0.5682,0.0,0.0,0.0,0.0,0.0,0.0,0.0,0.0,0.0,0.0,0.0,0.0,0.8723,0.8628,0.8621,0.8716,0.8723,0.8723,0.8723,0.8723,0.8648,0.8546,0.8546,0.8533,0.856,0.856,0.8533,0.8505,0.8505,0.8526,0.8546,0.8546,0.8533,0.856,0.856,0.856,0.856,0.856,0.856,0.8613,0.8825,0.9042,0.9296,0.9671,0.9929,1.0088,1.0245,1.0276,1.0276,1.0276,1.0276,1.0276,1.0276,1.0276,1.0276,1.0276,1.0276,1.0259,1.0202,1.0186,1.0186,1.0186,1.0186,1.0178,1.0162,1.0355,1.0602,1.0892,1.1076,1.1198,1.1198,1.1198,1.1246,1.1397,1.1406,1.1406,1.1406,1.3172,1.4924,1.6393,1.6731,1.7328,1.8315,1.8013,1.7784,1.7784,1.8028,1.8189,1.8306,1.8553,1.8745,1.8805,1.9345,1.9763,0.4777,0.4613,0.4665,0.589,0.5665,0.5404,0.6367,0.6754,0.6974,0.7246,0.5907,0.4951,0.5887,0.6304,0.6784,0.7666,0.7667,0.7679,0.0,0.0,0.0,0.0,0.0,0.0,0.0,0.0,0.0,0.0,0.0,0.0,0.8879,0.8865,0.8858,0.8879,0.8879,0.8879,0.8879,0.875,0.8703,0.8682,0.8682,0.8723,0.8852,0.8852,0.873,0.8505,0.8505,0.856,0.8682,0.8682,0.873,0.8852,0.8852,0.8852,0.8852,0.8852,0.8852,0.8852,0.8879,0.9113,0.9429,0.9702,1.001,1.03,1.0549,1.0623,1.0623,1.0623,1.0623,1.0623,1.0623,1.0623,1.0623,1.0623,1.0623,1.0534,1.0251,1.0186,1.0186,1.0186,1.0186,1.0154,1.0056,1.0297,1.0348,0.9879,1.0609,1.1198,1.1198,1.1198,1.1472,1.2173,1.2249,1.2249,1.2249,1.3454,1.5534,1.8643,1.8362,1.8209,1.8544,1.8062,1.7784,1.7784,1.7551,1.7711,1.8306,1.8563,1.886,1.9159,1.9735,2.0041,0.5271,0.529,0.5431,0.6566,0.6594,0.6457,0.7018,0.7421,0.7662,0.7603,0.7133,0.6879,0.7442,0.7571,0.7743,0.8231,0.8214,0.0,0.0,0.0,0.0,0.0,0.0,0.0,0.0,0.0,0.0,0.0,0.0,0.8912,0.8912,0.8912,0.8912,0.8912,0.8912,0.8912,0.8912,0.8845,0.8811,0.8811,0.8811,0.8845,0.8912,0.8912,0.8838,0.871,0.871,0.875,0.8811,0.8811,0.8852,0.8912,0.8912,0.8912,0.8912,0.8912,0.8912,0.894,0.9292,0.9485,0.9706,1.0174,1.0394,1.0559,1.0669,1.0688,1.0688,1.0688,1.0688,1.074,1.0846,1.0878,1.0886,1.0919,1.0903,1.0805,1.0544,1.0487,1.0487,1.0487,1.0487,1.0525,1.0689,1.0645,1.0736,1.1107,1.1585,1.1862,1.1862,1.1862,1.2004,1.2371,1.4712,1.626,1.626,1.675,1.7687,1.922,1.9008,1.8774,1.8603,1.8628,1.8628,1.8628,1.813,1.8013,1.8306,1.8606,1.8819,1.8992,1.96,1.9879,0.5441,0.5694,0.5945,0.6677,0.7015,0.7173,0.7307,0.7623,0.7846,0.7692,0.7958,0.8241,0.835,0.8342,0.8294,0.8294,0.8294,0.0,0.0,0.0,0.0,0.0,0.0,0.0,0.0,0.0,0.0,0.0,0.0,0.8912,0.8912,0.8912,0.8912,0.8912,0.8912,0.8912,0.8912,0.8912,0.8912,0.8912,0.8912,0.8912,0.8912,0.8912,0.8912,0.8912,0.8912,0.8912,0.8912,0.8912,0.8912,0.8912,0.8912,0.8912,0.8912,0.8912,0.8968,0.9106,0.9584,0.9793,0.9966,1.0532,1.0715,1.0743,1.0798,1.0826,1.0826,1.0826,1.0826,1.0858,1.0997,1.1057,1.1074,1.1114,1.109,1.1,1.0745,1.0729,1.0745,1.0704,1.0772,1.0871,1.1116,1.0888,1.1099,1.2219,1.2409,1.2409,1.2409,1.2409,1.2844,1.404,1.7239,1.9298,1.9298,1.9298,1.9298,1.9298,1.9298,1.9081,1.8617,1.8891,1.9049,1.9049,1.8555,1.8379,1.8555,1.8716,1.8902,1.9063,1.952,1.9747,0.48,0.5145,0.552,0.5876,0.6491,0.704,0.7167,0.7522,0.7821,0.7865,0.7963,0.8027,0.8033,0.8174,0.8294,0.8294,0.8294,0.0,0.0,0.0,0.0,0.0,0.0,0.0,0.0,0.0,0.0,0.0,0.0,0.8912,0.8912,0.8912,0.8912,0.8912,0.8912,0.8912,0.8912,0.8912,0.8912,0.8912,0.8912,0.8912,0.8912,0.8912,0.8912,0.8912,0.8912,0.8912,0.8912,0.8912,0.8912,0.8912,0.8912,0.8912,0.8912,0.8912,0.9106,0.9396,0.9567,0.9814,1.0147,1.0628,1.0797,1.0854,1.1105,1.1163,1.1163,1.1163,1.1163,1.1171,1.1179,1.1179,1.1179,1.1187,1.1179,1.111,1.0769,1.0862,1.0935,1.0756,1.0903,1.102,1.0756,1.0724,1.1099,1.2219,1.2409,1.2409,1.2409,1.2409,1.4067,1.8475,1.9168,1.9298,1.9298,1.9298,1.9298,1.9298,1.9298,1.9081,1.8617,1.8452,1.835,1.835,1.8321,1.8613,1.9254,1.8961,1.9137,1.9737,1.9779,1.9928,0.4931,0.5259,0.5651,0.6165,0.6671,0.7125,0.7389,0.7794,0.8082,0.7989,0.8078,0.816,0.8033,0.806,0.8101,0.8101,0.8282,0.0,0.0,0.0,0.0,0.0,0.0,0.0,0.0,0.0,0.0,0.0,0.0,0.0,0.8912,0.8912,0.8912,0.8912,0.8912,0.8912,0.8912,0.8912,0.8912,0.8912,0.8912,0.8912,0.8912,0.8912,0.8912,0.8919,0.9035,0.9022,0.8912,0.8912,0.8967,0.9104,0.9104,0.9137,0.9225,0.9225,0.9311,0.9425,0.9652,0.9953,1.0276,1.0624,1.0878,1.108,1.1166,1.1195,1.1195,1.1195,1.1195,1.1219,1.137,1.1403,1.1403,1.1403,1.137,1.126,1.1078,1.1086,1.111,1.1017,1.0915,1.0821,1.0704,1.0688,1.0825,1.1236,1.1318,1.1564,1.23,1.4995,1.7463,1.9116,1.9298,1.9298,1.9298,1.9298,1.9298,1.9298,1.9298,1.9224,1.9052,1.899,1.8946,1.8946,1.8946,1.8833,1.8657,1.8745,1.9049,1.9474,1.9693,1.993,0.4863,0.5162,0.5569,0.613,0.6512,0.6891,0.7475,0.7818,0.8022,0.8099,0.816,0.818,0.8101,0.8047,0.8033,0.8081,0.8323,0.0,0.0,0.0,0.0,0.0,0.0,0.0,0.0,0.0,0.0,0.0,0.0,0.0,0.8912,0.8912,0.8912,0.8912,0.8912,0.8912,0.8912,0.8912,0.8912,0.8912,0.8912,0.8912,0.8912,0.896,0.9008,0.9022,0.9192,0.9172,0.9015,0.9041,0.9144,0.926,0.926,0.9322,0.941,0.941,0.9468,0.9591,0.9931,1.0273,1.0602,1.0948,1.1235,1.1411,1.1411,1.1411,1.1411,1.1411,1.1411,1.1435,1.1565,1.1589,1.1589,1.1589,1.1565,1.1508,1.1427,1.1362,1.1268,1.1203,1.1135,1.1082,1.1082,1.1082,1.164,1.3366,1.3971,1.45,1.526,1.8048,1.9957,1.9957,1.9957,1.9957,1.9957,1.9957,1.9898,1.9752,1.9737,1.9708,1.9594,1.9594,1.955,1.9474,1.9459,1.9195,1.8628,1.8873,1.9151,1.9474,1.9693,1.9984,0.0,0.0,0.0,0.5671,0.5883,0.6268,0.7326,0.7471,0.7539,0.8151,0.8133,0.8054,0.8267,0.8147,0.8074,0.8274,0.8417,0.0,0.0,0.0,0.0,0.0,0.0,0.0,0.0,0.0,0.0,0.0,0.0,0.8912,0.8912,0.8912,0.8912,0.8912,0.8912,0.8912,0.8912,0.8912,0.8912,0.8912,0.8912,0.8919,0.8919,0.9124,0.9214,0.9228,0.9349,0.9335,0.9234,0.9349,0.9417,0.9417,0.9417,0.9417,0.9424,0.9424,0.9598,0.9881,1.0421,1.0769,1.1088,1.1629,1.1776,1.1806,1.1806,1.1806,1.1806,1.1806,1.1806,1.1806,1.1815,1.1845,1.1875,1.1883,1.1875,1.1875,1.1875,1.1698,1.1451,1.1273,1.1533,1.1806,1.1806,1.1806,1.3465,1.8415,2.0313,2.1161,2.1203,2.1203,2.1203,2.1203,2.1203,2.1203,2.1203,2.1203,2.1028,2.0631,2.0602,2.0472,2.021,2.021,2.0091,1.9811,1.9811,1.9649,1.9327,1.9312,1.9474,1.9796,1.9796,2.0133,0.4802,0.0,0.0,0.0,0.0,0.0,0.6512,0.6702,0.6947,0.7638,0.7834,0.7957,0.8247,0.826,0.8247,0.8287,0.8417,0.0,0.0,0.0,0.0,0.0,0.0,0.0,0.0,0.0,0.0,0.0,0.8912,0.8912,0.8912,0.8912,0.8912,0.8912,0.8912,0.8912,0.8912,0.8912,0.8912,0.8912,0.9042,0.9124,0.9124,0.9281,0.9349,0.9356,0.9483,0.9523,0.9476,0.9437,0.9449,0.9544,0.9544,0.9612,0.97,0.97,0.988,1.018,1.032,1.0756,1.1244,1.1382,1.1587,1.1806,1.1806,1.1806,1.1806,1.1806,1.1806,1.1831,1.1931,1.2712,1.3502,1.3658,1.3858,1.4049,1.4049,1.2812,1.1717,1.163,1.1703,1.1806,1.1806,1.1806,1.2281,1.3674,1.7308,2.0198,2.1089,2.1203,2.1203,2.1203,2.1203,2.1203,2.1203,2.1203,2.1028,2.0631,2.0602,2.0472,2.021,2.021,2.0166,2.0079,2.0079,2.0035,1.9947,1.9506,1.9474,1.9796,2.0003,2.0177,0.5024,0.5223,0.5464,0.5403,0.0,0.0,0.6259,0.645,0.6688,0.7382,0.7624,0.7814,0.8119,0.8119,0.8145,0.8274,0.8417,0.8505,0.0,0.0,0.0,0.0,0.0,0.0,0.0,0.0,0.0,0.8912,0.8912,0.8912,0.8912,0.8912,0.8912,0.8912,0.8912,0.8912,0.8912,0.8912,0.894,0.9028,0.9145,0.9241,0.9281,0.9437,0.9476,0.9483,0.9632,0.97,0.9693,0.9598,0.9618,0.97,0.97,0.9717,0.9822,0.9943,1.0126,1.0345,1.0684,1.105,1.1424,1.1656,1.1834,1.1996,1.1996,1.1947,1.1882,1.1882,1.1882,1.1922,1.207,1.2724,1.3354,1.3416,1.358,1.4059,1.5289,1.4555,1.3335,1.2043,1.1806,1.2492,1.46,1.4976,1.4976,1.4976,1.7496,1.9822,2.1031,2.1203,2.1203,2.1203,2.1203,2.1203,2.1203,2.1203,2.1101,2.088,2.0837,2.0779,2.0619,2.0619,2.0546,2.0415,2.0415,2.0342,2.021,1.9857,1.9769,1.9959,2.0122,2.021,0.5308,0.5454,0.0,0.0,0.5647,0.0,0.6253,0.6403,0.6586,0.7172,0.7403,0.7577,0.7878,0.7844,0.7868,0.8151,0.8355,0.8498,0.0,0.0,0.0,0.0,0.0,0.0,0.0,0.8912,0.8912,0.8912,0.8912,0.8912,0.8912,0.8912,0.8912,0.8912,0.8912,0.8912,0.8912,0.8926,0.9028,0.9207,0.922,0.9301,0.9437,0.9564,0.9632,0.9639,0.9737,0.9792,0.9792,0.9792,0.9792,0.9792,0.9792,0.9792,0.9852,1.02,1.0359,1.051,1.1256,1.1549,1.1619,1.2097,1.228,1.2272,1.2255,1.2142,1.2028,1.2182,1.2345,1.2527,1.2752,1.2897,1.2966,1.2832,1.2963,1.3799,1.6374,1.6903,1.6102,1.3374,1.2725,1.4122,1.8786,1.9589,1.9548,1.9415,1.9401,1.9822,2.1031,2.1203,2.1203,2.1203,2.1203,2.1203,2.1203,2.1203,2.1203,2.1203,2.1203,2.1203,2.1203,2.1203,2.1072,2.0751,2.0751,2.0605,2.0312,2.0239,2.021,2.021,2.021,2.021,0.6042,0.6122,0.6096,0.5854,0.0,0.0,0.5831,0.5854,0.6071,0.6566,0.6695,0.6879,0.7423,0.7577,0.7624,0.758,0.8002,0.8423,0.0,0.0,0.0,0.0,0.0,0.0,0.0,0.8912,0.8912,0.8912,0.8912,0.8912,0.8912,0.8912,0.8912,0.8912,0.8912,0.8912,0.8912,0.9055,0.9152,0.9214,0.943,0.9537,0.9571,0.9713,0.9751,0.9751,0.9778,0.9792,0.9792,0.9792,0.9792,0.9792,0.9792,0.9792,0.9866,1.0358,1.0716,1.1016,1.1564,1.1807,1.1913,1.2007,1.2054,1.203,1.1922,1.1947,1.2244,1.3364,1.4583,1.5608,1.5793,1.6675,1.7474,1.7231,1.8293,1.9506,2.006,2.0168,2.0003,1.9387,1.8542,1.8517,2.0447,2.0762,2.0454,1.9535,1.9401,1.9822,2.1031,2.1203,2.1203,2.1203,2.1203,2.1203,2.1203,2.1203,2.1203,2.1203,2.1203,2.1203,2.1203,2.1203,2.1174,2.1087,2.1087,2.1086,2.0985,2.0459,2.021,2.021,2.021,2.021,0.6409,0.6443,0.6464,0.6288,0.0,0.0,0.0,0.5969,0.6025,0.6512,0.6491,0.6546,0.7054,0.7149,0.7197,0.7369,0.777,0.8119,0.0,0.0,0.0,0.0,0.0,0.0,0.0,0.8798,0.8831,0.8906,0.8912,0.8912,0.8912,0.8912,0.8912,0.8912,0.8912,0.8912,0.8912,0.9111,0.922,0.9294,0.9496,0.9646,0.972,0.9758,0.9792,0.9792,0.9792,0.9832,0.9907,0.9907,0.9947,1.0039,0.9934,0.9907,0.9982,1.07,1.1071,1.1282,1.1956,1.2194,1.2276,1.3018,1.3193,1.3239,1.3921,1.4234,1.4498,1.5204,1.594,1.6589,1.6796,1.702,1.7308,1.7623,1.7335,1.7721,2.0494,2.1109,2.1109,2.1109,2.0641,2.0428,2.1002,2.1109,2.0909,2.0321,2.0241,2.0483,2.1074,2.1134,2.1405,2.2065,2.1584,2.1335,2.1672,2.1701,2.1701,2.1701,2.1701,2.1701,2.1701,2.1701,2.1613,2.1452,2.1291,2.1203,2.1203,2.0853,2.0692,2.0692,2.0692,2.0692,0.0,0.0,0.0,0.0,0.0,0.6497,0.0,0.0,0.0,0.6505,0.6403,0.6355,0.6708,0.0,0.0,0.0,0.0,0.0,0.0,0.0,0.0,0.0,0.0,0.0,0.0,0.8642,0.8689,0.8811,0.8798,0.8804,0.8865,0.8892,0.8912,0.8912,0.8912,0.8926,0.8953,0.9152,0.9301,0.9429,0.9578,0.9707,0.9792,0.9792,0.9792,0.9792,0.9819,0.9907,0.999,1.0049,1.0199,1.0397,1.0203,1.0156,1.027,1.1119,1.1464,1.1582,1.2363,1.2539,1.2536,1.3756,1.4174,1.4546,1.6076,1.6803,1.7119,1.7119,1.731,1.7578,1.7761,1.7238,1.685,1.7625,1.6041,1.5619,2.0132,2.1109,2.1109,2.1109,2.1109,2.1109,2.1109,2.1109,2.1109,2.1109,2.1109,2.1109,2.1109,2.133,2.1884,2.2981,2.2184,2.1789,2.2315,2.2359,2.2315,2.2228,2.2214,2.2214,2.2214,2.2214,2.2052,2.1789,2.1525,2.1393,2.1393,2.1393,2.1335,2.1203,2.1203,2.1203,0.0,0.0,0.0,0.0,0.7075,0.0,0.0,0.0,0.6382,0.6133,0.0,0.0,0.0,0.0,0.0,0.0,0.0,0.0,0.0,0.0,0.0,0.0,0.0,0.0,0.0,0.0,0.8403,0.852,0.8444,0.8459,0.8723,0.8838,0.8912,0.8912,0.8912,0.9001,0.9158,0.9308,0.9435,0.9585,0.9697,0.9771,0.9792,0.9792,0.9792,0.9798,0.9934,0.997,0.9997,1.0195,1.0453,1.0753,1.0732,1.0693,1.0809,1.1698,1.2017,1.2072,1.2612,1.2686,1.2604,1.2749,1.3517,1.4671,1.6202,1.7559,1.8575,1.8575,1.9544,2.0613,2.0621,2.0557,2.0494,2.0621,2.0399,2.0335,2.0951,2.1109,2.1109,2.1109,2.1109,2.1109,2.1109,2.1109,2.1109,2.1109,2.1109,2.1109,2.1109,2.2135,2.2918,2.3074,2.2974,2.293,2.3003,2.3003,2.2769,2.2213,2.2214,2.2214,2.2214,2.2214,2.2169,2.2125,2.2126,2.2111,2.2111,2.2111,2.1774,2.1203,2.1203,2.1203,0.0,0.0,0.0,0.0,0.0,0.0,0.6525,0.0,0.6227,0.0,0.0,0.0,0.0,0.0,0.0,0.0,0.6614,0.0,0.0,0.0,0.0,0.0,0.0,0.0,0.0,0.0,0.0,0.0,0.0,0.8303,0.8689,0.8743,0.8818,0.8906,0.9022,0.9117,0.9207,0.9424,0.9544,0.9612,0.9724,0.9792,0.9792,0.9792,0.9839,0.9927,0.9988,1.021,1.0597,1.0667,1.097,1.1413,1.1575,1.1483,1.1449,1.2905,1.3418,1.3598,1.4809,1.5116,1.5072,1.57,1.6879,1.8194,1.8832,1.9544,2.0123,2.0123,2.0592,2.1109,2.1109,2.1109,2.1109,2.1109,2.1109,2.1109,2.1109,2.1109,2.1109,2.1109,2.1109,2.1109,2.1109,2.1109,2.1109,2.1109,2.1109,2.1109,2.1109,2.1583,2.1947,2.1947,2.2637,2.3106,2.3106,2.3106,2.3003,2.274,2.2725,2.2725,2.2725,2.2535,2.2432,2.2432,2.2271,2.2214,2.2214,2.2214,2.2067,2.1774,2.1774,2.1774,0.7882,0.0,0.0,0.0,0.0,0.0,0.0,0.0,0.0,0.0,0.0,0.0,0.0,0.0,0.0,0.0,0.0,0.0,0.0,0.0,0.0,0.0,0.0,0.0,0.0,0.0,0.0,0.0,0.0,0.0,0.8567,0.8669,0.8737,0.8845,0.9083,0.9228,0.924,0.9476,0.9632,0.9673,0.9744,0.9792,0.9792,0.9832,0.9913,1.0021,1.0103,1.0672,1.158,1.1633,1.2213,1.3079,1.3341,1.329,1.3188,1.4163,1.4544,1.4772,1.643,1.6893,1.6974,1.8226,1.9349,2.032,2.0695,2.0949,2.1109,2.1109,2.1109,2.1109,2.1109,2.1109,2.1109,2.1109,2.1189,2.1283,2.1336,2.1349,2.1349,2.1349,2.1483,2.159,2.159,2.1323,2.1109,2.1109,2.1109,2.1109,2.1109,2.1109,2.1235,2.1614,2.2512,2.3106,2.3106,2.3106,2.3106,2.3106,2.3106,2.3106,2.3106,2.2886,2.2724,2.2724,2.255,2.2432,2.2432,2.2432,2.2432,2.2432,2.2302,2.2214,0.0,0.0,0.0,0.7573,0.0,0.0,0.0,0.0,0.6837,0.0,0.0,0.0,0.0,0.0,0.0,0.0,0.0,0.0,0.0,0.0,0.0,0.0,0.0,0.0,0.0,0.0,0.0,0.0,0.0,0.0,0.8281,0.8554,0.871,0.8716,0.9029,0.9254,0.9403,0.953,0.968,0.9785,0.9792,0.9792,0.9798,0.994,0.9984,1.0035,1.0351,1.1436,1.3054,1.3175,1.4428,1.6247,1.6247,1.6506,1.6678,1.5359,1.488,1.5108,1.6527,1.7001,1.726,1.8924,1.9294,1.9311,2.0671,2.1096,2.1109,2.1109,2.1109,2.1109,2.1109,2.1109,2.1109,2.1109,2.1403,2.1724,2.1911,2.1951,2.1951,2.1951,2.2452,2.284,2.284,2.1857,2.1109,2.1109,2.1109,2.1109,2.1109,2.1109,2.1614,2.2887,2.3074,2.3106,2.3106,2.3106,2.3106,2.3106,2.3106,2.3106,2.3106,2.3106,2.3091,2.3091,2.3091,2.3076,2.3076,2.3076,2.3076,2.3062,2.2462,2.2214,0.0,0.0,0.877,0.7997,0.0,0.0,0.0,0.0,0.0,0.0,0.0,0.0,0.0,0.0,0.0,0.0,0.0,0.0,0.0,0.0,0.0,0.0,0.0,0.0,0.0,0.0,0.0,0.0,0.745,0.0,0.0,0.8478,0.8723,0.9022,0.9226,0.9403,0.953,0.968,0.9744,0.9792,0.9792,0.9846,0.9971,1.0947,1.1518,1.1773,1.2843,1.3799,1.4637,1.4897,1.5576,1.6495,1.6711,1.7001,1.7304,1.7761,1.7924,1.8153,1.9573,2.0025,2.011,2.0439,2.0476,2.0494,2.0951,2.1109,2.1109,2.1109,2.1256,2.1435,2.1435,2.155,2.1697,2.1697,2.179,2.1911,2.201,2.2084,2.2211,2.2211,2.2586,2.2893,2.2893,2.2572,2.2305,2.2305,2.2305,2.2305,2.2305,2.159,2.1267,2.174,2.1772,2.2135,2.3012,2.3501,2.3749,2.3749,2.3749,2.3749,2.3749,2.3749,2.3749,2.3749,2.3545,2.3427,2.3427,2.3208,2.3106,2.3106,2.2901,2.2798,0.9082,0.9164,0.0,0.0,0.8209,0.0,0.7303,0.0,0.0,0.0,0.0,0.0,0.0,0.0,0.0,0.0,0.0,0.0,0.0,0.642,0.0,0.0,0.0,0.6607,0.0,0.0,0.698,0.7369,0.7246,0.7444,0.0,0.0,0.8614,0.9009,0.9274,0.9456,0.9605,0.9717,1.0035,1.0482,1.0571,1.0896,1.1495,1.2546,1.3141,1.3416,1.4355,1.5361,1.6333,1.6559,1.7238,1.815,1.8501,1.8726,1.8944,1.9336,1.9887,2.051,2.1437,2.1676,2.1555,2.1368,2.1189,2.1109,2.1109,2.1189,2.1269,2.1269,2.1515,2.1743,2.1743,2.1877,2.1991,2.1991,2.2071,2.2138,2.2138,2.2358,2.2519,2.2519,2.2719,2.2893,2.2893,2.2893,2.2893,2.2893,2.2893,2.2893,2.2893,2.2437,2.2127,2.2127,2.2387,2.2873,2.3744,2.4042,2.4188,2.4188,2.413,2.4118,2.4118,2.4118,2.4118,2.4118,2.3881,2.3764,2.3764,2.3559,2.3457,2.3457,2.3457,2.3398]},{"header":{"parameterUnit":"m.s-1","parameterCategory":1,"la1":30.6,"la2":29.2853,"lo1":-89.7004,"lo2":-87.6739,"dy":0.0162,"dx":0.0183,"nx":112,"ny":82,"refTime":"2026-04-18T00:00:00:Z","depth":0,"parameterNumber":3,"parameterNumberName":"V-component_of_WINDS"},"data":[0.0,0.0,0.0,0.0,0.0,0.0,0.0,0.0,0.0,0.0,0.0,0.0,0.0,0.0,0.0,0.0,0.0,0.0,0.0,0.0,0.0,0.0,0.0,0.0,0.0,0.0,0.0,0.0,0.0,0.0,0.0,0.0,0.0,0.0,0.0,0.0,0.0,0.0,0.0,0.0,0.0,0.0,0.0,0.0,0.0,0.0,0.0,0.0,0.0,0.0,0.0,0.0,0.0,0.0,0.0,0.0,0.0,0.0,0.0,0.0,0.0,0.0,0.0,0.0,0.0,0.0,0.0,0.0,0.0,0.0,0.0,0.0,0.0,0.0,0.0,0.0,0.0,0.0,0.0,0.0,0.0,0.0,0.0,0.0,0.0,0.0,0.0,0.0,0.0,0.0,2.2533,2.5512,2.8026,2.939,2.92,2.8217,2.6203,2.2901,0.0,0.0,0.0,0.0,0.0,0.0,0.0,0.0,0.0,0.0,0.0,0.0,0.0,0.0,0.0,0.0,0.0,0.0,0.0,0.0,0.0,0.0,0.0,0.0,0.0,0.0,0.0,0.0,0.0,0.0,0.0,0.0,0.0,0.0,0.0,0.0,0.0,0.0,0.0,0.0,0.0,0.0,0.0,0.0,0.0,0.0,0.0,0.0,0.0,0.0,0.0,0.0,0.0,0.0,0.0,0.0,0.0,0.0,0.0,0.0,0.0,0.0,0.0,0.0,0.0,0.0,0.0,0.0,0.0,0.0,0.0,0.0,0.0,0.0,0.0,0.0,0.0,0.0,0.0,0.0,0.0,0.0,0.0,0.0,0.0,0.0,0.0,0.0,0.0,0.0,0.0,0.0,0.0,0.0,0.0,0.0,0.0,0.0,0.0,0.0,0.0,0.0,0.0,0.0,2.2841,2.7677,2.9183,2.9724,2.9523,2.8128,2.6357,2.4159,0.0,0.0,0.0,0.0,0.0,0.0,0.0,0.0,0.0,0.0,0.0,0.0,0.0,0.0,0.0,0.0,0.0,0.0,0.0,0.0,0.0,0.0,0.0,0.0,0.0,0.0,0.0,0.0,0.0,0.0,0.0,0.0,0.0,0.0,0.0,0.0,0.0,0.0,0.0,0.0,0.0,0.0,0.0,0.0,0.0,0.0,0.0,0.0,0.0,0.0,0.0,0.0,0.0,0.0,0.0,0.0,0.0,0.0,0.0,0.0,0.0,0.0,0.0,0.0,0.0,0.0,0.0,0.0,0.0,0.0,0.0,0.0,0.0,0.0,0.0,0.0,0.0,0.0,0.0,0.0,0.0,0.0,0.0,0.0,0.0,0.0,0.0,0.0,0.0,0.0,0.0,0.0,0.0,0.0,0.0,0.0,0.0,0.0,0.0,0.0,0.0,0.0,0.0,2.2591,2.4688,2.8885,2.9689,2.9846,2.9758,2.8202,2.6384,2.4541,2.1318,0.0,0.0,0.0,0.0,0.0,0.0,0.0,0.0,0.0,0.0,0.0,0.0,0.0,0.0,0.0,0.0,0.0,0.0,0.0,0.0,0.0,0.0,0.0,0.0,0.0,0.0,0.0,0.0,0.0,0.0,0.0,0.0,0.0,0.0,0.0,0.0,0.0,0.0,0.0,0.0,0.0,0.0,0.0,0.0,0.0,0.0,0.0,0.0,0.0,0.0,0.0,0.0,0.0,0.0,0.0,0.0,0.0,0.0,0.0,0.0,0.0,0.0,0.0,0.0,0.0,0.0,0.0,0.0,0.0,0.0,0.0,0.0,0.0,0.0,0.0,0.0,0.0,0.0,0.0,0.0,0.0,0.0,0.0,0.0,0.0,0.0,0.0,0.0,0.0,0.0,0.0,0.0,0.0,0.0,0.0,0.0,0.0,0.0,0.0,0.0,0.0,0.0,2.5123,2.6737,2.9688,3.003,3.0015,2.9939,2.7967,2.6101,2.4653,2.0863,0.0,0.0,0.0,0.0,0.0,0.0,0.0,0.0,0.0,0.0,0.0,0.0,0.0,0.0,0.0,0.0,0.0,0.0,0.0,0.0,0.0,0.0,0.0,0.0,0.0,0.0,0.0,0.0,0.0,0.0,0.0,0.0,0.0,0.0,0.0,0.0,0.0,0.0,0.0,0.0,0.0,0.0,0.0,0.0,0.0,0.0,0.0,0.0,0.0,0.0,0.0,0.0,0.0,0.0,0.0,0.0,0.0,0.0,0.0,0.0,0.0,0.0,0.0,0.0,0.0,0.0,0.0,0.0,0.0,0.0,0.0,0.0,0.0,0.0,0.0,0.0,0.0,0.0,0.0,0.0,0.0,0.0,0.0,0.0,0.0,0.0,0.0,0.0,0.0,0.0,0.0,0.0,0.0,0.0,0.0,0.0,0.0,0.0,0.0,0.0,0.0,0.0,2.5716,2.8365,3.0166,3.0358,3.0273,3.0105,2.7109,2.5098,2.4727,2.0005,0.0,0.0,0.0,0.0,0.0,0.0,0.0,0.0,0.0,0.0,0.0,0.0,0.0,0.0,0.0,0.0,0.0,0.0,0.0,0.0,0.0,0.0,0.0,0.0,0.0,0.0,0.0,0.0,0.0,0.0,0.0,0.0,0.0,0.0,0.0,0.0,0.0,0.0,0.0,0.0,0.0,0.0,0.0,0.0,0.0,0.0,0.0,0.0,0.0,0.0,0.0,0.0,0.0,0.0,0.0,0.0,0.0,0.0,0.0,0.0,0.0,0.0,0.0,0.0,0.0,0.0,0.0,0.0,0.0,0.0,0.0,0.0,0.0,0.0,0.0,0.0,0.0,0.0,0.0,0.0,0.0,0.0,0.0,0.0,0.0,0.0,0.0,0.0,0.0,0.0,0.0,0.0,0.0,0.0,0.0,0.0,0.0,0.0,0.0,0.0,0.0,0.0,2.4851,2.7349,0.0,3.0385,3.0364,3.0279,2.8064,2.5961,2.4312,0.0,0.0,0.0,0.0,0.0,0.0,0.0,0.0,0.0,0.0,0.0,0.0,0.0,0.0,0.0,0.0,0.0,0.0,0.0,0.0,0.0,0.0,0.0,0.0,0.0,0.0,0.0,0.0,0.0,0.0,0.0,0.0,0.0,0.0,0.0,0.0,0.0,0.0,0.0,0.0,0.0,0.0,0.0,0.0,0.0,0.0,0.0,0.0,0.0,0.0,0.0,0.0,0.0,0.0,0.0,0.0,0.0,0.0,0.0,0.0,0.0,0.0,0.0,0.0,0.0,0.0,0.0,0.0,0.0,0.0,0.0,0.0,0.0,0.0,0.0,0.0,0.0,0.0,0.0,0.0,0.0,0.0,0.0,0.0,0.0,0.0,0.0,0.0,0.0,0.0,0.0,0.0,0.0,0.0,0.0,0.0,0.0,0.0,0.0,0.0,0.0,0.0,2.2472,2.4827,2.7166,0.0,3.0018,2.9927,2.9621,2.7434,2.5349,2.3607,0.0,0.0,0.0,0.0,0.0,0.0,0.0,0.0,0.0,0.0,0.0,0.0,0.0,0.0,0.0,0.0,0.0,0.0,0.0,0.0,0.0,0.0,0.0,0.0,0.0,0.0,0.0,0.0,0.0,0.0,0.0,0.0,0.0,0.0,0.0,0.0,0.0,0.0,0.0,0.0,0.0,0.0,0.0,0.0,0.0,0.0,0.0,0.0,0.0,0.0,0.0,0.0,0.0,0.0,0.0,0.0,0.0,0.0,0.0,0.0,0.0,0.0,0.0,0.0,0.0,0.0,0.0,0.0,0.0,0.0,0.0,0.0,0.0,0.0,0.0,0.0,0.0,0.0,0.0,0.0,0.0,0.0,0.0,0.0,0.0,0.0,0.0,0.0,0.0,0.0,0.0,0.0,0.0,0.0,0.0,0.0,0.0,0.0,0.0,0.0,0.0,0.0,2.2761,2.5948,2.8366,2.91,2.9207,2.882,2.7983,2.4779,2.2742,0.0,0.0,0.0,0.0,0.0,0.0,0.0,0.0,0.0,0.0,0.0,0.0,0.0,0.0,0.0,0.0,0.0,0.0,0.0,0.0,0.0,0.0,0.0,0.0,0.0,0.0,0.0,0.0,0.0,0.0,0.0,0.0,0.0,0.0,0.0,0.0,0.0,0.0,0.0,0.0,0.0,0.0,0.0,0.0,0.0,0.0,0.0,0.0,0.0,0.0,0.0,0.0,0.0,0.0,0.0,0.0,0.0,0.0,0.0,0.0,0.0,0.0,0.0,0.0,0.0,0.0,0.0,0.0,0.0,0.0,0.0,0.0,0.0,0.0,0.0,0.0,0.0,0.0,0.0,0.0,0.0,0.0,0.0,0.0,0.0,0.0,0.0,0.0,0.0,0.0,0.0,0.0,0.0,0.0,0.0,0.0,0.0,0.0,0.0,0.0,0.0,0.0,0.0,2.1861,2.4538,2.6819,2.8277,2.8431,2.8284,2.8005,2.5914,2.3837,2.1933,0.0,0.0,0.0,0.0,0.0,0.0,0.0,0.0,0.0,0.0,0.0,0.0,0.0,0.0,0.0,0.0,0.0,0.0,0.0,0.0,0.0,0.0,0.0,0.0,0.0,0.0,0.0,0.0,0.0,0.0,0.0,0.0,0.0,0.0,0.0,0.0,0.0,0.0,0.0,0.0,0.0,0.0,0.0,0.0,0.0,0.0,0.0,0.0,0.0,0.0,0.0,0.0,0.0,0.0,0.0,0.0,0.0,0.0,0.0,0.0,0.0,0.0,0.0,0.0,0.0,0.0,0.0,0.0,0.0,0.0,0.0,0.0,0.0,0.0,0.0,0.0,0.0,0.0,0.0,0.0,0.0,0.0,0.0,0.0,0.0,0.0,0.0,0.0,0.0,0.0,0.0,0.0,0.0,0.0,0.0,0.0,0.0,0.0,0.0,0.0,0.0,0.0,2.1529,2.3982,2.6116,2.75,2.7614,2.7317,2.6542,2.5221,2.3339,2.0713,0.0,0.0,0.0,0.0,0.0,0.0,0.0,0.0,0.0,0.0,0.0,0.0,0.0,0.0,0.0,0.0,0.0,0.0,0.0,0.0,0.0,0.0,0.0,0.0,0.0,0.0,0.0,0.0,0.0,0.0,0.0,0.0,0.0,0.0,0.0,0.0,0.0,0.0,0.0,0.0,0.0,0.0,0.0,0.0,0.0,0.0,0.0,0.0,0.0,0.0,0.0,0.0,0.0,0.0,0.0,0.0,0.0,0.0,0.0,0.0,0.0,0.0,0.0,0.0,0.0,0.0,0.0,0.0,0.0,0.0,0.0,0.0,0.0,0.0,0.0,0.0,0.0,0.0,0.0,0.0,0.0,0.0,0.0,0.0,0.0,0.0,0.0,0.0,0.0,0.0,0.0,0.0,0.0,0.0,0.0,0.0,0.0,0.0,0.0,0.0,0.0,0.0,2.1352,2.3774,2.564,2.6472,2.6546,2.5866,2.425,2.3277,2.1745,1.9365,0.0,0.0,0.0,0.0,0.0,0.0,0.0,0.0,0.0,0.0,0.0,0.0,0.0,0.0,0.0,0.0,0.0,0.0,0.0,0.0,0.0,0.0,0.0,0.0,0.0,0.0,0.0,0.0,0.0,0.0,0.0,0.0,0.0,0.0,0.0,0.0,0.0,0.0,0.0,0.0,0.0,0.0,0.0,0.0,0.0,0.0,0.0,0.0,0.0,0.0,0.0,0.0,0.0,0.0,0.0,0.0,0.0,0.0,0.0,0.0,1.7643,0.0,0.0,0.0,0.0,0.0,0.0,0.0,0.0,0.0,0.0,0.0,0.0,0.0,0.0,0.0,0.0,0.0,0.0,0.0,0.0,0.0,0.0,0.0,0.0,0.0,0.0,0.0,0.0,0.0,0.0,0.0,0.0,0.0,0.0,0.0,0.0,0.0,0.0,0.0,0.0,0.0,1.9713,2.1509,2.3031,2.3807,2.3924,2.3717,2.3286,2.1885,2.0783,2.0155,1.7432,0.0,0.0,0.0,0.0,0.0,0.0,0.0,0.0,0.0,0.0,0.0,0.0,0.0,0.0,0.0,0.0,0.0,0.0,0.0,0.0,0.0,0.0,0.0,0.0,0.0,0.0,0.0,0.0,0.0,0.0,0.0,0.0,0.0,0.0,0.0,0.0,0.0,0.0,0.0,0.0,0.0,0.0,0.0,0.0,0.0,0.0,0.0,0.0,0.0,0.0,0.0,0.0,0.0,0.0,0.0,0.0,0.0,0.0,0.0,0.0,1.9346,0.0,0.0,0.0,0.0,0.0,0.0,0.0,0.0,0.0,0.0,0.0,0.0,0.0,0.0,0.0,0.0,0.0,0.0,0.0,0.0,0.0,0.0,0.0,0.0,0.0,0.0,0.0,0.0,0.0,0.0,0.0,0.0,0.0,0.0,0.0,0.0,0.0,0.0,0.0,0.0,2.0273,2.1288,2.2341,2.3589,2.3353,2.2917,2.2466,2.1648,2.0781,1.9893,1.8141,0.0,0.0,0.0,0.0,0.0,0.0,0.0,0.0,0.0,0.0,0.0,0.0,0.0,0.0,0.0,0.0,0.0,0.0,0.0,0.0,0.0,0.0,0.0,0.0,0.0,0.0,0.0,0.0,0.0,0.0,0.0,0.0,0.0,0.0,0.0,0.0,0.0,0.0,0.0,0.0,0.0,0.0,0.0,0.0,0.0,0.0,0.0,0.0,0.0,0.0,0.0,0.0,0.0,2.5591,2.6287,2.6287,2.6094,2.6396,2.6841,2.3193,2.2284,2.3158,0.0,0.0,0.0,0.0,0.0,0.0,0.0,0.0,0.0,0.0,0.0,0.0,0.0,0.0,0.0,0.0,0.0,0.0,0.0,0.0,0.0,0.0,0.0,0.0,0.0,2.0967,2.0467,0.0,0.0,0.0,0.0,0.0,0.0,0.0,0.0,0.0,0.0,0.0,0.0,2.1284,2.1714,2.2342,2.3789,2.3164,2.2342,2.1633,2.1514,2.0884,1.9544,1.915,1.8087,0.0,0.0,0.0,0.0,0.0,0.0,0.0,0.0,0.0,0.0,0.0,0.0,0.0,0.0,0.0,0.0,0.0,0.0,0.0,0.0,0.0,0.0,0.0,0.0,0.0,0.0,0.0,0.0,0.0,0.0,0.0,0.0,1.5421,1.7853,0.0,0.0,0.0,0.0,0.0,0.0,0.0,0.0,0.0,0.0,0.0,0.0,0.0,0.0,2.4466,2.7706,2.932,2.939,2.9624,2.9739,2.9701,2.8978,2.867,2.8706,2.7436,0.0,2.494,2.3077,0.0,0.0,0.0,0.0,0.0,0.0,0.0,0.0,0.0,0.0,0.0,0.0,0.0,0.0,0.0,0.0,0.0,0.0,0.0,0.0,0.0,0.0,2.3728,2.3686,2.3109,2.2491,0.0,2.0028,1.7953,1.7636,0.0,0.0,0.0,0.0,0.0,0.0,0.0,0.0,2.0647,2.1312,2.1901,2.2101,2.1362,2.0817,2.0663,2.0039,1.9842,2.0388,1.9015,1.8301,1.8671,1.6564,0.0,0.0,0.0,0.0,0.0,0.0,0.0,0.0,0.0,0.0,0.0,0.0,0.0,0.0,0.0,0.0,0.0,0.0,0.0,0.0,0.0,0.0,0.0,0.0,0.0,0.0,0.0,0.0,0.0,1.5635,1.76,1.9645,1.943,1.8778,0.0,0.0,0.0,0.0,0.0,0.0,0.0,0.0,0.0,2.397,2.467,2.5785,2.7357,2.9765,3.0999,3.1015,3.1517,3.1751,3.1751,3.137,3.1178,3.1178,3.0794,2.9949,2.8614,2.601,2.3882,2.2213,0.0,0.0,0.0,0.0,0.0,2.2385,2.2951,0.0,0.0,0.0,0.0,0.0,0.0,0.0,0.0,0.0,0.0,0.0,0.0,0.0,0.0,2.4331,2.3906,2.3637,2.3637,2.2099,2.0562,0.0,1.9821,1.9224,1.7749,0.0,0.0,0.0,0.0,2.0959,2.2464,2.2585,2.2715,2.3202,2.2461,2.1797,2.1327,2.0936,2.0663,2.0585,1.988,1.9409,1.9249,1.8142,1.7067,0.0,0.0,0.0,0.0,0.0,0.0,0.0,0.0,0.0,0.0,0.0,0.0,0.0,0.0,0.0,0.0,0.0,0.0,0.0,0.0,0.0,0.0,0.0,0.0,0.0,0.0,0.0,0.0,1.763,1.9308,2.118,2.1286,2.0927,0.0,0.0,0.0,0.0,0.0,0.0,2.2769,2.374,2.5086,2.6839,2.7895,2.8848,2.9774,3.1245,3.1981,3.1989,3.2924,3.3367,3.3371,3.3185,3.3126,3.3126,3.2896,3.2433,3.1628,2.8711,2.6518,2.4847,2.4026,2.3145,2.2431,2.3357,2.4226,2.5037,2.5789,2.6162,2.6203,2.5339,0.0,2.3334,2.2457,0.0,0.0,0.0,0.0,2.5018,2.4896,0.0,2.5374,2.4948,2.4677,2.4525,2.4525,2.4022,2.3329,0.0,2.2504,2.2132,2.0441,0.0,0.0,0.0,0.0,2.1993,2.3754,2.3602,2.3629,2.4294,2.3397,2.2539,2.1948,2.1638,2.1249,2.0624,2.0584,2.0193,1.9334,1.9242,1.8445,1.6722,0.0,0.0,0.0,0.0,0.0,0.0,0.0,0.0,0.0,0.0,0.0,0.0,0.0,0.0,0.0,0.0,0.0,0.0,0.0,0.0,0.0,0.0,0.0,0.0,0.0,0.0,0.0,0.0,0.0,2.2974,2.3087,0.0,0.0,0.0,0.0,2.1743,2.3061,2.439,2.537,2.6205,2.7452,2.9266,3.0179,3.1043,3.1938,3.2791,3.3235,3.3312,3.4399,3.4873,3.4877,3.429,3.4015,3.3977,3.3168,3.2781,3.259,3.0855,2.9053,2.7322,2.6515,2.5658,2.4924,2.5876,2.6762,2.7546,2.7712,2.828,2.8783,2.7972,2.6561,2.5006,2.3999,2.3168,0.0,0.0,2.4038,2.4535,2.614,2.6054,2.5683,2.6414,2.599,2.5412,2.5412,2.5412,2.5103,0.0,2.2822,2.1988,2.2604,0.0,2.1583,2.1617,2.298,2.3768,2.3157,2.3697,2.4198,2.4277,2.2838,2.1844,2.1794,2.1094,2.0624,2.0585,2.0619,2.0223,1.9324,1.9284,1.8496,1.6722,1.4967,0.0,0.0,0.0,0.0,0.0,0.0,0.0,0.0,0.0,0.0,0.0,0.0,0.0,0.0,0.0,0.0,0.0,0.0,0.0,0.0,0.0,0.0,0.0,0.0,0.0,0.0,0.0,0.0,2.5241,2.5363,0.0,2.4196,2.5122,2.5511,2.4924,2.592,2.7122,2.8474,2.8947,2.9954,3.1709,3.2184,3.2797,3.3655,3.4443,3.4947,3.5148,3.5519,3.5813,3.5942,3.5168,3.4814,3.4775,3.4466,3.4351,3.4274,3.316,3.1674,3.002,2.9209,2.8401,2.7614,2.7439,2.7884,2.8546,2.8074,2.8434,2.8973,2.8162,2.7846,2.7596,2.6708,2.6598,2.6858,2.7241,2.7775,2.8229,2.829,2.7707,2.7037,2.6786,2.6098,2.549,2.549,2.549,2.5412,2.5103,2.4538,2.4045,2.3771,2.3508,2.3319,2.3313,2.3811,2.4295,2.4582,2.4859,2.5062,2.5141,2.4129,2.3238,2.2693,2.1873,2.1132,2.0624,2.0076,1.9607,1.9294,1.8743,1.7917,1.6701,1.5523,1.4497,0.0,0.0,0.0,0.0,0.0,0.0,0.0,0.0,0.0,0.0,0.0,0.0,0.0,0.0,0.0,0.0,0.0,0.0,0.0,0.0,0.0,0.0,0.0,0.0,0.0,0.0,2.4704,2.695,2.7516,2.7455,2.6654,2.7565,2.8067,2.7782,2.8506,2.9654,3.1272,3.1483,3.2324,3.4005,3.4222,3.4578,3.5112,3.5628,3.5979,3.6186,3.6341,3.6336,3.6217,3.5814,3.5492,3.5186,3.5186,3.5186,3.5152,3.4637,3.3743,3.2624,3.1574,3.0682,2.9882,2.9379,2.9313,2.9467,2.8929,2.9083,2.9385,2.8505,2.8634,2.8926,2.8041,2.8211,2.8706,2.8761,2.9173,2.9502,2.8924,2.8384,2.7838,2.7277,2.6713,2.6265,2.5952,2.5913,2.5836,2.5567,2.549,2.5339,2.4733,2.4648,2.4528,2.4232,2.4455,2.474,2.5032,2.5314,2.5527,2.5576,2.4876,2.4022,2.3153,2.2571,2.1754,2.0661,2.0075,1.9451,1.8904,1.8587,1.788,1.6708,1.6103,1.5225,1.4041,0.0,0.0,0.0,0.0,0.0,0.0,0.0,0.0,0.0,0.0,0.0,0.0,0.0,0.0,0.0,0.0,0.0,0.0,0.0,0.0,0.0,0.0,0.0,2.2169,2.4218,2.6372,2.8093,2.9479,2.9975,2.9242,3.0485,3.1002,3.0183,3.091,3.2055,3.3587,3.373,3.4503,3.604,3.6223,3.6303,3.631,3.6303,3.6347,3.6368,3.682,3.6573,3.5758,3.6269,3.6023,3.5186,3.5186,3.5186,3.5186,3.5186,3.5186,3.5046,3.352,3.241,3.168,3.1718,3.1192,3.042,3.0423,3.0385,3.0251,2.9264,2.9036,2.8953,2.7991,2.7806,2.797,2.797,2.7986,2.7965,2.7965,2.8005,2.8046,2.8046,2.8027,2.7776,2.6919,2.6723,2.6491,2.5681,2.5528,2.5528,2.549,2.549,2.5221,2.4374,2.4952,0.0,2.4339,2.4972,2.5549,2.5585,2.4813,2.3975,2.3193,2.3073,2.237,2.073,2.0574,1.9754,1.8115,1.8816,1.8424,1.6746,1.6626,1.5714,1.3984,0.0,0.0,0.0,0.0,0.0,0.0,0.0,0.0,0.0,0.0,0.0,0.0,0.0,0.0,0.0,0.0,0.0,0.0,0.0,0.0,0.0,2.3397,2.5102,2.5563,2.7191,2.8996,3.0698,3.113,3.1225,3.1014,3.1808,3.2444,3.2809,3.3458,3.4287,3.5286,3.5374,3.5601,3.6076,3.6135,3.6208,3.631,3.6861,3.7271,3.7451,3.7723,3.7517,3.6857,3.6595,3.6023,3.5186,3.5186,3.5186,3.5186,3.5186,3.5186,3.5118,3.4102,3.355,3.3286,3.2718,3.1981,3.1197,3.0606,3.0385,3.034,3.0083,3.0015,2.9997,2.9696,2.9669,2.9695,2.9695,2.9715,2.9696,2.9709,2.9288,2.8871,2.8871,2.8427,2.7945,2.7694,2.7621,2.7387,2.6532,2.6375,2.6184,2.5606,2.549,2.5431,2.5177,0.0,0.0,2.5246,2.5417,2.5597,2.5596,2.4861,2.4289,2.4061,2.2888,2.1988,2.1588,1.9754,1.8778,1.8933,1.7904,1.7103,1.6654,1.5977,1.5094,0.0,0.0,0.0,0.0,0.0,0.0,0.0,0.0,0.0,0.0,0.0,0.0,0.0,0.0,0.0,0.0,0.0,0.0,0.0,0.0,0.0,0.0,2.5805,2.7506,2.8947,2.9924,3.1031,3.2382,3.2672,3.2921,3.3256,3.3524,3.3994,3.4768,3.5161,3.5711,3.6514,3.6743,3.7027,3.7372,3.747,3.7576,3.7654,3.8099,3.8404,3.8569,3.8793,3.8525,3.7811,3.727,3.6523,0.0,3.5377,3.5186,3.5186,3.5186,3.5186,0.0,0.0,0.0,0.0,0.0,3.2006,3.1492,3.068,3.0385,3.0385,3.0385,3.0385,3.0385,3.0385,3.0385,3.0385,3.0385,3.0399,3.0408,3.0388,3.0087,2.9751,2.9751,2.939,2.8996,2.8625,2.8552,2.8279,2.7424,0.0,0.0,2.6613,2.5954,2.5505,2.5511,2.5504,2.5496,0.0,2.5598,2.5626,2.5649,2.5225,2.4803,2.4449,2.3472,0.0,0.0,0.0,1.9126,1.9232,1.8241,0.0,0.0,0.0,0.0,0.0,0.0,0.0,0.0,1.4373,1.4269,0.0,0.0,0.0,0.0,0.0,0.0,0.0,0.0,0.0,0.0,0.0,0.0,0.0,0.0,0.0,0.0,2.8228,2.9617,3.1917,3.233,3.2668,3.3451,3.4108,3.4757,3.5497,3.5349,3.5494,3.6259,3.6332,3.6684,3.7454,0.0,0.0,0.0,0.0,3.9496,3.9508,3.9508,3.9508,3.9514,3.9768,3.9456,3.8574,3.7961,3.7254,3.6443,3.5568,3.5186,3.5186,3.5186,3.5186,3.5229,3.5269,3.4818,3.3941,3.2443,3.1856,0.0,0.0,0.0,0.0,3.0692,3.0615,3.0538,3.0538,3.0462,3.0388,3.0402,3.0396,3.0388,3.0402,3.0442,3.0479,3.0485,3.0559,3.0361,2.9594,2.9439,2.9173,2.8335,2.8143,2.8147,2.8041,2.6784,2.5807,2.5787,2.5729,0.0,2.5668,2.564,2.564,2.5699,0.0,0.0,2.4597,2.4478,2.3775,2.229,2.1276,2.0291,1.9241,1.9202,1.9475,2.0139,2.006,1.9645,1.8842,1.8853,1.8493,1.7801,1.6073,1.6019,0.0,0.0,0.0,0.0,0.0,0.0,0.0,0.0,0.0,0.0,0.0,0.0,0.0,0.0,0.0,2.888,3.0452,3.1804,3.2963,3.3719,3.4175,3.4363,3.5081,3.5659,3.5803,3.6186,3.6792,3.759,3.7484,3.7755,3.8531,3.8719,0.0,3.9205,3.9298,3.9395,3.9508,3.9508,3.9508,3.9514,0.0,0.0,3.8574,3.7961,3.7254,3.6443,3.5568,3.5186,3.5186,3.5186,3.5186,3.5186,3.5194,3.5122,3.4859,3.3907,3.3539,3.3435,3.2669,3.2423,3.243,3.242,3.1965,3.1465,3.1465,3.0962,0.0,3.0464,3.0422,3.0408,3.0464,3.0449,3.0411,3.0477,3.0505,3.0492,3.0361,3.0366,3.012,2.9304,2.9124,2.891,2.8264,2.7794,2.7553,2.7664,2.7098,2.6661,2.6711,2.6093,2.5703,2.5702,2.5703,2.5624,2.5467,2.4802,2.4253,2.393,2.2485,2.0906,1.92,1.9128,1.9166,1.9267,1.8568,1.8136,1.7967,1.7968,1.8227,1.8703,1.7614,1.7175,0.0,0.0,0.0,0.0,0.0,0.0,0.0,0.0,0.0,0.0,0.0,2.512,2.6364,0.0,2.9584,3.1278,3.2217,3.3043,3.3869,3.4363,3.4776,3.5189,3.5634,3.6235,3.7018,3.7262,3.7745,3.8552,3.8495,3.8625,3.902,3.9239,3.942,3.9551,3.9647,3.9751,3.9911,3.9911,3.9911,3.9911,4.0027,3.9888,3.9426,3.824,3.7483,3.702,3.5759,3.5186,3.5186,3.5186,3.5186,3.5194,3.5254,3.5242,3.5114,3.4309,3.4014,3.3872,3.3154,3.2916,3.2884,3.292,3.2668,3.2414,3.2414,3.2112,3.1707,3.1321,3.1181,3.1076,3.0658,3.0533,3.0559,3.0586,3.0607,3.0628,3.065,3.0653,3.0549,3.0119,3.0048,2.9902,2.9502,2.9383,2.9089,2.8327,2.745,2.6926,2.6948,2.6211,2.5703,2.5703,2.5702,2.5701,2.5699,2.4916,2.421,2.3774,2.2554,2.1396,2.0437,1.9945,1.9694,1.9663,1.9234,1.9004,1.9004,1.9004,1.9416,2.0239,1.9709,1.9338,0.0,0.0,0.0,0.0,0.0,0.0,0.0,2.1417,2.2707,2.4453,2.6472,2.835,2.9664,3.0748,3.1832,3.3188,3.3676,3.4052,3.4513,3.4738,3.5108,3.5822,3.6047,3.6648,3.7925,3.8191,3.858,3.9245,3.9283,3.9283,3.9283,3.957,3.9772,3.9884,3.9996,4.0147,4.0291,4.0301,4.0306,4.0306,4.0306,4.0306,4.0267,3.8667,3.7865,3.7602,3.5916,3.5202,3.5223,3.5223,3.5239,3.5274,3.5367,3.5345,3.5189,3.4526,3.4308,3.4165,3.3445,3.3285,3.341,3.3222,3.3269,3.3384,3.3384,3.329,3.3041,3.2387,3.2029,3.1748,3.1061,3.0792,3.0717,3.0692,3.0713,3.0691,3.0703,3.0707,3.0712,3.0721,3.0722,3.0725,3.0734,3.0734,3.0266,2.8897,2.7941,2.7369,2.7177,2.6444,2.5898,2.5702,2.5701,2.5698,2.5693,2.5064,2.4279,2.3378,2.2657,2.2192,2.194,2.1032,2.0539,2.054,2.0385,2.0308,2.0308,2.0462,2.0876,2.1511,2.1529,2.1458,2.0792,2.0118,2.0182,2.2245,2.2395,2.309,0.0,2.7315,2.7173,2.949,3.0264,3.0555,3.0743,3.2062,3.3188,3.3376,3.4652,3.5371,3.4701,3.5259,3.5784,3.5897,3.6541,3.7029,3.7217,3.8557,3.9446,3.9558,3.9558,3.9558,3.9558,3.9638,3.9746,3.9828,3.9943,4.0096,4.0206,4.0282,4.0306,4.0306,4.0306,4.0306,4.0267,3.9312,3.8438,3.7602,3.5916,3.5289,3.5387,3.5387,3.5413,3.5467,3.5476,3.5473,3.5464,3.5354,3.5316,3.5213,3.4406,3.4667,3.5189,3.4479,3.4283,3.434,3.434,3.3806,3.3209,3.3148,3.2537,3.1877,3.1856,3.1255,3.0714,3.0716,3.0704,3.0688,3.069,3.07,3.0721,3.0792,3.0796,3.0804,3.0857,3.0897,3.0778,3.0567,2.9784,2.8933,2.8242,2.7383,2.6562,2.578,2.5699,2.5693,2.5688,2.5609,2.5171,2.4207,2.4084,2.3654,2.2792,2.1928,2.1427,2.1389,2.0654,2.0308,2.0308,2.1002,2.1425,2.1534,2.2156,2.236,2.3624,2.3785,2.3913,2.3963,2.4887,2.6175,2.7685,2.8334,2.9204,3.1154,3.1999,3.2513,3.2968,3.3644,3.4245,3.4765,3.5446,3.5784,3.5409,3.5672,3.5709,3.5184,3.5903,3.6766,3.7699,3.8413,3.9057,3.9552,3.9589,3.9589,3.9589,3.9614,3.9686,3.9734,3.9818,3.9965,4.0147,4.0201,4.0277,4.0306,4.0306,4.0306,4.0267,3.9389,3.8286,3.6987,3.5873,3.543,3.547,3.547,3.5457,3.5504,3.5596,3.5615,3.561,3.5519,3.5498,3.5472,3.517,3.5315,3.5485,3.4663,3.48,3.523,3.4721,3.4671,3.4743,3.4254,3.3817,3.3416,3.2925,3.2179,3.1507,3.1512,3.1173,3.0833,3.0836,3.0803,3.081,3.0855,3.0856,3.0857,3.0898,3.0898,3.0898,3.0856,3.0114,2.9256,2.8398,2.7539,2.6679,2.578,2.5699,2.5695,2.5688,2.5674,2.5463,2.5096,2.4536,2.4085,2.3672,2.2775,2.227,2.2276,2.1927,2.1735,2.1773,2.2081,2.2507,2.3004,2.3122,2.3411,2.5462,2.5954,2.6107,2.5615,2.7089,2.859,2.8385,2.956,3.1099,3.2461,3.3275,3.3907,3.4476,3.4588,3.4889,3.5747,3.6085,3.616,3.5935,3.6085,3.5828,3.4738,3.5152,3.6085,3.7506,3.8031,3.8563,3.9207,3.9477,3.9589,3.9589,3.9589,3.9674,3.9773,3.9846,3.9974,4.0201,4.0257,4.0298,4.0367,4.0367,4.0367,4.0329,3.9231,3.8104,3.6965,3.5926,3.5513,3.5575,3.5575,3.5551,3.5579,3.5679,3.574,3.5733,3.5635,3.5574,3.5549,3.5362,3.5467,3.5521,3.4457,3.494,3.5755,3.4894,3.5269,3.5875,3.5251,3.4901,3.4549,3.3924,3.3105,3.2442,3.2445,3.1826,3.1245,3.1247,3.1054,3.0898,3.0898,3.0898,3.0898,3.0898,3.0898,3.0898,3.0898,3.0351,2.9648,2.8789,2.7695,2.6679,2.5779,2.5697,2.5652,2.5679,2.5607,2.5576,2.5561,2.4894,2.4513,2.4488,2.3621,2.3163,2.3163,2.2932,2.2816,2.2816,2.3047,2.3473,2.4084,2.3994,2.4285,2.5462,2.5158,2.5101,2.7436,2.8718,2.9854,3.139,3.251,3.3441,3.4276,3.4513,3.4588,3.4588,3.4588,3.4889,3.5747,3.6541,3.6804,3.601,3.6579,3.6428,3.4814,3.4626,3.5001,3.5897,3.7393,3.8294,3.8332,3.9132,3.9589,3.9589,3.9589,3.9734,3.998,4.0055,4.0233,4.05,4.05,4.0477,4.048,4.048,4.048,4.0442,3.8866,3.8115,3.7964,3.6231,3.5587,3.5705,3.5705,3.5747,3.5808,3.581,3.5812,3.5812,3.581,3.5808,3.5665,3.4883,3.5179,3.562,3.3988,3.4585,3.5835,3.4977,3.5329,3.5992,3.5953,3.5368,3.4706,3.4667,3.4002,3.3377,3.3377,3.2718,3.2059,3.2064,3.1442,3.0897,3.0898,3.0898,3.0898,3.0898,3.0898,3.0898,3.0898,3.0898,3.0547,2.9687,2.8047,2.6679,2.5779,2.5647,2.5586,2.5604,2.5558,2.5497,2.5422,2.5374,2.5333,2.5277,2.4471,2.4052,2.4052,2.324,2.2816,2.2816,2.3665,2.4052,2.4122,2.4612,2.4864,2.6944,2.7516,2.8078,2.9402,3.0946,3.2222,3.2775,3.3709,3.4396,3.4117,3.4008,3.3819,3.3237,3.3494,3.4109,3.5083,3.6403,3.7255,3.7043,3.7752,3.7685,3.5979,3.5793,3.5665,3.5414,3.6265,0.0,3.8434,3.8903,3.9404,3.9957,3.9995,4.0035,4.0124,4.0186,4.0278,4.0351,4.0426,4.0473,4.0488,4.0556,4.057,4.0496,3.8913,3.8174,3.806,3.6417,3.572,3.5782,3.5782,3.5795,3.5814,3.5814,3.5814,3.5814,3.5814,3.5814,3.5786,3.5541,3.5639,3.5729,3.4608,3.4658,3.5089,3.4782,3.4901,3.5251,3.5836,3.5797,3.5563,3.5563,3.4939,3.4276,3.4276,3.3616,3.2958,3.2962,3.2302,3.1718,3.1758,3.1289,3.0898,3.0898,3.0898,3.0898,3.0898,3.0391,2.9922,2.9648,2.8045,2.6827,2.6545,2.597,2.5584,2.5554,2.5455,2.54,2.5412,2.5355,2.5303,2.5308,2.5041,2.4887,2.4887,2.4618,2.4464,2.4464,2.4733,2.4855,2.4782,2.4879,2.485,2.8133,2.8956,2.9757,3.1219,3.2461,3.3393,3.3458,3.405,3.4264,3.3117,3.3097,3.2991,3.2163,3.2625,3.3516,3.4759,3.6155,3.7157,3.7542,3.8332,3.8379,3.7016,3.6867,3.6629,3.6082,3.6442,0.0,3.8175,3.8933,3.9613,4.0167,4.0205,4.0237,4.0304,4.0347,4.041,4.0462,4.0526,4.0566,4.059,4.0655,4.0681,4.0667,3.9019,3.8267,3.8192,3.6533,3.5814,3.5814,3.6127,3.6243,3.6282,3.6593,3.671,3.6671,3.6399,3.6243,3.6213,3.5997,3.5898,3.5753,3.4949,3.4689,3.4653,3.4312,3.4237,3.4432,3.529,3.5524,3.5603,3.5914,3.5563,3.5174,3.5174,3.4513,3.3855,3.3861,3.3199,3.2498,3.2266,3.1758,3.1289,3.0937,3.0898,3.0857,3.0857,3.0385,2.9875,2.9606,2.8539,2.7543,2.6944,2.6353,2.5876,2.5535,2.5418,2.5363,2.5363,2.5305,2.5305,2.5305,2.5305,2.5305,2.5305,2.5305,2.5305,2.5305,2.5232,2.5179,2.5106,2.4919,2.4768,2.9103,2.9587,3.0239,3.2765,3.3342,3.3361,3.3568,3.3613,3.313,3.1432,3.1743,3.2053,3.1207,3.1829,3.302,3.4639,3.5759,3.6689,3.7509,3.8435,3.8716,3.7895,3.7781,3.7781,3.7742,3.7874,3.789,3.7717,0.0,4.0194,4.0237,4.0233,4.0317,4.0523,4.0519,4.0605,4.0814,4.0817,4.0795,4.079,4.0793,4.0822,4.0791,3.9161,3.8387,3.8229,3.6554,3.5814,3.5931,3.6748,3.71,3.7178,3.7996,3.8348,3.8229,3.7411,3.7139,3.7068,3.6294,3.5958,3.5775,3.5015,3.4718,3.4488,3.3685,3.3416,3.3534,3.4393,3.4629,3.4824,3.5721,3.5916,3.5955,3.5994,3.5369,3.4787,3.4758,3.4096,3.3239,3.2461,3.2266,3.1914,3.1054,3.0813,3.0721,3.0798,3.0694,3.037,2.9662,2.948,2.8785,2.7134,2.6796,2.6387,2.5551,2.5378,2.5308,2.5305,2.5305,2.5305,2.5305,2.5305,2.5305,2.5305,2.5305,2.5303,2.5298,2.5163,2.5103,2.5086,2.4811,2.47,3.1169,3.2066,3.2864,3.4145,3.4111,3.3773,3.3811,3.2988,3.1712,3.0065,2.9842,2.951,2.8012,2.9368,3.1123,3.232,3.484,3.6954,3.7906,3.9357,4.0019,3.9135,3.9019,3.8788,3.8122,3.8698,3.9052,0.0,3.9434,3.9974,4.0591,4.0668,4.0686,4.0723,4.0729,4.0752,4.0787,4.0792,4.0829,4.0855,4.0878,4.0582,3.9973,3.8889,3.8035,3.7372,3.6282,3.6166,3.6789,3.7023,3.71,3.7139,3.7333,3.7411,3.7411,3.7178,3.753,3.8037,3.7816,3.6894,3.579,3.5624,3.4743,3.3813,3.4231,3.3456,3.2597,3.3494,3.3737,3.394,3.48,3.5034,3.519,3.5855,3.5848,3.5683,3.5653,3.4993,3.4293,3.41,3.3006,3.1821,3.0902,3.0188,2.9986,3.0648,3.0141,2.9891,3.033,2.9827,2.9006,2.7901,2.7127,2.6359,2.5511,2.5403,2.5334,2.5308,2.5305,2.5305,2.5305,2.5305,2.5305,2.5305,2.5305,2.5232,2.5152,2.5123,2.5009,2.479,2.4742,2.4641,3.2589,3.3528,3.4291,3.4905,3.4467,3.372,3.3098,3.2001,3.0458,2.8047,2.8101,2.7928,2.5815,2.7786,3.0059,3.0987,3.4017,3.671,3.8013,3.9688,4.0623,4.012,4.0081,3.9884,3.9379,3.9768,4.0081,0.0,4.0081,4.0274,4.0774,4.0816,4.0816,4.0816,4.0816,4.078,4.0793,4.079,4.0826,4.0902,4.0881,4.0466,3.9662,3.8812,3.7918,3.7061,0.0,3.6632,3.7178,3.7916,3.8225,3.8263,3.8615,3.8538,3.8186,3.78,3.7724,3.7763,3.7372,3.6868,3.6375,3.6439,3.5041,3.3452,3.3965,3.292,3.1711,3.2574,3.2812,3.3047,3.3906,3.4141,3.4336,3.5234,3.5429,3.5544,3.5937,3.5625,3.5156,3.4722,3.326,3.1906,3.1373,3.0533,3.0089,3.0595,3.0228,3.0116,3.0584,3.0243,2.959,2.8728,2.8169,2.7343,2.6072,2.5943,2.5767,2.5346,2.5305,2.5305,2.5305,2.5305,2.5285,2.5203,2.52,2.5146,2.5022,2.4961,2.4843,2.47,2.4633,2.4775,3.3679,3.4464,3.5142,3.522,3.4496,3.3386,3.2017,3.0772,2.9008,2.5885,2.6282,2.6562,2.4345,2.6571,2.9178,3.0301,3.3256,3.6013,3.7944,3.9611,4.0661,4.0777,4.0816,4.0816,4.0816,4.0816,4.0816,4.0816,4.0816,4.0816,4.0816,4.0816,4.0816,4.0816,4.0816,4.0793,4.0784,4.0784,4.0815,4.091,4.091,4.0493,3.9662,3.8812,3.7918,3.71,0.0,0.0,3.7372,3.8885,3.9593,3.976,4.0341,4.0155,3.9427,3.8574,3.7835,3.7172,3.6433,3.657,3.7131,3.7191,3.5669,3.3818,3.3901,3.2617,3.1328,3.2185,3.2182,3.2143,3.3159,3.3316,3.3433,3.4331,3.4527,3.4722,3.5499,3.573,3.5566,3.4752,3.336,3.2247,3.2006,3.1223,3.0598,3.0598,3.0496,3.0482,3.0598,3.0598,3.0288,2.9401,2.931,2.863,2.7014,2.6723,2.6273,2.5502,2.5344,2.5305,2.5305,2.5293,2.5206,2.5112,2.5094,2.5019,2.4874,2.4847,2.4842,2.4818,2.4828,2.5206,3.5122,3.5771,3.6239,3.5608,3.4236,3.282,3.1923,2.9387,2.6697,2.4747,2.3993,2.355,2.3187,2.4713,2.7052,3.0088,3.2256,3.4654,3.7748,3.9072,4.0004,4.07,4.0816,4.0816,4.0816,4.0816,4.0816,0.0,4.0816,4.0816,4.0816,4.0816,4.0816,4.0816,4.0816,4.0802,4.0818,4.0818,4.0848,4.09,4.09,4.0475,3.9662,3.8812,3.7918,3.7061,0.0,0.0,3.819,3.8501,3.9052,3.9655,3.9062,3.8784,3.859,3.7729,3.7766,3.8233,3.8077,3.7656,3.7194,3.719,3.6899,3.6523,3.6559,3.4877,3.312,3.4016,3.2682,3.1384,3.2983,3.2868,3.2558,3.3415,3.3623,3.3669,3.3825,3.4362,3.4765,3.4549,3.4273,3.3604,3.2092,3.1135,3.0584,3.0584,2.999,2.9788,3.052,3.0598,3.0288,2.9401,2.9282,2.8875,2.7786,2.7084,2.6598,2.639,2.5692,2.5305,2.5305,2.5187,2.5129,2.5112,2.5003,2.4867,2.4746,2.5383,2.5639,2.5543,2.6182,2.6577,3.6115,3.6423,3.6622,3.6255,3.4533,3.2614,3.1361,2.8782,2.6049,2.3893,2.3126,2.2709,2.23,2.3979,2.6084,2.8225,3.0745,3.3455,3.6477,3.8025,3.9304,4.0619,4.0816,4.0816,4.0816,4.0816,4.0816,4.0816,4.0816,4.0816,4.0816,4.0816,4.0816,4.0816,4.079,4.0781,4.0787,4.084,4.0868,4.0907,4.0907,4.048,3.9662,3.8815,3.7902,3.7088,3.6694,0.0,3.7798,3.8266,3.8711,3.9046,3.8614,3.8199,3.7788,3.7357,3.7161,3.7161,3.7161,3.7174,3.7184,3.7184,3.66,3.5898,3.5889,3.4712,3.3499,3.3914,3.312,3.2331,3.3188,3.3073,3.2996,3.3814,3.4021,3.4032,3.4032,3.3924,3.3878,3.3837,3.3429,3.2824,3.1956,3.1137,3.0598,3.0598,3.025,3.0133,3.0559,3.0598,3.0443,3.0017,2.9981,2.9612,2.8673,2.8208,2.7798,2.7318,2.6784,2.6509,2.6509,2.6346,2.6198,2.612,2.6084,2.5971,2.5841,2.621,2.6394,2.6317,2.6725,2.713,3.6696,3.6853,3.6944,3.6818,3.487,3.2576,3.0865,2.8517,2.597,2.3423,2.2765,2.2454,2.1962,2.3522,2.539,2.6983,2.9505,3.2297,3.5281,3.698,3.8563,4.031,4.07,4.0816,4.0816,4.0816,4.0816,4.0816,4.0816,0.0,4.0816,4.0816,4.0816,4.0816,4.0802,4.0792,4.0787,4.0876,4.0912,4.0937,4.0919,4.0579,3.9957,3.9078,3.8205,3.7391,3.7268,0.0,0.0,3.7941,3.8335,3.8497,3.8302,3.7798,3.7218,3.7022,3.6515,3.593,3.593,3.6367,3.6948,3.6948,3.6287,3.5507,3.5528,3.4774,3.3986,3.4148,3.3826,3.3436,3.3592,3.3514,3.3553,3.4176,3.4331,3.437,3.4565,3.4011,3.353,3.3726,3.3149,3.2539,3.2152,3.1567,3.1023,3.0636,3.0598,3.0598,3.0598,3.0598,3.0598,3.0598,3.0598,3.031,2.953,2.9334,2.8926,2.8214,2.7841,2.7641,2.7599,2.7417,2.7254,2.7118,2.7079,2.7004,2.6907,2.7055,2.7167,2.7167,2.7357,2.7761,3.6696,3.7298,3.7707,3.6979,3.4886,3.2563,3.0871,2.8517,2.597,2.3423,2.2279,2.1944,2.2639,2.2965,2.4447,2.8393,2.9321,3.0987,3.5126,3.6477,3.7677,3.9423,4.0313,4.0816,4.0816,4.0816,4.0816,4.0816,0.0,0.0,4.0816,4.0816,4.0816,4.0816,4.0802,4.0792,4.0787,4.087,4.0926,4.0982,4.1001,4.0943,4.0865,4.005,3.9192,3.8333,0.0,0.0,0.0,3.7278,3.7801,3.8437,3.7616,3.7303,3.7172,3.6391,3.6078,3.6,3.6,3.6037,3.6112,3.6112,3.7034,3.8143,3.8137,3.6997,3.5857,3.6631,3.5189,3.3553,3.4292,3.3943,3.3436,3.3475,3.3514,3.3709,3.4448,3.4484,3.4596,3.5414,3.5424,3.4853,3.335,3.2975,3.2333,3.083,3.0598,3.0598,3.0598,3.0598,3.0598,3.0598,3.0598,3.0547,3.0399,2.9709,2.9226,2.9088,2.8309,2.7778,2.7606,2.7476,2.7319,2.7118,2.6972,2.6925,2.6907,2.7613,2.7984,2.8021,2.8807,2.9216,3.6642,3.6999,3.7208,3.6926,3.4934,3.2629,3.095,2.8171,2.5388,2.3344,2.1801,2.1302,2.2659,2.2898,2.3946,2.7192,2.8161,2.9478,3.2225,3.3767,3.546,3.7739,3.8755,3.9711,4.0814,4.0937,4.0937,4.0937,0.0,0.0,4.0937,4.0881,4.0845,4.0845,4.0907,4.0917,4.0924,4.0939,4.0963,4.1006,4.0985,4.0991,4.0953,4.0187,3.9606,3.9255,0.0,0.0,0.0,3.7265,3.7458,3.7727,3.7415,3.7292,3.7243,3.6891,3.6461,3.5992,3.5992,3.5992,3.5991,3.5987,3.6441,3.7011,3.7011,3.6495,3.5977,3.632,3.5695,3.4994,3.5306,3.515,3.4916,3.4916,3.4487,3.4215,3.4526,3.4185,3.3881,3.4232,3.4248,3.3993,3.3298,3.3142,3.2681,3.1485,3.133,3.1137,3.0675,3.0598,3.0598,3.0598,3.0598,3.0586,3.0518,3.0199,2.9954,2.9796,2.9346,2.9014,2.8813,2.8686,2.8587,2.8496,2.8433,2.8398,2.8398,2.8733,2.8876,2.8881,2.9253,2.9402,3.6141,3.6611,3.6822,3.6889,3.4966,3.2656,3.098,2.8354,2.5685,2.3675,2.2358,2.1892,2.3056,2.3288,2.4022,2.6337,2.723,2.8315,3.0327,3.1833,3.3616,3.5965,3.7223,3.8539,4.0086,4.0718,4.0992,4.0992,0.0,0.0,0.0,4.097,4.0906,4.0882,4.0967,4.1002,4.1005,4.1033,4.1043,4.1043,4.1049,4.1011,4.1012,4.0429,4.0037,3.9763,0.0,0.0,0.0,3.7673,3.7673,3.7673,3.7673,3.7673,3.7673,3.7673,3.7282,3.6774,3.6774,3.6774,3.6772,3.6763,3.6559,3.6355,3.6352,3.6147,3.5902,3.5893,3.589,3.589,3.589,3.589,3.589,3.589,3.5423,3.4994,3.4994,3.4507,3.4059,3.4059,3.4,3.3904,3.3632,3.3541,3.3187,3.2333,3.2179,3.1985,3.1408,3.133,3.133,3.133,3.1079,3.0786,3.0492,3.0479,3.0369,3.0163,3.0057,2.9876,2.9659,2.9503,2.9426,2.9402,2.9402,2.9402,2.9402,2.9402,2.9402,2.9402,2.9402,2.9513,3.5139,3.625,3.6898,3.6898,3.4983,3.2643,3.0984,2.9246,2.7236,2.4718,2.4176,2.4176,2.4176,2.4176,2.4755,2.6414,2.6723,2.7615,3.025,3.1292,3.2486,3.4316,3.6004,3.7401,3.8322,3.9973,4.0992,0.0,0.0,0.0,0.0,4.1016,4.0986,4.0901,4.0955,4.1005,4.1015,4.1089,4.1094,4.1094,4.1083,4.111,4.111,4.107,4.0602,0.0,0.0,0.0,0.0,3.8572,3.8572,3.8572,3.8572,3.8572,3.8572,3.8572,3.8572,3.8572,3.8572,3.8572,3.857,3.8482,3.7887,3.7175,3.72,3.6562,3.589,3.589,3.589,3.589,3.589,3.589,3.589,3.589,3.589,3.589,3.589,3.5878,3.5867,3.5867,3.5805,3.551,3.4622,3.4446,3.4082,3.3223,3.3104,3.3066,3.3066,3.3066,3.3066,3.3066,3.2224,3.1322,3.0475,3.0395,3.0331,3.0119,3.0108,2.9977,2.9717,2.9612,2.9532,2.9407,2.9402,2.9402,2.9402,2.9402,2.9402,2.9402,2.9402,2.9848,3.2037,3.278,3.329,3.271,3.1557,3.0211,2.9091,2.7505,2.5878,2.4486,2.3714,2.3482,2.4099,2.4215,2.5143,2.8006,2.847,2.8958,3.0413,3.2371,3.4102,3.5297,3.9074,4.1703,4.1982,0.0,4.2842,0.0,0.0,0.0,0.0,4.1405,4.1051,4.0987,4.1013,4.1054,4.1054,4.1088,4.1082,4.1082,4.1114,4.1109,4.1109,4.1109,0.0,0.0,0.0,0.0,0.0,3.9429,3.9429,3.9429,3.9429,3.9429,3.9429,3.9429,3.9078,3.8611,3.8611,3.8611,3.8609,3.8521,3.832,3.8081,3.8101,3.7071,3.589,3.589,3.589,3.589,3.589,3.589,3.589,3.589,3.589,3.589,3.589,3.5886,3.5883,3.5883,3.5864,3.5728,3.5456,3.5345,3.4971,3.412,3.4002,3.3749,3.3059,3.2973,3.2946,3.2913,3.2647,3.235,3.2113,3.1536,3.1072,3.0872,3.1286,3.1204,3.0417,3.0845,3.106,3.1032,3.1032,3.1032,3.1032,3.1032,3.1032,3.1032,3.1032,3.1108,2.9958,3.0714,3.1214,3.0714,2.9942,2.9061,2.8243,2.6968,2.5735,2.4914,2.43,2.4069,2.4648,2.4726,2.5421,2.7551,2.79,2.8424,2.9947,3.1828,3.4017,3.6584,4.035,4.2891,0.0,4.3516,0.0,0.0,0.0,0.0,0.0,4.1871,4.1404,4.1054,4.1089,4.1117,4.1115,4.1111,4.1109,4.1109,4.1109,4.1109,4.1109,4.1109,0.0,0.0,0.0,0.0,0.0,4.0288,4.0288,4.0288,4.0288,4.0288,4.0288,4.0288,3.9976,3.9548,3.9548,3.9548,3.9546,3.9496,3.9254,3.8933,3.8607,3.75,3.6395,3.6395,3.6162,3.589,3.589,3.589,3.589,3.589,3.589,3.589,3.589,3.589,3.589,3.589,3.5841,3.5779,3.5743,3.5664,3.5424,3.4833,3.4747,3.4491,3.3878,3.3791,3.3806,3.3733,3.3421,3.3348,3.3684,3.2609,3.1836,3.164,3.1977,3.1867,3.1265,3.1581,3.1812,3.1812,3.1812,3.1812,3.1812,3.1812,3.1812,3.1812,3.2109,3.2148,0.0,2.9687,3.0306,3.0268,2.9648,2.8857,2.8074,2.731,0.0,2.5747,2.5601,2.5601,2.5679,2.5639,2.5678,2.5913,2.5952,2.6812,2.9311,3.0645,3.3201,3.8266,4.0466,4.1875,4.2617,4.3398,0.0,0.0,0.0,0.0,0.0,4.2453,4.2017,4.1235,4.1117,4.1115,4.1109,4.1109,4.1109,4.1109,4.1109,4.1109,4.1109,4.1109,0.0,0.0,0.0,0.0,0.0,4.1109,4.1109,4.1109,4.1109,4.1109,4.1109,4.1109,4.1109,4.1109,4.1109,4.1109,4.1108,4.1097,4.0534,3.9733,3.8914,3.8046,3.7292,3.7292,3.6668,3.6006,3.6006,3.5968,3.589,3.589,3.5886,3.5883,3.5883,3.5879,3.5876,3.5876,3.5838,3.5734,3.5596,3.5548,3.5441,3.533,3.5308,3.5304,3.5297,3.5297,3.5293,3.5285,3.4495,3.4272,3.503,3.3612,3.2632,3.2518,3.2354,3.2235,3.2183,3.2055,3.1955,3.1955,3.1955,3.1955,3.1955,3.1955,3.1955,3.1998,3.2724,3.2976,2.6389,0.0,2.7619,2.6923,2.6614,2.6424,0.0,2.6012,2.5821,2.5637,2.5601,2.5796,2.6463,2.6032,2.6459,2.9072,2.95,3.0175,3.2191,3.5497,3.8904,4.2108,4.4023,4.5195,4.5351,4.5586,0.0,0.0,0.0,0.0,0.0,4.3118,4.2296,4.2095,4.1466,4.1111,4.1109,4.1109,4.1109,4.1109,4.1109,4.1109,4.1109,4.1109,0.0,0.0,0.0,0.0,0.0,4.1109,4.1109,4.1109,4.1109,4.1109,4.1109,4.1109,4.1109,4.1109,4.1109,4.1109,4.1108,4.1097,4.0966,4.0757,4.0553,3.9409,3.8188,3.8188,3.7564,3.6902,3.6902,3.6395,3.589,3.589,3.5811,3.5766,3.5766,3.5717,3.5665,3.5665,3.562,3.5521,3.5466,3.5428,3.5388,3.5319,3.5308,3.5274,3.5178,3.5166,3.5128,3.4985,3.4793,3.4732,3.4921,3.401,3.3423,3.3383,3.3762,3.3714,3.3055,3.3409,3.3627,3.3627,3.3627,3.3627,3.3627,3.3627,3.3627,3.3627,3.3654,3.3579,2.5645,2.625,2.6808,2.6305,2.6188,2.6193,2.621,2.59,2.5631,2.5643,2.5645,2.5919,2.6779,2.6545,2.7091,2.9744,3.0213,3.135,3.4719,3.8553,4.1875,4.4023,4.5469,4.6289,0.0,0.0,0.0,0.0,0.0,0.0,0.0,4.4092,4.3425,4.3028,4.2555,4.2084,4.1693,4.1693,4.1693,4.1693,4.1693,4.1499,4.1109,4.1109,0.0,0.0,0.0,0.0,4.1109,4.1109,4.1109,4.1109,4.1109,4.1109,4.1109,4.1109,4.1109,4.1109,4.1109,4.1106,4.1101,4.1095,4.1082,4.1104,4.1098,4.0422,3.9628,3.92,3.8461,3.7798,3.7798,3.7448,3.7097,3.7097,3.7026,3.6981,3.6908,3.685,3.6828,3.6748,3.6702,3.664,3.6538,3.6466,3.6423,3.6294,3.6277,3.625,3.6173,3.6164,3.6136,3.6055,3.5709,3.5633,3.6012,3.533,3.4685,3.4263,3.4509,3.4427,3.3902,3.4114,3.4246,3.4185,3.4185,3.4185,3.4185,3.413,3.4265,3.4616,3.4368,3.4359,2.6016,2.6708,2.7223,2.6832,2.6832,2.6878,2.6743,2.62,2.5735,2.5859,2.5898,2.6211,2.7226,2.75,2.8164,2.9883,3.0625,3.2578,3.7226,4.0625,4.3203,4.4805,4.5781,0.0,0.0,0.0,0.0,0.0,0.0,0.0,0.0,4.5066,4.4669,4.3922,4.3764,4.3411,4.2786,4.2668,4.259,4.259,4.2473,4.2084,4.1499,4.1343,0.0,0.0,0.0,0.0,4.1109,4.1109,4.1109,4.1109,4.1109,4.1109,4.1109,4.1109,4.1109,4.1109,4.1109,4.1104,4.1095,4.1094,4.1074,4.1085,4.1082,4.1062,4.0882,4.0142,3.934,3.8692,3.8681,3.8561,3.8442,3.8431,3.8408,3.8371,3.8266,3.8218,3.8164,3.8041,3.8041,3.7973,3.7792,3.773,3.7634,3.7412,3.7414,3.7414,3.7414,3.7414,3.7414,3.7414,3.6808,3.6656,3.7339,3.677,3.6088,3.5325,3.5153,3.5071,3.4953,3.4784,3.466,3.4606,3.4593,3.4593,3.4593,3.4386,3.4606,3.5285,3.4987,3.5113,2.75,2.8515,2.8631,2.6444,2.6444,2.6796,2.6054,2.5781,2.5898,2.6641,2.6797,2.7305,2.8906,2.9805,3.0859,3.2539,3.5273,3.8008,4.0273,4.2266,4.3867,4.4883,0.0,0.0,0.0,0.0,0.0,0.0,0.0,0.0,0.0,0.0,4.4944,4.4787,4.4079,4.3997,4.4581,4.3879,4.349,4.349,4.2747,4.2708,4.3295,4.2552,4.2201,0.0,0.0,0.0,4.1109,4.1109,4.1109,4.1109,4.1109,4.1109,4.1109,4.1109,4.1109,4.1109,4.1109,4.1108,4.1105,4.1096,4.1016,4.0947,4.0933,4.0854,4.0715,4.0599,4.0107,3.9577,3.947,3.8864,3.8298,3.8205,3.806,3.8005,3.7987,3.7882,3.778,3.7759,3.7751,3.7747,3.7665,3.7599,3.7557,3.7435,3.7414,3.7414,3.7414,3.7414,3.7414,3.7414,3.7301,3.7263,3.7377,3.7301,3.7149,3.7035,3.6933,3.6836,3.6628,3.6478,3.6398,3.6385,3.6334,3.6303,3.6303,3.6078,3.5998,3.6094,3.5654,3.5491,2.6679,2.789,2.8594,2.7422,2.8476,2.957,2.8711,2.8516,2.8633,2.9023,2.9101,2.9492,3.0781,3.168,3.3125,3.5781,3.8711,4.1094,4.2383,4.3633,4.4726,0.0,0.0,0.0,0.0,0.0,0.0,0.0,0.0,0.0,0.0,0.0,4.5685,4.5681,4.5326,4.5286,4.5714,4.5325,4.4856,4.4387,4.3996,4.3762,4.3685,4.3294,4.3099,4.3099,0.0,4.2435,4.2475,4.2006,4.2084,4.2514,4.2514,4.2514,4.2436,4.1967,4.2031,4.232,4.185,4.1667,4.1625,4.1655,4.1254,4.0798,4.0786,4.0765,4.0697,4.0697,4.0505,4.026,4.0211,3.9885,3.9597,3.9501,3.9425,3.9346,3.9323,3.9237,3.9142,3.9101,3.9083,3.9051,3.8985,3.897,3.8897,3.8784,3.8731,3.8731,3.8731,3.8731,3.8731,3.8731,3.8362,3.8286,3.8693,3.8362,3.7897,3.7417,3.7343,3.7218,3.6991,3.6956,3.6876,3.6756,3.6763,3.6648,3.6488,3.6265,3.6295,3.6552,3.6184,3.6259,2.6484,2.7422,2.8359,2.8555,2.9961,3.1289,3.1211,3.1055,3.1055,3.168,3.1953,3.2305,3.2969,3.4101,3.5937,3.8984,4.1484,4.3242,4.3906,4.4766,4.5547,4.6211,0.0,0.0,0.0,0.0,0.0,0.0,0.0,0.0,0.0,0.0,4.6307,4.6301,4.6301,4.6301,4.6301,4.6301,4.5948,4.5284,4.5089,4.4777,4.431,4.4114,4.3997,4.3958,4.3294,4.3255,4.3646,4.2982,4.3099,4.3685,4.3685,4.368,4.3552,4.2876,4.2997,4.3376,4.271,4.246,4.2418,4.2371,4.1853,4.128,4.1232,4.1222,4.117,4.117,4.117,4.1103,4.0755,4.0649,4.0639,4.0605,4.057,4.0523,4.0472,4.0423,4.0364,4.0324,4.0306,4.0273,4.0127,4.0106,4.0033,3.9916,3.99,3.99,3.99,3.99,3.99,3.99,3.9342,3.9229,3.9862,3.9342,3.8687,3.8039,3.7916,3.7817,3.765,3.7583,3.7493,3.7249,3.7275,3.7148,3.6802,3.6571,3.6681,3.7083,3.6987,3.7291,2.8867,2.8828,2.8476,2.9297,2.9023,2.9219,3.1562,3.1484,3.1562,3.3945,3.5078,3.5664,3.5703,3.7773,4.0039,4.1835,4.3632,4.4844,4.4883,0.0,4.6211,4.6289,0.0,0.0,0.0,0.0,0.0,0.0,0.0,0.0,0.0,0.0,0.0,4.6301,4.6301,4.6301,4.6301,4.6301,4.6262,4.6184,4.5401,4.5402,4.6105,4.5285,4.4894,4.4894,4.4855,4.4387,4.3685,4.3646,4.3646,4.3685,4.3685,4.362,4.3482,4.3361,4.336,4.3391,4.3352,4.3306,4.3293,4.3228,4.3079,4.2934,4.2853,4.2744,4.2647,4.2647,4.2647,4.2307,4.0873,4.0492,4.0492,4.0354,4.0343,4.0338,4.0329,4.0324,4.0315,4.0306,4.0306,4.0273,4.0127,4.0106,4.0033,3.9916,3.99,3.99,3.99,3.99,3.99,3.99,3.9862,3.9824,3.99,3.9862,3.9786,3.9705,3.9656,3.9594,3.9513,3.9375,3.9163,3.885,3.8772,3.8574,3.8258,3.799,3.7891,3.7929,3.8384,3.8673,2.7809,2.8944,3.0,3.0311,3.1366,3.2538,3.3515,3.4764,3.6247,3.8278,3.8942,3.9177,3.9177,4.0428,4.1835,4.3006,4.4687,4.582,4.582,4.6094,4.6289,0.0,0.0,0.0,0.0,0.0,0.0,0.0,0.0,0.0,0.0,0.0,0.0,4.6301,4.6234,4.6177,4.6177,4.6096,4.6031,4.6033,4.5883,4.5987,4.63,4.5881,4.5669,4.5666,4.5036,4.4857,4.5017,4.4468,4.4585,4.5056,4.5056,4.5036,4.4921,4.437,4.4464,4.4828,4.4276,4.4027,4.395,4.3948,4.3481,4.2966,4.2914,4.2857,4.2794,4.2794,4.2794,4.2661,4.2086,4.1913,4.178,4.1208,4.1036,4.0922,4.042,4.0306,4.0306,4.0306,4.0306,4.0282,4.0176,4.0132,4.0081,3.997,4.0382,4.0696,4.0696,4.115,4.1459,4.1459,4.1459,4.1459,4.1459,4.1459,4.1459,4.1459,4.0452,3.9828,3.9699,3.9688,3.9532,3.9192,3.9062,3.884,3.8417,3.8636,3.8663,3.8518,3.9194,3.9494,2.7494,2.8708,3.0194,3.0778,3.2808,3.4995,3.6049,3.7923,3.9954,4.1906,4.2102,4.1984,4.2297,4.2574,4.3201,4.4334,4.5741,4.6797,4.707,4.7109,0.0,0.0,0.0,0.0,0.0,0.0,0.0,0.0,0.0,0.0,0.0,0.0,0.0,0.0,4.6174,4.61,4.61,4.5973,4.5883,4.5885,4.6091,4.6176,4.6174,4.6087,4.6023,4.598,4.5325,4.5334,4.5844,4.5253,4.5372,4.5919,4.5881,4.5866,4.5783,4.515,4.5269,4.5653,4.5059,4.4784,4.4675,4.4664,4.4196,4.3685,4.3594,4.3588,4.3596,4.3596,4.3596,4.3596,4.3596,4.3214,4.2641,4.203,4.192,4.1762,4.1223,4.1108,4.1108,4.1108,4.1108,4.1055,4.1012,4.0967,4.0878,4.0805,4.1255,4.1595,4.1573,4.1838,4.2028,4.2028,4.2255,4.2407,4.2407,4.2407,4.2407,4.2407,4.1302,4.0657,4.0533,4.0562,4.0396,3.9953,3.9841,3.9517,3.8922,3.9301,3.9362,3.9173,3.9922,4.0279,2.8553,2.8319,2.8748,3.0505,3.2844,3.5649,3.9084,4.0535,4.1867,4.4483,4.4328,4.4016,4.4875,4.4332,4.4295,4.6014,4.7029,4.7928,4.8787,4.8901,0.0,0.0,0.0,0.0,0.0,0.0,0.0,0.0,0.0,0.0,0.0,0.0,0.0,0.0,4.6173,0.0,4.6098,4.5971,4.5919,4.5919,4.5919,4.5919,4.5883,4.5883,4.588,4.588,4.5919,4.5919,4.5919,4.5919,4.5919,4.5908,4.5819,4.5803,4.5786,4.5658,4.5594,4.5594,4.5594,4.5564,4.5475,4.5424,4.5409,4.5398,4.5304,4.5283,4.5283,4.5283,4.5283,4.5283,4.5283,4.406,4.2832,4.2794,4.2794,4.2794,4.2794,4.2794,4.2794,4.2794,4.2794,4.2779,4.2695,4.269,4.2649,4.2525,4.2503,4.2481,4.2412,4.1725,4.1232,4.1232,4.1952,4.2407,4.2407,4.2407,4.2407,4.2407,4.2407,4.2383,4.2293,4.2287,4.1969,4.1316,4.1292,4.0914,4.0104,4.0104,4.0038,3.9922,4.0753,4.1109,2.8544,2.9604,3.1403,3.3158,3.6398,3.9946,4.277,4.3638,4.4589,4.7211,4.6963,4.641,4.6748,4.6541,4.6298,4.6282,4.7533,4.8393,4.8041,0.0,0.0,0.0,0.0,0.0,0.0,0.0,0.0,0.0,0.0,0.0,0.0,0.0,0.0,0.0,4.5911,0.0,4.5888,4.5751,4.5708,4.5708,4.5708,4.5747,4.5919,4.5834,4.5829,4.5825,4.5718,4.5708,4.5708,4.5708,4.5708,4.5704,4.5653,4.5675,4.5667,4.5612,4.5594,4.5594,4.5594,4.5581,4.5564,4.5475,4.5424,4.5409,4.5398,4.5352,4.5283,4.5283,4.5283,4.5283,4.5283,4.4939,4.4399,4.3782,4.3629,4.3477,4.2908,4.2794,4.2794,4.2794,4.2794,4.2789,4.2774,4.2675,4.2612,4.2574,4.3029,4.3529,4.408,4.3966,4.3815,4.3815,4.4036,4.4156,4.4156,4.4156,4.4156,4.4156,4.4156,4.3535,4.2071,4.202,4.1751,4.124,4.1029,4.0766,4.0465,4.0775,4.0909,4.0906,4.1614,4.194,2.9723,3.1135,3.3173,3.5585,3.8915,4.2511,4.6112,4.6977,4.7537,4.9456,4.8866,4.8131,4.8548,4.7714,4.7038,4.7298,4.7921,4.8305,4.8058,0.0,0.0,0.0,0.0,0.0,0.0,0.0,0.0,0.0,0.0,0.0,0.0,0.0,0.0,0.0,4.6335,0.0,4.626,4.618,4.5936,4.5594,4.5594,4.5665,4.5767,4.5757,4.5712,4.5708,4.5642,4.5594,4.5594,4.5594,4.5594,4.5594,4.5594,4.5594,4.5594,4.5594,4.5594,4.5594,4.5594,4.5808,4.6011,4.5581,4.5645,4.5821,4.5464,4.5347,4.5283,4.5283,4.5283,4.5283,4.5283,4.5283,4.5168,4.4628,4.4508,4.4393,4.3902,4.3787,4.3787,4.3787,4.3787,4.3787,4.3787,4.372,4.3613,4.3591,4.3935,4.4345,4.4838,4.4914,4.4724,4.4308,4.4649,4.4914,4.4914,4.4914,4.4833,4.4726,4.4719,4.4045,4.2552,4.2738,4.2632,4.2067,4.1911,4.1726,4.1461,4.1696,4.1783,4.1779,4.2134,4.2476,3.146,3.2695,3.4333,3.7809,4.0773,4.4116,4.8904,5.0035,5.0311,5.1141,5.0156,4.936,5.0152,4.8269,4.7129,4.8625,4.8186,4.7889,4.8466,0.0,0.0,0.0,0.0,0.0,0.0,0.0,0.0,0.0,0.0,0.0,0.0,0.0,0.0,0.0,4.715,0.0,4.7082,4.6973,4.6509,0.0,4.5706,4.5706,4.5706,4.5633,4.5594,4.5594,4.5594,4.5633,4.5706,4.5706,4.5744,4.5821,4.5821,4.5821,4.5821,4.5821,4.5821,4.5821,4.5821,4.6285,4.6772,4.5923,4.6137,4.6574,4.5762,4.5517,4.5512,4.5512,4.5512,4.5512,4.5512,4.5512,4.5512,4.5512,4.5397,4.5283,4.5283,4.5283,4.5283,4.5283,4.5283,4.5283,4.5283,4.5235,4.5175,4.5108,4.4992,4.4914,4.4914,4.4914,4.4535,4.3549,4.4308,4.4914,4.4914,4.4914,4.4796,4.454,4.4416,4.4095,4.3523,4.3967,4.3915,4.3389,4.3262,4.3087,4.283,4.274,4.2693,4.2629,4.2527,4.2894,3.0882,3.3069,3.6096,3.9627,4.3904,4.7716,4.9451,5.0381,5.095,5.122,5.101,5.0821,5.0943,4.9912,4.8948,4.8647,4.8433,4.8136,0.0,0.0,0.0,0.0,0.0,0.0,0.0,0.0,0.0,0.0,0.0,0.0,0.0,0.0,0.0,4.7893,0.0,4.7871,4.7871,4.7215,4.6812,0.0,4.662,4.662,4.6581,4.5898,4.5594,4.5594,4.5594,4.5975,4.662,4.662,4.7009,4.7548,4.7548,4.7548,4.7548,4.7548,4.7548,4.7548,4.7548,4.7631,4.7698,4.7497,4.7504,4.7608,4.7406,4.7297,4.7259,4.7259,4.7259,4.7259,4.7259,4.7259,4.7259,4.7259,4.6271,4.5283,4.5283,4.5283,4.5283,4.5283,4.5283,4.5283,4.5283,4.5235,4.5164,4.5024,4.4936,4.4914,4.4914,4.4914,4.48,4.4573,4.4762,4.4914,4.4914,4.4914,4.5059,4.5484,4.4426,4.3935,4.4333,4.3282,4.2769,4.2995,4.2386,4.2341,4.2899,4.331,4.3524,4.354,4.3906,4.4203,3.1913,3.4363,3.7553,4.2719,4.5985,4.8275,4.952,4.9865,4.9924,4.9969,5.062,5.1183,5.1144,5.0062,4.9021,4.8569,4.7813,4.7076,0.0,0.0,0.0,0.0,0.0,0.0,0.0,0.0,0.0,0.0,0.0,0.0,0.0,4.8416,4.8373,4.8702,4.8702,4.8702,4.8702,4.8317,4.7889,4.7466,4.7466,4.7466,4.7466,4.7009,4.6817,4.6817,4.6817,4.7048,4.7466,4.7466,4.7735,4.8082,4.8082,4.8082,4.8082,4.8082,4.8082,4.812,4.8058,4.8299,4.8533,4.81,4.8196,4.8411,4.7996,4.7816,4.7794,4.7794,4.7794,4.7794,4.7794,4.7794,4.7794,4.7794,4.7144,4.65,4.65,4.65,4.65,4.65,4.65,4.65,4.65,4.6217,4.5746,4.5036,4.49,4.4914,4.4914,4.4914,4.4914,4.4914,4.4914,4.4914,4.4914,4.4597,4.4743,4.5472,4.5261,4.5066,4.4938,4.3771,4.3205,4.3471,4.3425,4.3643,4.4051,4.4317,4.4453,4.4489,4.4646,4.4897,3.2493,3.5408,3.8905,4.5376,4.7201,4.7789,4.9237,4.9137,4.8694,4.8508,4.9737,5.0809,5.0636,4.9424,4.8415,4.8269,4.689,4.586,0.0,0.0,0.0,0.0,0.0,0.0,0.0,0.0,0.0,0.0,0.0,0.0,4.963,4.8933,4.8894,4.9591,4.963,4.963,4.963,4.9471,4.9048,4.8312,4.8312,4.8394,4.8548,4.8548,4.8394,4.8082,4.8082,4.8197,4.8312,4.8312,4.8394,4.8548,4.8548,4.8548,4.8548,4.8548,4.8548,4.8538,4.85,4.8937,4.9406,4.8618,4.8805,4.9171,4.846,4.8214,4.8214,4.8214,4.8214,4.8214,4.8214,4.8214,4.8214,4.8214,4.8214,4.8138,4.787,4.7794,4.7794,4.7794,4.7794,4.7755,4.7679,4.7198,4.6382,4.515,4.4944,4.4914,4.4914,4.4914,4.5103,4.571,4.5748,4.5748,4.5748,4.519,4.5094,4.5579,4.6204,4.6193,4.5474,4.4584,4.4087,4.4087,4.4621,4.5019,4.5309,4.5208,4.5256,4.54,4.53,4.5588,2.9538,3.4458,4.0356,4.4928,4.72,4.8371,4.8569,4.9029,4.9235,4.8485,4.9217,4.9715,4.8826,4.8498,4.8078,4.7233,4.6283,4.5885,0.0,0.0,0.0,0.0,0.0,0.0,0.0,0.0,0.0,0.0,0.0,0.0,5.0515,5.0438,5.0399,5.0515,5.0515,5.0515,5.0515,4.9784,4.9356,4.924,4.924,4.963,5.0361,5.0361,4.951,4.8082,4.8082,4.8548,4.924,4.924,4.9668,5.0361,5.0361,5.0361,5.0361,5.0361,5.0361,5.0361,5.0356,5.0394,5.0415,5.0204,5.0183,5.0204,5.0033,4.9977,4.9977,4.9977,4.9977,4.9977,4.9977,4.9977,4.9977,4.9977,4.9977,4.9557,4.8099,4.7794,4.7794,4.7794,4.7794,4.7641,4.7182,4.693,4.6439,4.5382,4.5057,4.4914,4.4914,4.4914,4.6013,4.8938,4.9242,4.9242,4.9242,4.8926,4.8347,4.7403,4.617,4.5642,4.5971,4.4775,4.4087,4.4087,4.3507,4.3906,4.5309,4.5162,4.5462,4.6183,4.6705,4.6999,3.1713,3.5664,3.9905,4.4597,4.6369,4.7059,4.7492,4.7866,4.7867,4.7006,4.7554,4.8183,4.8178,4.7802,4.7379,4.698,4.6586,0.0,0.0,0.0,0.0,0.0,0.0,0.0,0.0,0.0,0.0,0.0,0.0,5.0707,5.0707,5.0707,5.0707,5.0707,5.0707,5.0707,5.0707,5.0322,5.013,5.013,5.013,5.0322,5.0707,5.0707,5.0284,4.9553,4.9553,4.9784,5.013,5.013,5.0361,5.0707,5.0707,5.0707,5.0707,5.0707,5.0707,5.0702,5.0599,5.0563,5.0521,5.0429,5.0384,5.035,5.0327,5.0283,5.0283,5.0283,5.0283,5.0392,5.0888,5.1041,5.1079,5.1232,5.1156,5.0697,4.9475,4.9207,4.9207,4.9207,4.9207,4.9119,4.8844,4.8774,4.8554,4.7989,4.7796,4.7687,4.7687,4.7687,4.8256,4.9734,4.9174,4.8684,4.8684,4.8559,4.8267,4.772,4.7047,4.6468,4.6116,4.6106,4.6106,4.6106,4.4874,4.4584,4.5309,4.5693,4.607,4.6422,4.71,4.7407,3.2517,3.5325,3.7935,4.2605,4.4608,4.5611,4.646,4.6805,4.6729,4.6121,4.6313,4.674,4.7355,4.7158,4.6889,4.6889,4.6889,0.0,0.0,0.0,0.0,0.0,0.0,0.0,0.0,0.0,0.0,0.0,0.0,5.0707,5.0707,5.0707,5.0707,5.0707,5.0707,5.0707,5.0707,5.0707,5.0707,5.0707,5.0707,5.0707,5.0707,5.0707,5.0707,5.0707,5.0707,5.0707,5.0707,5.0707,5.0707,5.0707,5.0707,5.0707,5.0707,5.0707,5.0697,5.0673,5.0783,5.0823,5.0829,5.0914,5.0956,5.095,5.0938,5.0932,5.0932,5.0932,5.0932,5.1085,5.1735,5.1882,5.1958,5.2149,5.2034,5.1614,5.055,5.0474,5.055,5.0359,5.0544,5.0603,5.027,5.028,5.0194,4.9933,4.9886,4.9886,4.9886,4.9886,4.9776,4.937,4.8346,4.7689,4.7689,4.7689,4.7689,4.7689,4.7689,4.7228,4.6152,4.6757,4.7073,4.7073,4.5924,4.549,4.5924,4.6323,4.6711,4.7109,4.764,4.7969,2.8782,3.1378,3.4127,3.763,4.1567,4.4762,4.5573,4.6347,4.6891,4.6844,4.6193,4.5667,4.5706,4.6355,4.6889,4.6889,4.6889,0.0,0.0,0.0,0.0,0.0,0.0,0.0,0.0,0.0,0.0,0.0,0.0,5.0707,5.0707,5.0707,5.0707,5.0707,5.0707,5.0707,5.0707,5.0707,5.0707,5.0707,5.0707,5.0707,5.0707,5.0707,5.0707,5.0707,5.0707,5.0707,5.0707,5.0707,5.0707,5.0707,5.0707,5.0707,5.0707,5.0707,5.0673,5.0699,5.1462,5.1694,5.1749,5.2529,5.2774,5.2762,5.267,5.2658,5.2658,5.2658,5.2658,5.2696,5.2734,5.2734,5.2734,5.2772,5.2734,5.227,5.0665,5.0965,5.1308,5.0468,5.1156,5.157,5.0468,5.0315,5.0194,4.9933,4.9886,4.9886,4.9886,4.9886,4.9363,4.7972,4.7741,4.7689,4.7689,4.7689,4.7689,4.7689,4.7689,4.7228,4.6152,4.5671,4.5417,4.5417,4.5345,4.6069,4.758,4.6856,4.729,4.8775,4.88,4.9246,2.8601,3.0606,3.2996,3.6356,3.9598,4.2295,4.3716,4.5509,4.6728,4.6189,4.6253,4.6278,4.5706,4.5859,4.609,4.609,4.6971,0.0,0.0,0.0,0.0,0.0,0.0,0.0,0.0,0.0,0.0,0.0,0.0,0.0,5.0707,5.0707,5.0707,5.0707,5.0707,5.0707,5.0707,5.0707,5.0707,5.0707,5.0707,5.0707,5.0707,5.0707,5.0707,5.0745,5.1241,5.1164,5.0707,5.0707,5.1015,5.1467,5.1467,5.1818,5.2318,5.2318,5.2303,5.2282,5.2558,5.2582,5.2559,5.2809,5.2877,5.2835,5.2817,5.2811,5.2811,5.2811,5.2811,5.2925,5.3492,5.3645,5.3645,5.3645,5.3492,5.3116,5.2117,5.2155,5.227,5.197,5.1353,5.0774,5.0359,5.0283,5.0253,5.0163,5.0145,5.0089,4.9913,4.9048,4.8307,4.7762,4.7689,4.7689,4.7689,4.7689,4.7689,4.7689,4.7689,4.7508,4.7156,4.6928,4.682,4.682,4.682,4.6613,4.6178,4.6395,4.7073,4.8123,4.8666,4.9329,2.7582,2.9275,3.1583,3.4657,3.693,3.9204,4.2393,4.4197,4.5351,4.5932,4.6278,4.6394,4.609,4.5782,4.5706,4.5975,4.7201,0.0,0.0,0.0,0.0,0.0,0.0,0.0,0.0,0.0,0.0,0.0,0.0,0.0,5.0707,5.0707,5.0707,5.0707,5.0707,5.0707,5.0707,5.0707,5.0707,5.0707,5.0707,5.0707,5.0707,5.0976,5.1087,5.1164,5.1967,5.1851,5.1125,5.1438,5.1856,5.2351,5.2351,5.2697,5.3197,5.3197,5.3187,5.3205,5.3421,5.3475,5.3451,5.366,5.372,5.3683,5.3683,5.3683,5.3683,5.3683,5.3683,5.3798,5.4409,5.4524,5.4524,5.4524,5.4409,5.4142,5.376,5.3454,5.3155,5.2849,5.2384,5.1996,5.1996,5.1996,5.1834,5.1335,5.1134,5.0986,5.0804,4.9924,4.9318,4.9318,4.9318,4.9318,4.9318,4.9318,4.9173,4.8811,4.8775,4.8703,4.8496,4.8496,4.8387,4.8123,4.8087,4.7435,4.6106,4.6639,4.7327,4.8123,4.8666,4.9307,0.0,0.0,0.0,3.216,3.3471,3.5664,4.1546,4.2235,4.262,4.6081,4.6124,4.5821,4.6735,4.6201,4.5936,4.6774,4.7582,0.0,0.0,0.0,0.0,0.0,0.0,0.0,0.0,0.0,0.0,0.0,0.0,5.0707,5.0707,5.0707,5.0707,5.0707,5.0707,5.0707,5.0707,5.0707,5.0707,5.0707,5.0707,5.0745,5.0745,5.1582,5.1923,5.2,5.2851,5.2774,5.2038,5.2851,5.3236,5.3236,5.3236,5.3236,5.3274,5.3274,5.3243,5.3311,5.4083,5.4294,5.4349,5.5154,5.5403,5.5396,5.5396,5.5396,5.5396,5.5396,5.5396,5.5396,5.5435,5.5428,5.5422,5.546,5.5422,5.5422,5.5422,5.474,5.3874,5.3034,5.4256,5.5396,5.5396,5.5396,5.4896,5.3481,5.2831,5.2539,5.248,5.248,5.248,5.248,5.248,5.248,5.248,5.248,5.2045,5.0984,5.0911,5.0669,5.0101,5.0101,4.9727,4.8956,4.8956,4.8558,4.7761,4.7725,4.8123,4.892,4.892,4.9289,2.7236,0.0,0.0,0.0,0.0,0.0,3.6811,3.7888,3.9273,4.3316,4.4432,4.5124,4.662,4.6697,4.662,4.6851,4.7582,0.0,0.0,0.0,0.0,0.0,0.0,0.0,0.0,0.0,0.0,0.0,5.0707,5.0707,5.0707,5.0707,5.0707,5.0707,5.0707,5.0707,5.0707,5.0707,5.0707,5.0707,5.1279,5.1582,5.1582,5.2467,5.2851,5.289,5.378,5.401,5.3741,5.3351,5.3587,5.4126,5.4126,5.4511,5.5011,5.5011,5.4979,5.4924,5.5176,5.5172,5.5115,5.5326,5.5403,5.5396,5.5396,5.5396,5.5396,5.5396,5.5396,5.5511,5.6129,5.6037,5.5972,5.6618,5.6368,5.5958,5.5958,5.5493,5.4976,5.4715,5.5059,5.5396,5.5396,5.5396,5.5253,5.4844,5.3767,5.2875,5.2526,5.248,5.248,5.248,5.248,5.248,5.248,5.248,5.2045,5.0984,5.0911,5.0669,5.0101,5.0101,4.9992,4.9775,4.9775,4.9666,4.9449,4.8279,4.8123,4.892,4.951,4.9861,2.8585,2.9621,3.0888,3.074,0.0,0.0,3.5269,3.6346,3.7811,4.1735,4.3239,4.4316,4.6047,4.6047,4.6043,4.6774,4.7582,4.8082,0.0,0.0,0.0,0.0,0.0,0.0,0.0,0.0,0.0,5.0707,5.0707,5.0707,5.0707,5.0707,5.0707,5.0707,5.0707,5.0707,5.0707,5.0707,5.0861,5.1202,5.1697,5.2077,5.2467,5.3351,5.3741,5.378,5.4626,5.5011,5.4972,5.4434,5.4549,5.5011,5.5011,5.5285,5.5703,5.5682,5.5649,5.5648,5.5942,5.603,5.5995,5.6346,5.6429,5.6434,5.6434,5.6205,5.5899,5.5899,5.5899,5.6091,5.6938,5.6955,5.6851,5.7117,5.6838,5.652,5.6442,5.6152,5.5812,5.5465,5.5396,5.5206,5.4605,5.4463,5.4463,5.4463,5.3747,5.3017,5.2549,5.248,5.248,5.248,5.248,5.248,5.248,5.248,5.2226,5.1599,5.1574,5.143,5.1115,5.1115,5.0934,5.0608,5.0608,5.0427,5.0101,4.9148,4.8931,4.9401,4.9883,5.0101,3.0201,3.0929,0.0,0.0,3.1926,0.0,3.535,3.6196,3.7234,4.0542,4.185,4.297,4.4821,4.4628,4.4624,4.6081,4.7235,4.8043,0.0,0.0,0.0,0.0,0.0,0.0,0.0,5.0707,5.0707,5.0707,5.0707,5.0707,5.0707,5.0707,5.0707,5.0707,5.0707,5.0707,5.0707,5.0784,5.1202,5.1885,5.212,5.2582,5.3351,5.4241,5.4626,5.4664,5.5401,5.5708,5.5708,5.5708,5.5708,5.5708,5.5708,5.5708,5.5698,5.5714,5.5725,5.5856,5.6587,5.6767,5.6792,5.7531,5.7772,5.7734,5.7657,5.7122,5.6587,5.6554,5.6559,5.6799,5.7669,5.7877,5.7742,5.7291,5.7142,5.7066,5.6869,5.6836,5.6622,5.5842,5.5393,5.4852,5.389,5.3728,5.3618,5.3251,5.3214,5.3017,5.2549,5.248,5.248,5.248,5.248,5.248,5.248,5.248,5.248,5.248,5.248,5.248,5.248,5.248,5.2154,5.1441,5.1441,5.1079,5.0354,5.0173,5.0101,5.0101,5.0101,5.0101,3.4157,3.45,3.4465,3.3199,0.0,0.0,3.2965,3.3199,3.443,3.7119,3.785,3.8888,4.1966,4.297,4.3239,4.285,4.5235,4.762,0.0,0.0,0.0,0.0,0.0,0.0,0.0,5.0707,5.0707,5.0707,5.0707,5.0707,5.0707,5.0707,5.0707,5.0707,5.0707,5.0707,5.0707,5.1356,5.1736,5.1923,5.3313,5.4087,5.428,5.5088,5.5478,5.5478,5.5631,5.5708,5.5708,5.5708,5.5708,5.5708,5.5708,5.5708,5.5775,5.64,5.6612,5.6673,5.7481,5.7232,5.6652,5.6791,5.6861,5.6747,5.6091,5.6205,5.6541,5.6206,5.6387,5.6882,5.7681,5.7677,5.7603,5.8288,5.8127,5.7772,5.7748,5.7752,5.7685,5.7524,5.5418,5.4354,5.6658,5.7042,5.6198,5.3581,5.3214,5.3017,5.2549,5.248,5.248,5.248,5.248,5.248,5.248,5.248,5.248,5.248,5.248,5.248,5.248,5.248,5.2408,5.2274,5.2274,5.219,5.2021,5.0716,5.0101,5.0101,5.0101,5.0101,3.6234,3.6427,3.6542,3.5661,0.0,0.0,0.0,3.3853,3.4279,3.6811,3.6696,3.7004,4.0008,4.0546,4.0816,4.1658,4.3927,4.6047,0.0,0.0,0.0,0.0,0.0,0.0,0.0,5.0053,5.0245,5.0668,5.0707,5.0707,5.0707,5.0707,5.0707,5.0707,5.0707,5.0707,5.0707,5.1505,5.212,5.2544,5.3857,5.4703,5.5126,5.5516,5.5708,5.5708,5.5708,5.5939,5.6362,5.6362,5.6593,5.6934,5.6516,5.6362,5.6429,5.7211,5.7459,5.7537,5.8278,5.7989,5.7293,5.753,5.7289,5.6918,5.6755,5.6959,5.7215,5.6991,5.7114,5.7498,5.8333,5.8512,5.855,5.8904,5.9112,5.8997,5.8175,5.7997,5.7997,5.7997,5.6712,5.6124,5.7703,5.7997,5.7446,5.5831,5.5611,5.5522,5.5259,5.5235,5.5131,5.487,5.3422,5.2806,5.3639,5.3711,5.3711,5.3711,5.3711,5.3711,5.3711,5.3711,5.3494,5.3096,5.2697,5.248,5.248,5.1695,5.1296,5.1296,5.1296,5.1296,0.0,0.0,0.0,0.0,0.0,3.6615,0.0,0.0,0.0,3.6892,3.6196,3.5927,3.8165,0.0,0.0,0.0,0.0,0.0,0.0,0.0,0.0,0.0,0.0,0.0,0.0,4.9009,4.9279,5.013,5.0053,5.0091,5.0438,5.0592,5.0707,5.0707,5.0707,5.0784,5.0938,5.1736,5.2582,5.3472,5.4318,5.5049,5.5708,5.5708,5.5708,5.5708,5.5862,5.6362,5.7022,5.717,5.7659,5.8219,5.75,5.7231,5.7329,5.8046,5.8297,5.8394,5.9112,5.8835,5.8196,5.8562,5.806,5.7404,5.7847,5.7884,5.7791,5.7791,5.7857,5.8061,5.8781,5.914,5.9252,5.9026,5.9476,5.9588,5.826,5.7997,5.7997,5.7997,5.7997,5.7997,5.7997,5.7997,5.7997,5.7997,5.7997,5.7997,5.7997,5.7916,5.7667,5.7239,5.4907,5.3929,5.5233,5.5341,5.5233,5.4931,5.4894,5.4894,5.4894,5.4894,5.4581,5.3929,5.3277,5.2951,5.2951,5.2951,5.2806,5.248,5.248,5.248,0.0,0.0,0.0,0.0,4.0123,0.0,0.0,0.0,3.608,3.4895,0.0,0.0,0.0,0.0,0.0,0.0,0.0,0.0,0.0,0.0,0.0,0.0,0.0,0.0,0.0,0.0,4.7505,4.8317,4.7735,4.7971,4.9471,5.0284,5.0707,5.0707,5.0707,5.1048,5.1774,5.262,5.351,5.4357,5.517,5.5593,5.5708,5.5708,5.5708,5.5747,5.6516,5.6907,5.706,5.7819,5.817,5.8194,5.8079,5.8047,5.8144,5.8809,5.9063,5.9172,5.9977,5.9682,5.8981,5.9029,5.8257,5.7373,5.7811,5.7659,5.7381,5.7381,5.7677,5.8009,5.813,5.8153,5.8175,5.813,5.8209,5.8231,5.8054,5.7997,5.7997,5.7997,5.7997,5.7997,5.7997,5.7997,5.7997,5.7997,5.7997,5.7997,5.7997,5.7571,5.7264,5.7201,5.6862,5.6754,5.6935,5.6935,5.6355,5.4979,5.4894,5.4894,5.4894,5.4894,5.487,5.4762,5.4677,5.4641,5.4641,5.4641,5.3892,5.248,5.248,5.248,0.0,0.0,0.0,0.0,0.0,0.0,3.7126,0.0,3.5315,0.0,0.0,0.0,0.0,0.0,0.0,0.0,3.7507,0.0,0.0,0.0,0.0,0.0,0.0,0.0,0.0,0.0,0.0,0.0,0.0,4.7086,4.9279,4.9745,5.0168,5.0668,5.1164,5.1543,5.1885,5.3274,5.4126,5.4511,5.5324,5.5708,5.5708,5.5708,5.5978,5.6478,5.6824,5.7538,5.8422,5.8806,5.9187,5.9581,5.9549,5.9249,5.8897,5.9435,5.9602,5.9641,5.9674,5.9113,5.8278,5.7586,5.721,5.7052,5.7215,5.7471,5.7726,5.7726,5.785,5.7997,5.7997,5.7997,5.7997,5.7997,5.7997,5.7997,5.7997,5.7997,5.7997,5.7997,5.7997,5.7997,5.7997,5.7997,5.7997,5.7997,5.7997,5.7997,5.7997,5.7822,5.7643,5.7643,5.7375,5.7188,5.7188,5.7188,5.6935,5.6283,5.6247,5.6247,5.6247,5.5776,5.5522,5.5522,5.5124,5.4894,5.4894,5.4894,5.4532,5.3892,5.3892,5.3892,4.4701,0.0,0.0,0.0,0.0,0.0,0.0,0.0,0.0,0.0,0.0,0.0,0.0,0.0,0.0,0.0,0.0,0.0,0.0,0.0,0.0,0.0,0.0,0.0,0.0,0.0,0.0,0.0,0.0,0.0,4.8586,4.9163,4.9707,5.0322,5.1351,5.2,5.2236,5.3741,5.4626,5.4857,5.5439,5.5708,5.5708,5.5939,5.6401,5.7016,5.7478,5.8289,5.923,5.9498,5.986,6.0237,6.0179,5.9791,5.9333,5.971,5.986,5.9804,5.937,5.8793,5.8119,5.737,5.7207,5.7284,5.7149,5.7556,5.7997,5.7997,5.7997,5.7997,5.7997,5.7997,5.7997,5.7997,5.8217,5.8474,5.8621,5.8657,5.8657,5.8657,5.9024,5.9318,5.9318,5.8584,5.7997,5.7997,5.7997,5.7997,5.7997,5.7997,5.795,5.781,5.7425,5.7188,5.7188,5.7188,5.7188,5.7188,5.7188,5.7188,5.7188,5.6645,5.6331,5.6331,5.5812,5.5522,5.5522,5.5522,5.5522,5.5522,5.5112,5.4894,0.0,0.0,0.0,4.2812,0.0,0.0,0.0,0.0,3.8896,0.0,0.0,0.0,0.0,0.0,0.0,0.0,0.0,0.0,0.0,0.0,0.0,0.0,0.0,0.0,0.0,0.0,0.0,0.0,0.0,0.0,4.6812,4.8509,4.9394,4.9433,5.1043,5.2313,5.3159,5.4049,5.4895,5.567,5.5708,5.5708,5.5747,5.6555,5.6983,5.7093,5.8704,5.9178,5.8883,5.9736,5.9808,5.9339,5.9339,5.9268,5.926,5.9656,5.9818,5.976,5.9343,5.9168,5.9215,5.9566,5.916,5.8455,5.8071,5.796,5.7997,5.7997,5.7997,5.7997,5.7997,5.7997,5.7997,5.7997,5.8804,5.9685,6.0199,6.0309,6.0309,6.0309,6.1582,6.2646,6.2646,6.0052,5.7997,5.7997,5.7997,5.7997,5.7997,5.7997,5.781,5.7276,5.7201,5.7188,5.7188,5.7188,5.7188,5.7188,5.7188,5.7188,5.7188,5.7188,5.7152,5.7152,5.7152,5.7116,5.7116,5.7116,5.7116,5.708,5.5595,5.4894,0.0,0.0,4.9582,4.5355,0.0,0.0,0.0,0.0,0.0,0.0,0.0,0.0,0.0,0.0,0.0,0.0,0.0,0.0,0.0,0.0,0.0,0.0,0.0,0.0,0.0,0.0,0.0,0.0,4.2119,0.0,0.0,4.7928,4.9312,5.1005,5.2159,5.3159,5.4049,5.4895,5.5439,5.5708,5.5708,5.6016,5.6549,5.6647,5.7251,5.8355,5.8689,5.9034,5.9395,5.9612,5.9559,5.9352,5.9251,5.9534,5.9975,5.9842,5.9793,5.9724,5.9356,5.9205,5.9135,5.8733,5.843,5.8175,5.8054,5.7997,5.7997,5.7997,5.84,5.8792,5.8792,5.9208,5.9612,5.9612,5.9869,6.0199,6.037,6.0676,6.0921,6.0921,6.1949,6.2793,6.2793,6.1912,6.1178,6.1178,6.1178,6.1178,6.1178,5.9318,5.7939,5.7763,5.7751,5.7571,5.7226,5.8166,5.8782,5.8782,5.8782,5.8782,5.8782,5.8782,5.8782,5.8782,5.8275,5.7985,5.7985,5.7442,5.7188,5.7188,5.6681,5.6428,5.1669,5.1972,0.0,0.0,4.6706,0.0,4.155,0.0,0.0,0.0,0.0,0.0,0.0,0.0,0.0,0.0,0.0,0.0,0.0,3.2935,0.0,0.0,0.0,3.7469,0.0,0.0,3.9585,4.1658,4.0966,4.2081,0.0,0.0,4.8697,5.0928,5.2428,5.3626,5.4472,5.5285,5.5665,5.5543,5.5844,5.6219,5.6658,5.7035,5.7782,5.8841,5.8941,5.9131,5.9397,5.9334,5.914,5.8908,5.9126,5.9506,5.9969,5.9844,5.9869,5.9989,5.9706,5.9453,5.9123,5.8609,5.8217,5.7997,5.7997,5.8217,5.8437,5.8437,5.9013,5.9636,5.9636,6.0003,6.0419,6.0419,6.0639,6.0823,6.0823,6.1325,6.1765,6.1765,6.2316,6.2793,6.2793,6.2793,6.2793,6.2793,6.2793,6.2793,6.2793,6.0921,5.9578,5.9578,5.9481,5.9296,5.8953,5.9506,5.9868,5.9868,5.9724,5.9602,5.9602,5.9602,5.9602,5.9602,5.9108,5.8818,5.8818,5.8311,5.8058,5.8058,5.8058,5.7913]}]]